[[[{"header":{"parameterUnit":"kt","parameterCategory":2,"dx":1,"dy":1,"la1":29.587661999999998,"la2":31.0,"lo1":-88.76705300000003,"lo2":-86.6583820000003,"nx":115,"ny":88,"refTime":"2022-10-26T00:00:00:Z","depth":0,"parameterNumber":1,"parameterNumberName":"U-component_of_WINDS"},"data":[10.5191,10.5938,10.7326,10.8556,10.9618,11.0261,11.1026,11.1405,11.0653,10.9365,10.7945,10.7159,10.6386,10.6659,10.6217,10.6501,10.7304,10.8514,10.9267,11.017,11.206,11.2411,11.2854,11.4262,11.4976,11.5811,11.6429,11.6095,11.5543,11.6228,11.5944,11.4824,11.592,11.5391,11.3939,11.3491,11.3551,11.2512,11.1514,11.0242,10.7966,10.5641,10.3471,10.0915,9.8437,9.5554,9.278,8.8406,8.4245,8.0947,7.728,7.2639,6.8746,6.4774,6.3421,6.2562,6.1333,5.8113,5.4491,4.9349,4.3428,3.7147,3.1549,2.5814,2.1266,1.7262,1.532,1.3311,1.1213,1.1049,1.0632,1.0576,1.0146,1.0076,1.0032,0.9354,0.8324,0.8299,0.7928,0.7552,0.7529,0.8196,0.9183,0.9225,0.9592,0.8333,0.7724,0.6069,0.5098,0.4825,0.4895,0.389,0.2501,0.108,-0.0723,-0.3968,-0.4701,-0.5088,-0.5843,-0.6618,-0.8106,-1.0268,-1.3789,-1.7589,-2.0593,-2.3262,-2.5888,-2.7834,-2.9459,-3.0427,-3.0958,-3.1562,-3.2529,-3.3927,-3.5382,10.46,10.5072,10.5329,10.5647,10.6151,10.6178,10.7112,10.8181,10.7856,10.7999,10.8006,10.4631,10.3636,10.3868,10.4009,10.4467,10.5292,10.6698,10.7293,10.8297,10.9781,11.0121,11.1102,11.2333,11.3098,11.3728,11.4839,11.4937,11.4383,11.5799,11.6224,11.5062,11.49,11.5088,11.4466,11.3604,11.2776,11.2326,11.081,10.9396,10.7516,10.516,10.3555,10.176,9.9699,9.7655,9.5196,9.1621,8.73,8.3855,8.0729,7.5933,7.1162,6.6641,6.5797,6.4618,6.3029,6.0552,5.7031,5.2642,4.6938,4.1036,3.5433,3.0038,2.5337,2.2086,2.0533,1.7953,1.4542,1.3236,1.2827,1.2747,1.2619,1.2177,1.2484,1.2453,1.1044,0.9654,0.8922,0.7868,0.8532,0.8891,0.9578,1.0283,0.9678,0.8403,0.7098,0.5427,0.4093,0.4492,0.4535,0.352,0.1064,-0.2133,-0.4283,-0.5364,-0.5381,-0.5769,-0.5803,-0.696,-0.8109,-1.0658,-1.3846,-1.7913,-2.0917,-2.3634,-2.5924,-2.8826,-3.0121,-3.1683,-3.219,-3.2904,-3.3864,-3.4069,-3.53,10.4277,10.4679,10.4605,10.4753,10.4832,10.4732,10.4942,10.5286,10.493,10.5007,10.491,10.3344,10.2671,10.3515,10.3715,10.3986,10.3927,10.5141,10.5948,10.6554,10.746,10.8054,10.901,11.0339,11.111,11.2191,11.3467,11.4204,11.3857,11.5319,11.5944,11.5062,11.5045,11.4844,11.3729,11.3133,11.2134,11.1957,10.9552,10.7966,10.6751,10.4081,10.2296,9.9939,9.7795,9.6263,9.4568,9.21,8.8935,8.6669,8.3981,7.916,7.4664,6.9407,6.7652,6.6613,6.4901,6.2532,5.9098,5.5136,5.0352,4.5157,3.9394,3.3552,2.8733,2.8609,2.6983,2.1561,1.8346,1.6204,1.5778,1.5334,1.5189,1.4773,1.4738,1.4716,1.3299,1.2183,1.106,1.0314,1.0294,1.0657,1.0689,1.1071,0.9746,0.8799,0.7497,0.6159,0.48,0.4146,0.452,0.3498,-0.1053,-0.4224,-0.565,-0.5671,-0.5689,-0.5724,-0.5756,-0.6531,-0.7313,-1.0258,-1.3896,-1.7979,-2.1309,-2.3645,-2.6631,-2.9554,-3.121,-3.2648,-3.3411,-3.4228,-3.4372,-3.4796,-3.6388,10.4155,10.4225,10.4078,10.3772,10.3339,10.3208,10.3036,10.2717,10.2307,10.2118,10.1829,10.171,10.1892,10.2802,10.3236,10.289,10.299,10.413,10.5104,10.5473,10.5803,10.6713,10.7257,10.8649,10.9452,11.0753,11.1453,11.2273,11.3238,11.4615,11.5199,11.5462,11.5095,11.529,11.4226,11.2803,11.2087,11.1957,10.9971,10.8302,10.705,10.4081,10.1498,9.8872,9.6615,9.5597,9.4016,9.1882,8.9783,8.8368,8.5717,8.2425,7.8028,7.3032,7.0093,6.8682,6.6447,6.3916,6.0677,5.6717,5.2439,4.7678,4.2594,3.739,3.4195,3.4625,3.1863,2.6099,2.1993,1.9787,1.8446,1.8326,1.7865,1.7483,1.7111,1.6415,1.5719,1.4866,1.3672,1.3248,1.2833,1.2502,1.1851,1.1192,1.0171,0.8855,0.7891,0.6886,0.5175,0.4477,0.4849,0.3815,-0.1043,-0.3835,-0.5245,-0.5615,-0.5631,-0.5663,-0.5705,-0.6107,-0.6152,-0.9036,-1.1891,-1.678,-2.1269,-2.4243,-2.6826,-2.9771,-3.2132,-3.3609,-3.4589,-3.5305,-3.5554,-3.6515,-3.8099,10.4098,10.3964,10.3235,10.2267,10.0584,10.0694,10.072,10.0514,9.9831,9.9812,10.0447,10.0541,10.0954,10.1674,10.2689,10.2468,10.2592,10.3718,10.4632,10.4325,10.5129,10.5788,10.6571,10.7264,10.8394,10.8757,10.9412,11.0509,11.2302,11.4238,11.557,11.7432,11.6424,11.573,11.5368,11.3897,11.3233,11.3109,11.15,10.9528,10.8115,10.5976,10.3062,10.0374,9.7757,9.5559,9.3871,9.1513,8.8882,8.7241,8.5378,8.3515,8.0149,7.6098,7.2121,6.9723,6.7457,6.4587,6.1629,5.8173,5.3963,4.9787,4.5189,4.0688,3.8517,3.7984,3.4654,2.9338,2.5116,2.3148,2.1844,2.1345,2.0823,2.0381,1.9624,1.8887,1.8127,1.7265,1.6353,1.5108,1.4688,1.3993,1.3344,1.1996,1.0969,0.8932,0.7937,0.6916,0.587,0.5496,0.5507,0.5165,0.1726,-0.1039,-0.3128,-0.489,-0.5245,-0.5613,-0.5658,-0.57,-0.609,-0.7854,-1.0293,-1.482,-1.9646,-2.299,-2.661,-2.936,-3.1714,-3.369,-3.5428,-3.6399,-3.7586,-3.8926,-4.0394,10.7246,10.6397,10.5072,10.3863,10.2478,10.0855,10.0131,10.0141,9.9711,9.9506,10.004,10.0816,10.118,10.132,10.2455,10.2756,10.2308,10.383,10.459,10.4759,10.5544,10.5664,10.6365,10.7273,10.758,10.7306,10.7983,10.9108,11.0695,11.2776,11.575,11.746,11.707,11.6894,11.6592,11.5662,11.4993,11.51,11.4196,11.2047,10.9482,10.649,10.298,9.9542,9.6218,9.4111,9.2693,9.0367,8.86,8.7214,8.6058,8.453,8.1965,7.9092,7.5013,7.0472,6.8141,6.5545,6.2534,5.9054,5.5807,5.2426,4.7789,4.3966,4.2726,4.1057,3.6756,3.2791,2.9238,2.6336,2.5443,2.4537,2.3597,2.3033,2.1874,2.1091,2.0588,1.9724,1.8747,1.7401,1.6596,1.5884,1.45,1.2802,1.1437,0.9697,0.7971,0.7272,0.6886,0.6501,0.615,0.6177,0.3783,0.172,-0.1388,-0.3492,-0.4188,-0.4543,-0.4925,-0.5302,-0.6031,-0.7449,-0.8854,-1.2998,-1.7739,-2.138,-2.5351,-2.8394,-3.1389,-3.3935,-3.6006,-3.7138,-3.8538,-4.0315,-4.2125,11.0508,10.8941,10.7085,10.5735,10.4897,10.3017,10.1263,9.9925,9.9804,9.9823,9.998,10.0847,10.0993,10.1261,10.3128,10.3082,10.3416,10.4318,10.5082,10.569,10.6246,10.6069,10.6464,10.7111,10.7402,10.7417,10.7672,10.8415,10.9935,11.1866,11.4775,11.7564,11.7913,11.8237,11.813,11.758,11.8628,11.8697,11.7518,11.5033,11.2074,10.8853,10.4606,10.0884,9.7563,9.3962,9.1411,8.9094,8.687,8.5854,8.4765,8.3505,8.2162,7.9881,7.6862,7.2319,6.8828,6.6506,6.3391,6.0257,5.6778,5.3603,5.0149,4.7377,4.5431,4.2933,3.9826,3.6086,3.2211,2.9363,2.7949,2.6579,2.5589,2.4635,2.3724,2.2865,2.2296,2.1765,2.1547,2.0164,1.8563,1.7475,1.459,1.3217,1.1811,1.0087,0.868,0.8274,0.7537,0.7486,0.7136,0.6853,0.5493,0.4453,0.1725,-0.139,-0.2433,-0.3482,-0.4204,-0.4578,-0.5639,-0.6699,-0.7767,-1.0899,-1.4639,-1.896,-2.3458,-2.7455,-3.0693,-3.3259,-3.5987,-3.7415,-3.9467,-4.1251,-4.3007,11.2943,11.1182,10.8944,10.7692,10.7072,10.7315,10.428,9.9246,9.9587,9.9946,10.0367,10.0119,10.0684,10.1498,10.307,10.2983,10.253,10.582,10.594,10.5751,10.7517,10.7448,10.755,10.7736,10.8029,10.824,10.8483,10.8642,10.9583,11.1666,11.4263,11.671,11.8209,11.9536,12.0592,12.0849,12.1643,12.1337,12.0201,11.7858,11.4986,11.1798,10.7319,10.3109,9.9301,9.5501,9.1524,8.8039,8.5749,8.3382,8.1887,8.0729,7.9569,7.916,7.6483,7.3056,6.9214,6.6479,6.3391,5.9864,5.6869,5.5167,5.1292,4.921,4.682,4.4456,4.1004,3.7361,3.4955,3.2509,2.9777,2.8334,2.6925,2.5937,2.4973,2.4711,2.4114,2.3502,2.328,2.2291,2.0631,1.8292,1.5378,1.359,1.2175,1.0771,0.9674,0.8932,0.8894,0.849,0.8143,0.7865,0.7174,0.6823,0.4791,0.1721,-0.0,-0.2766,-0.3132,-0.4552,-0.524,-0.6287,-0.732,-0.9044,-1.2511,-1.5831,-2.0248,-2.4557,-2.9126,-3.2661,-3.5022,-3.6807,-3.892,-4.1039,-4.3797,11.8309,11.5914,11.3276,11.1417,11.0443,11.103,10.8844,10.4879,10.2775,10.1588,10.1542,10.1891,10.1832,10.1913,10.3035,10.3167,10.416,10.6501,10.6608,10.7678,10.9361,10.9306,10.9475,10.999,10.9729,10.8744,10.8757,10.9413,11.0192,11.2116,11.3928,11.5688,11.7951,12.0078,12.2461,12.3241,12.3908,12.3426,12.2192,12.0086,11.7259,11.4234,10.9879,10.5704,10.1568,9.7314,9.3061,8.9463,8.6394,8.3382,8.1382,7.9505,7.8028,7.6483,7.4963,7.3467,7.037,6.8056,6.4536,6.065,5.773,5.6122,5.2596,4.9465,4.7418,4.5182,4.1349,3.8313,3.6452,3.3252,3.0143,2.9105,2.7664,2.5855,2.5209,2.4854,2.4221,2.3914,2.3671,2.2909,2.1537,1.8756,1.5748,1.4319,1.287,1.1415,1.0325,1.0295,1.0265,0.9512,0.8803,0.7807,0.7126,0.6114,0.477,0.3422,0.1373,-0.1374,-0.3457,-0.5222,-0.5907,-0.5873,-0.6876,-0.8218,-1.027,-1.3273,-1.738,-2.1791,-2.7116,-3.0656,-3.3658,-3.6006,-3.8372,-4.1096,-4.3831,12.3688,12.1101,11.7507,11.5493,11.5047,11.6424,11.4372,10.9883,10.5291,10.2935,10.3048,10.2787,10.2417,10.28,10.3577,10.4624,10.5358,10.6732,10.8296,10.9367,11.0944,11.0918,11.1034,11.1834,11.1853,11.0708,11.0406,11.1114,11.1406,11.2483,11.3463,11.4902,11.7563,12.0177,12.2199,12.4173,12.4671,12.4477,12.338,12.1602,11.9131,11.5907,11.188,10.7602,10.4013,9.9581,9.4461,9.0666,8.7076,8.3373,8.0289,7.8375,7.6862,7.4993,7.3438,7.2319,7.1168,6.8828,6.5729,6.1851,5.8871,5.6187,5.2933,4.9828,4.7456,4.4935,4.1596,3.8118,3.6337,3.3278,3.0196,2.9102,2.7648,2.5842,2.5541,2.5198,2.4559,2.4263,2.3606,2.32,2.1864,1.9438,1.7338,1.5838,1.3917,1.2421,1.2036,1.2002,1.1659,1.056,0.9842,0.8825,0.7461,0.6105,0.5098,0.4791,0.309,0.1026,-0.1372,-0.414,-0.5504,-0.5475,-0.6472,-0.7476,-0.8795,-1.0437,-1.3661,-1.7468,-2.3471,-2.8901,-3.2058,-3.4626,-3.7647,-4.0659,-4.3991,12.888,12.6597,12.1327,11.9935,12.116,12.3463,12.0573,11.4264,10.6983,10.4288,10.5229,10.387,10.3212,10.3506,10.5487,10.584,10.6076,10.8563,11.0165,11.0311,11.202,11.3156,11.3371,11.347,11.3978,11.3578,11.3393,11.3098,11.3206,11.3614,11.4437,11.5737,11.7814,11.9396,11.9335,12.2179,12.3378,12.3187,12.3068,12.1887,12.0045,11.7509,11.4244,11.0293,10.6841,10.2469,9.7203,9.2943,8.8169,8.4047,8.0201,7.765,7.5754,7.3849,7.2319,7.1139,6.9985,6.8442,6.6506,6.261,5.9125,5.6405,5.3667,5.0091,4.7738,4.5111,4.2038,3.8164,3.6172,3.3545,3.07,2.8334,2.6908,2.5874,2.5552,2.5241,2.4665,2.4032,2.3782,2.309,2.1833,2.0543,1.8696,1.6961,1.4987,1.4169,1.4095,1.339,1.306,1.2338,1.1295,1.026,0.9213,0.7826,0.7108,0.6488,0.5138,0.3744,0.1359,-0.2041,-0.4077,-0.4061,-0.5066,-0.7084,-0.8059,-0.9341,-1.126,-1.3491,-1.8221,-2.3445,-2.7866,-3.3094,-3.6989,-4.0309,-4.4138,13.4394,13.0792,12.7249,12.5934,12.6296,12.5487,12.2916,11.8643,11.2073,10.9134,10.8887,10.7795,10.7111,10.6896,10.7578,10.7529,10.7804,10.8857,10.9928,11.1228,11.2715,11.3308,11.4193,11.5197,11.6108,11.5464,11.5481,11.6272,11.6676,11.58,11.6076,11.7469,11.9451,11.9771,11.9975,12.1148,12.2372,12.243,12.2466,12.1562,12.0969,11.8525,11.5523,11.3309,10.9286,10.5181,10.0686,9.5425,9.0528,8.5785,8.1461,7.806,7.5344,7.2702,7.1139,6.9985,6.8442,6.7281,6.6118,6.3782,6.065,5.7128,5.3957,5.1312,4.839,4.5896,4.2548,3.8634,3.6373,3.3905,3.0081,2.824,2.6814,2.5281,2.4948,2.4278,2.3687,2.3415,2.3183,2.2951,2.1872,2.0497,1.873,1.7467,1.6563,1.6795,1.6337,1.5899,1.5196,1.4142,1.3091,1.1693,1.0275,0.9507,0.8764,0.7465,0.6476,0.4744,0.3381,-0.0,-0.1345,-0.1339,-0.2004,-0.4665,-0.6637,-0.8254,-0.9868,-1.148,-1.4617,-1.8309,-2.4147,-3.0284,-3.4207,-3.9453,-4.3511,14.0053,13.6276,13.4915,13.3029,13.1219,13.0031,12.7308,12.3434,11.8548,11.5645,11.4526,11.2441,11.122,11.0881,11.0889,11.0607,10.9814,11.0721,11.1469,11.2467,11.4068,11.5392,11.6154,11.7538,11.8243,11.7941,11.8229,11.9137,11.9823,11.9223,11.8854,11.8704,12.0017,12.0213,11.9683,11.988,12.0339,12.0723,12.0759,12.0385,11.9842,11.803,11.6186,11.4764,11.1131,10.7175,10.3835,9.8445,9.2933,8.7218,8.2213,7.85,7.5374,7.1139,6.96,6.8828,6.6867,6.5729,6.4951,6.261,6.065,5.7523,5.4752,5.163,4.8218,4.625,4.2975,3.9214,3.5946,3.3425,2.9743,2.798,2.6239,2.4735,2.3646,2.2988,2.233,2.2423,2.2183,2.1963,2.1257,2.0543,1.9237,1.8312,1.8524,1.909,1.858,1.8094,1.7014,1.6283,1.3831,1.2083,1.0938,1.0161,0.9182,0.849,0.7457,0.6425,0.5395,0.3695,0.2341,0.1996,0.0331,-0.2302,-0.4257,-0.6886,-0.8855,-0.9813,-1.2667,-1.7039,-2.2039,-2.7353,-3.2828,-3.8342,-4.2954,14.6153,14.3632,14.3638,14.0866,13.6537,13.6529,13.3714,12.9144,12.4835,12.2457,12.1897,11.8639,11.6831,11.57,11.5968,11.4752,11.2429,11.5107,11.4848,11.4544,11.5559,11.742,11.8505,11.8653,11.9023,11.9524,12.0051,12.0806,12.1558,12.1623,12.2008,12.15,12.0935,11.9927,11.9192,11.8998,11.8974,11.8696,11.8773,11.8734,11.8057,11.6613,11.5259,11.4607,11.158,10.7788,10.5829,9.9828,9.3941,8.9038,8.3572,7.9505,7.5921,7.1026,6.8581,6.7425,6.588,6.3992,6.3112,6.1165,5.8983,5.7454,5.5082,5.1589,4.8485,4.6364,4.2671,3.8827,3.5393,3.2443,2.9755,2.7086,2.5394,2.3958,2.2533,2.1914,2.1303,2.1018,2.1123,2.0951,2.0687,2.036,1.975,1.9751,2.0258,2.1561,2.138,2.1218,2.0152,1.8751,1.5945,1.348,1.2302,1.1252,1.028,0.9563,0.9168,0.8457,0.7399,0.6353,0.5665,0.3633,0.2298,-0.0,-0.1635,-0.5231,-0.8175,-0.915,-1.1394,-1.5782,-2.0353,-2.5335,-3.0577,-3.6593,-4.1994,15.524,15.5624,15.232,14.8005,14.3607,14.6501,14.3784,13.7196,12.9052,12.7996,13.0577,12.9072,12.5974,12.3948,12.2338,12.0668,11.7631,11.7351,11.6971,11.6828,11.7181,11.796,11.9029,11.997,11.9957,11.9391,12.0808,12.1574,12.2598,12.3744,12.4178,12.3791,12.1651,12.0629,11.9545,11.8447,11.7709,11.7571,11.7797,11.772,11.7328,11.6333,11.5216,11.4272,11.2053,10.8934,10.6337,10.1388,9.6018,9.1222,8.6227,8.1462,7.703,7.1857,6.8716,6.7103,6.4844,6.2572,6.0986,5.9874,5.8487,5.7086,5.4862,5.2637,4.9551,4.7101,4.3909,3.9467,3.5648,3.2738,2.9767,2.6786,2.4599,2.3197,2.1392,2.0437,1.9848,1.9509,1.9619,2.0192,2.0331,2.0433,2.1158,2.117,2.2368,2.4007,2.4209,2.4384,2.3291,2.2245,1.9106,1.5976,1.4816,1.3752,1.2711,1.1626,1.1224,1.0489,0.9387,0.867,0.8665,0.7286,0.5258,0.3273,0.1962,-0.1634,-0.5555,-0.7845,-0.9798,-1.4573,-1.9257,-2.3761,-2.8778,-3.4516,-4.0494,16.5714,16.5105,15.9377,15.464,15.1646,15.415,15.14,14.4305,13.7338,13.647,13.8942,13.8157,13.5712,13.2453,12.9805,12.7281,12.4367,12.2836,12.1664,12.0472,11.9613,11.93,11.9767,12.0406,12.0733,12.0745,12.1721,12.2674,12.2706,12.3937,12.4633,12.3431,12.1824,12.0522,11.951,11.8265,11.7615,11.715,11.6913,11.6706,11.5896,11.4613,11.359,11.3154,11.0652,10.8361,10.5936,10.1836,9.6833,9.2716,9.001,8.51,7.8679,7.2787,6.857,6.7416,6.4269,6.1842,6.0096,5.8908,5.7675,5.5984,5.4857,5.3483,5.0842,4.7719,4.4431,4.0454,3.6495,3.3318,3.0489,2.6754,2.4589,2.2017,2.022,1.9263,1.8653,1.8358,1.8861,1.9408,1.993,2.1398,2.2455,2.39,2.5758,2.6669,2.6851,2.7094,2.6393,2.5372,2.2601,1.9133,1.7688,1.6244,1.5473,1.4054,1.3653,1.362,1.2484,1.2112,1.1741,1.0668,0.894,0.7253,0.4917,0.1634,-0.196,-0.5226,-0.882,-1.3652,-1.8441,-2.3361,-2.8174,-3.3985,-4.018,17.6,17.2617,16.5941,16.1577,15.9979,16.1603,15.8198,15.1648,14.8745,14.719,14.7122,14.6762,14.4981,14.1986,13.8825,13.552,13.2236,12.9675,12.7163,12.4872,12.3519,12.238,12.1586,12.1796,12.1943,12.2251,12.3702,12.4173,12.4428,12.382,12.3471,12.2834,12.158,11.9928,11.9558,11.8265,11.729,11.6963,11.701,11.6022,11.4334,11.1853,11.0971,11.0269,10.8536,10.6564,10.4674,10.1406,9.7268,9.335,9.2145,8.8069,8.0275,7.3285,6.929,6.7277,6.5264,6.2068,5.988,5.8306,5.6821,5.5463,5.4734,5.3592,5.1403,4.862,4.5436,4.1241,3.7104,3.3971,3.103,2.6945,2.4045,2.1506,1.9768,1.8011,1.8265,1.8771,1.8877,1.9787,2.2379,2.3428,2.4767,2.6957,2.8766,2.9294,2.9498,2.9484,2.9142,2.8469,2.6405,2.3603,2.1816,2.0037,1.8581,1.6509,1.6143,1.6493,1.574,1.5354,1.4574,1.3454,1.2028,1.0258,0.788,0.4902,0.1306,-0.2938,-0.7833,-1.2699,-1.786,-2.289,-2.7806,-3.3998,-4.0265,18.2442,17.9125,17.514,17.1275,16.8593,17.1662,16.9377,16.3305,16.0411,15.8837,15.7653,15.6026,15.4141,15.177,15.023,14.6913,14.0548,13.6443,13.3724,13.1231,12.8301,12.671,12.6372,12.5693,12.4498,12.4393,12.507,12.494,12.6596,12.6097,12.4972,12.3817,12.2476,12.1162,11.951,11.8542,11.7615,11.6963,11.6263,11.5517,11.3739,11.1154,10.8896,10.8274,10.6556,10.4415,10.2756,10.0115,9.7025,9.409,9.1963,8.9162,8.2517,7.4029,6.9751,6.9602,6.6539,6.2998,6.04,5.8529,5.6619,5.4919,5.5077,5.408,5.2211,5.0167,4.7406,4.2054,3.7621,3.4133,3.1104,2.6629,2.3792,2.1741,1.9614,1.7884,1.893,1.9517,1.9594,2.2271,2.4428,2.6492,2.775,2.9834,3.1031,3.1881,3.2922,3.2906,3.2223,3.1212,2.9414,2.6978,2.524,2.3468,2.1743,1.9656,2.0018,2.0027,1.9637,1.8915,1.7767,1.6263,1.4432,1.2632,1.054,0.8159,0.4573,0.0327,-0.6186,-1.2355,-1.7564,-2.2651,-2.7849,-3.3484,-3.9954,18.7478,18.5105,18.1306,17.8387,17.7729,18.0862,17.8512,17.2551,17.1614,16.9612,16.6804,16.4964,16.2957,16.1103,16.0216,15.6204,15.0167,14.5178,14.1566,13.8312,13.4883,13.3052,13.1198,13.0008,12.8592,12.8259,12.9416,13.1031,13.1413,12.8953,12.6822,12.5341,12.3083,12.158,12.0697,11.951,11.8589,11.7615,11.7243,11.5798,11.3335,11.0928,10.7725,10.5716,10.3988,10.256,10.065,9.9294,9.6931,9.3867,9.2546,8.9198,8.3651,7.7757,7.3761,7.2727,6.8822,6.4436,6.1231,5.8786,5.6879,5.5178,5.4822,5.4243,5.2804,5.1016,4.8396,4.4194,3.9984,3.4758,3.1618,2.7082,2.3846,2.1814,1.9314,1.8787,1.9443,2.0062,2.3183,2.6904,2.8547,3.0124,3.1324,3.2452,3.362,3.4935,3.5989,3.5649,3.4952,3.3121,3.093,2.9218,2.8225,2.6521,2.524,2.4211,2.4245,2.3902,2.3192,2.2472,2.0967,1.9364,1.7492,1.5638,1.3511,1.1405,0.7476,0.2589,-0.5178,-1.2305,-1.6865,-2.1388,-2.7258,-3.3346,-3.992,19.2113,19.068,18.6329,18.4898,18.5759,18.8391,18.5853,18.1205,18.1045,17.8862,17.4447,17.323,17.1086,16.8793,16.7232,16.4187,15.9415,15.4483,15.0316,14.7022,14.3522,14.0573,13.8262,13.6827,13.6437,13.588,13.6957,13.7764,13.5919,13.2079,13.0221,12.7934,12.4987,12.307,12.2554,12.0842,11.9558,11.8865,11.7894,11.6215,11.3431,11.105,10.7997,10.3432,10.1953,10.0823,9.9306,9.7718,9.6035,9.3533,9.2104,8.9202,8.4801,8.0326,7.7134,7.5147,7.0582,6.6152,6.239,5.9524,5.7198,5.5493,5.526,5.4488,5.3101,5.1226,4.939,4.6262,4.1461,3.5987,3.213,2.7846,2.4165,2.1792,2.014,1.9627,2.0616,2.3022,2.6774,3.0705,3.2782,3.4338,3.5728,3.6774,3.7224,3.7792,3.9269,3.9344,3.7082,3.447,3.2679,3.1718,3.1105,2.9826,2.892,2.8552,2.7952,2.7557,2.6888,2.5826,2.4448,2.2805,2.1161,1.9881,1.8015,1.4573,0.9649,0.4485,-0.2563,-0.9664,-1.4865,-1.9778,-2.5963,-3.2359,-3.9021,19.7574,19.5188,19.3202,19.1427,19.0473,19.2244,19.1759,18.897,18.7144,18.5304,18.3095,18.0173,17.7442,17.4886,17.4141,17.257,16.8593,16.3607,15.9434,15.6442,15.3102,15.0211,14.8201,14.7172,14.7889,15.2104,14.8937,14.508,14.2334,13.896,13.5053,13.1771,12.9131,12.7175,12.5012,12.3017,12.1529,12.057,11.8913,11.6493,11.4171,11.1389,10.8205,10.3688,10.1031,9.9107,9.7507,9.6396,9.4529,9.2504,9.0803,8.8941,8.5555,8.1873,7.8255,7.7048,7.2783,6.8244,6.4283,6.1238,5.9412,5.7578,5.682,5.6089,5.4467,5.2719,5.055,4.7549,4.3822,3.837,3.1347,2.7865,2.5201,2.2904,2.2135,2.2865,2.4951,2.8701,3.1773,3.4816,3.7071,3.8568,3.9624,4.0772,4.0817,4.0975,4.2217,4.2237,3.869,3.6043,3.4964,3.4303,3.3477,3.2504,3.2915,3.26,3.1611,3.0985,3.0415,2.9487,2.8252,2.6774,2.529,2.4011,2.0765,1.6986,1.27,0.6649,-0.0,-0.6726,-1.2845,-1.8938,-2.5211,-3.1686,-3.7693,19.8992,19.8124,19.7304,19.6895,19.7441,19.8881,19.8541,19.6557,19.4636,19.2479,18.98,18.6389,18.3628,18.1459,17.9515,17.7719,17.5134,17.1601,16.8143,16.4567,16.2222,15.9295,15.7617,16.0174,16.1417,16.1052,15.7355,15.3269,14.8928,14.4547,14.041,13.6877,13.3284,13.0534,12.8397,12.6403,12.4837,12.3241,12.1404,11.908,11.6017,11.2693,10.8722,10.446,9.9791,9.622,9.4741,9.4014,9.2609,9.1144,8.9438,8.7921,8.6363,8.2672,8.0147,7.8577,7.5047,7.0647,6.6588,6.3538,6.0899,5.8104,5.7853,5.6792,5.5317,5.3944,5.1496,4.8509,4.5073,4.0273,3.3433,2.956,2.7215,2.5735,2.5219,2.5428,2.7521,3.253,3.7209,4.0153,4.1801,4.3039,4.3887,4.4769,4.4826,4.4857,4.6089,4.556,4.2025,3.8385,3.7357,3.755,3.6702,3.629,3.6684,3.6581,3.5639,3.5071,3.4186,3.2759,3.2458,3.103,2.9287,2.5922,2.2961,1.9244,1.4386,0.814,0.1566,-0.5352,-1.2325,-1.8389,-2.4363,-3.0691,-3.6673,20.044,20.0494,20.0098,20.0927,20.2371,20.3552,20.3146,20.1703,20.038,19.7689,19.523,19.1728,18.8858,18.6536,18.3006,18.0919,17.9063,17.7393,17.5363,17.1592,17.0151,16.8827,17.0025,17.2522,17.3383,16.9392,16.4705,16.0089,15.5352,14.9886,14.5335,14.2276,13.8054,13.4204,13.2491,13.0617,12.8708,12.7052,12.4987,12.214,11.8922,11.4673,11.0083,10.5681,10.0147,9.5712,9.2837,9.1778,9.1227,8.9637,8.8277,8.7755,8.674,8.3619,8.1383,7.9877,7.7147,7.2747,6.9098,6.5634,6.2609,6.0037,5.9115,5.7685,5.6227,5.4311,5.1844,4.9128,4.6045,4.1662,3.6056,3.2077,2.9513,2.8457,2.8238,2.8639,3.1514,3.657,4.1382,4.4748,4.682,4.7691,4.8419,4.8944,4.9322,4.9156,4.8708,4.8438,4.4941,4.0912,4.1083,4.1879,4.1313,4.075,4.0854,4.073,3.9741,3.9209,3.7571,3.6222,3.6949,3.5889,3.3077,2.9515,2.5065,2.0154,1.5037,0.9202,0.2456,-0.4623,-1.1777,-1.8111,-2.4432,-2.9711,-3.5909,20.4096,20.2368,20.2368,20.1868,20.1579,20.2233,20.2872,20.2656,20.1225,20.0217,19.8887,19.5182,19.1554,18.8163,18.5066,18.2386,18.0828,18.0588,17.9326,17.8369,17.8549,18.0112,18.1891,18.1555,17.8678,17.5161,16.9823,16.474,16.0044,15.578,15.14,14.7323,14.3165,13.9955,13.7521,13.4229,13.1866,13.0587,12.8043,12.5012,12.1818,11.7484,11.2803,10.8033,10.2722,9.7912,9.3516,9.0993,8.9659,8.774,8.7559,8.7739,8.7755,8.4235,8.2293,8.1389,7.8004,7.4224,7.1157,6.7592,6.4768,6.2499,6.0341,5.9001,5.7202,5.4803,5.2251,4.9794,4.5994,4.2842,3.9029,3.5073,3.2528,3.1454,3.0705,3.3359,3.7792,4.0893,4.3685,4.7453,5.0247,5.1241,5.2296,5.2822,5.2985,5.2779,5.3244,5.233,4.9481,4.6654,4.6604,4.6717,4.6053,4.5394,4.491,4.5074,4.4441,4.4057,4.2623,4.2355,4.2694,4.0764,3.7328,3.2657,2.676,2.1311,1.5987,0.9308,0.2701,-0.4519,-1.2111,-1.8395,-2.4136,-2.889,-3.3486,20.4226,20.2999,20.3276,20.3313,20.2873,20.3471,20.418,20.4307,20.3008,20.2267,20.1097,19.7905,19.4316,19.0897,18.7385,18.4294,18.2206,18.2329,18.1587,18.06,18.2646,18.6006,18.8646,18.6945,18.3474,17.9624,17.475,16.9711,16.4803,16.0601,15.6379,15.1878,14.8058,14.513,14.2706,13.9648,13.7789,13.6591,13.3094,12.9938,12.7161,12.1247,11.5712,10.9505,10.4165,9.868,9.3173,8.9982,8.8109,8.7171,8.7053,8.7391,8.7169,8.5571,8.4021,8.2412,7.9461,7.6083,7.2639,6.9947,6.6677,6.3658,6.2682,6.0228,5.7659,5.5914,5.3598,5.0575,4.6983,4.4045,4.1538,3.8602,3.6211,3.494,3.5955,3.8821,4.3358,4.4663,4.6695,4.9669,5.2849,5.5179,5.644,5.7314,5.7049,5.6576,5.7458,5.6218,5.4685,5.3555,5.2679,5.2082,5.1408,5.0203,4.9395,5.0407,5.0475,5.0252,4.9324,4.9449,4.8741,4.6745,4.1781,3.5381,2.8672,2.2437,1.6047,0.9465,0.2955,-0.3844,-1.2416,-1.8758,-2.2388,-2.6649,-3.1309,20.3142,20.299,20.3604,20.3853,20.3608,20.3531,20.4111,20.521,20.3499,20.2445,20.2337,19.9499,19.6404,19.3493,18.9961,18.6531,18.4242,18.35,18.2462,18.1482,18.5058,18.8876,19.0644,18.9384,18.6544,18.2684,17.8032,17.3386,16.8246,16.3617,15.9611,15.5485,15.1681,14.8913,14.6771,14.3985,14.2819,14.1584,13.7878,13.4542,13.142,12.5039,11.8286,11.179,10.5864,9.9867,9.4226,9.0261,8.7525,8.6023,8.6248,8.6439,8.6645,8.5923,8.5068,8.3259,8.1262,7.8225,7.4916,7.1971,6.8624,6.4614,6.3516,6.153,5.7367,5.612,5.4298,5.1535,4.8071,4.5202,4.3826,4.1855,4.0095,3.9211,4.0903,4.3519,4.6212,4.804,4.9531,5.2199,5.5602,5.8416,6.0048,6.1086,6.1221,6.1221,6.1529,6.1281,5.9769,5.8778,5.8268,5.7871,5.6578,5.4947,5.4365,5.5497,5.5872,5.5365,5.5011,5.4926,5.3376,5.0979,4.5227,3.8406,3.1277,2.3894,1.698,1.077,0.4083,-0.2045,-0.9915,-1.6875,-2.0629,-2.4257,-2.8777,20.2127,20.1914,20.292,20.3069,20.2508,20.1037,20.1836,20.342,20.1769,20.1475,20.2203,20.0112,19.7686,19.5237,19.1962,18.9051,18.6512,18.5154,18.389,18.45,18.6625,18.9144,19.0081,18.9869,18.7957,18.4601,17.9419,17.4442,16.9696,16.4943,16.0938,15.7629,15.4176,15.1154,14.9133,14.6974,14.5078,14.3197,14.0067,13.7235,13.3989,12.8022,12.215,11.6279,10.9126,10.242,9.663,9.221,8.8205,8.5057,8.4947,8.5512,8.6319,8.4284,8.4828,8.6182,8.319,8.0278,7.7573,7.4256,7.0187,6.6701,6.4351,6.1592,5.8477,5.6005,5.4116,5.2334,4.8923,4.6542,4.5932,4.4579,4.3691,4.367,4.4672,4.6464,4.8461,5.0449,5.257,5.4886,5.8224,6.1265,6.3177,6.3666,6.4029,6.3955,6.4125,6.4456,6.3699,6.3209,6.384,6.2896,6.1569,6.0053,5.8333,5.9498,5.9216,5.8654,5.8208,5.7853,5.673,5.4101,4.9726,4.145,3.3569,2.5615,1.8748,1.3477,0.7443,-0.0287,-0.7747,-1.4016,-1.8751,-2.1633,-2.572,20.0504,19.9831,20.0574,20.0714,20.0595,19.995,20.0737,20.1977,20.0938,20.1095,20.1931,20.0818,19.8856,19.6448,19.39,19.1248,18.8582,18.7425,18.7448,18.8231,18.8712,18.9852,19.12,19.1368,18.9579,18.571,18.0468,17.5489,17.1579,16.6498,16.2611,15.9982,15.6771,15.4369,15.3461,15.1262,14.9905,14.8793,14.5617,14.2189,13.7939,13.2795,12.6123,11.8226,11.1381,10.4061,9.6627,9.3764,9.05,8.7264,8.5383,8.5555,8.6695,8.6172,8.5644,8.5948,8.3684,8.072,7.8408,7.5952,7.2472,6.7955,6.5945,6.3679,5.9632,5.6162,5.4693,5.3857,5.07,4.8164,4.8604,4.7397,4.7391,4.8922,4.9121,4.9434,5.0732,5.2886,5.5442,5.8085,6.0749,6.3172,6.5254,6.6097,6.598,6.6507,6.671,6.6756,6.6529,6.6201,6.6067,6.59,6.5052,6.394,6.3031,6.2543,6.2307,6.1001,5.9633,5.8298,5.7084,5.4101,5.1628,4.3298,3.5444,2.75,1.9428,1.4459,0.9057,0.1126,-0.678,-1.1825,-1.5704,-1.9062,-2.3067,19.8356,19.8107,19.8667,19.9131,19.938,19.8794,19.9845,20.1428,20.034,20.0645,20.1489,20.099,19.9743,19.7735,19.6103,19.3705,19.111,19.1409,19.1829,19.1964,19.0644,19.066,19.201,19.184,19.0247,18.6743,18.1203,17.6309,17.1819,16.6399,16.2334,15.984,15.6751,15.5104,15.4188,15.2709,15.1527,15.104,14.8257,14.4744,14.0965,13.5938,12.9492,12.1326,11.4695,10.7572,9.971,9.7057,9.3576,8.8727,8.6234,8.5048,8.6299,8.732,8.766,8.6251,8.4285,8.2013,7.9172,7.6986,7.3907,6.9186,6.6974,6.4649,6.0815,5.8107,5.6763,5.6548,5.3048,5.1086,5.1719,5.0541,5.0415,5.3218,5.2776,5.2875,5.3478,5.5254,5.8129,6.0849,6.3103,6.5293,6.682,6.7563,6.7703,6.8127,6.8615,6.8595,6.8443,6.8065,6.8134,6.7581,6.6966,6.5811,6.4396,6.3346,6.1829,5.9495,5.7675,5.5651,5.4431,5.2234,4.9939,4.4693,3.7262,2.9393,2.0724,1.4111,0.8764,0.1976,-0.4221,-0.8667,-1.2474,-1.6512,-2.0508,19.5749,19.6213,19.7426,19.8132,19.8545,19.7551,19.8813,20.081,19.9613,19.994,20.1045,20.0394,19.9764,19.9799,19.8315,19.6492,19.4871,19.6312,19.6735,19.5744,19.376,19.2406,19.1897,19.0793,18.9565,18.8405,18.2288,17.642,17.0794,16.4913,16.0258,15.6802,15.4377,15.2621,15.0833,15.1266,15.0011,14.8512,14.7408,14.4684,14.1202,13.7225,13.2057,12.5971,11.9379,11.2778,10.7159,10.3084,9.7398,9.0556,8.6552,8.4623,8.5598,8.7716,8.8914,8.7042,8.5366,8.3086,8.0399,7.8414,7.534,7.1166,6.7999,6.5298,6.2601,6.0969,5.9882,5.8738,5.552,5.4167,5.5784,5.4435,5.3839,5.5203,5.6104,5.6241,5.6634,5.7507,5.9125,6.2272,6.5064,6.6903,6.7897,6.8767,6.9347,6.96,6.9655,6.9649,6.907,6.906,6.9274,6.8261,6.6937,6.5943,6.5047,6.4019,6.0612,5.7603,5.5365,5.2844,5.1354,4.9829,4.755,4.3872,3.6464,3.118,2.2463,1.5852,1.0199,0.3676,-0.0845,-0.6175,-1.0519,-1.4762,-1.8755,19.2182,19.1934,19.343,19.4461,19.4788,19.5205,19.6679,19.8335,19.7772,19.8262,19.9407,19.9758,19.9646,19.9234,19.8896,19.8642,19.8511,19.9146,19.9684,19.9292,19.6565,19.4715,19.3715,19.2063,18.954,18.6548,18.3972,17.8319,17.0445,16.4403,16.0338,15.7606,15.4895,15.3508,15.3571,15.3057,15.2603,15.1916,15.0166,14.7717,14.4201,14.087,13.5758,12.8708,12.4753,11.9693,11.3351,10.5807,9.9403,9.444,9.0701,8.8225,8.705,8.7497,8.7576,8.7765,8.693,8.5303,8.3221,8.1469,7.8632,7.4571,7.1352,6.8138,6.5181,6.4342,6.2629,6.0524,5.8739,5.8139,5.8684,5.8956,5.8967,5.8505,5.8917,5.9147,5.9715,6.0476,6.2211,6.4736,6.7477,6.9213,7.0464,7.0593,7.0679,7.1416,7.0634,7.0439,6.9548,6.8656,6.7117,6.7089,6.6034,6.4823,6.3273,6.1108,5.7763,5.5233,5.262,5.0106,4.8415,4.6549,4.4172,4.0826,3.6318,3.1321,2.521,1.8219,1.1343,0.4243,-0.0564,-0.5059,-0.9696,-1.3352,-1.731,19.0161,18.9117,19.0534,19.1492,19.2239,19.2858,19.4141,19.5934,19.5454,19.5956,19.7333,19.7347,19.7915,19.8793,19.8941,19.903,19.9484,20.0002,20.0496,20.0199,19.6875,19.484,19.3571,19.0817,18.7957,18.5137,18.3533,17.8267,16.9615,16.3406,15.9259,15.7001,15.4275,15.2782,15.2809,15.3,15.2718,15.2246,15.1297,14.9112,14.6166,14.3432,13.9095,13.2352,13.0188,12.5594,11.8022,11.0411,10.3563,9.7851,9.4318,9.1909,9.0605,8.8371,8.7217,8.7691,8.705,8.5685,8.4067,8.2895,8.0601,7.668,7.3021,6.9794,6.8274,6.7037,6.5283,6.2598,6.1251,6.1102,6.1419,6.1998,6.1984,6.1386,6.1183,6.1711,6.2472,6.3427,6.5155,6.7787,6.9363,7.0878,7.1719,7.1874,7.189,7.1728,7.1011,7.018,6.9681,6.7846,6.6366,6.5927,6.4608,6.2575,6.0845,5.7883,5.5182,5.2733,5.0286,4.7686,4.4722,4.288,4.1108,3.7862,3.4373,2.9442,2.5413,1.8641,1.2742,0.5933,-0.0,-0.4494,-1.0032,-1.2972,-1.6604,18.9689,18.8396,18.8567,18.9582,19.1383,19.0458,19.1401,19.361,19.2589,19.3515,19.5441,19.4066,19.5186,19.8129,19.742,19.7844,19.8308,19.9616,20.0118,19.944,19.5927,19.3435,19.1559,18.7624,18.5073,18.3665,18.1349,17.6454,16.8937,16.2133,15.7417,15.5128,15.2198,15.0033,14.9882,15.0895,15.0638,14.9563,14.9757,14.8969,14.7076,14.4805,14.1758,13.7671,13.5234,12.9717,12.1488,11.6243,10.9561,10.1164,9.7475,9.5406,9.4576,9.0535,8.783,8.7319,8.6291,8.5042,8.3627,8.2815,8.124,7.7742,7.3627,7.0698,7.0438,6.92,6.7274,6.4577,6.2567,6.217,6.3384,6.306,6.2775,6.3172,6.332,6.4129,6.5218,6.6069,6.8063,7.041,7.1007,7.1482,7.2333,7.2488,7.24,7.1528,7.0937,6.9999,6.896,6.7523,6.5812,6.4474,6.341,6.1703,5.7679,5.5705,5.2997,5.046,4.8538,4.5598,4.2332,3.9246,3.7285,3.4905,3.1774,2.8196,2.419,1.9299,1.3903,0.8185,0.2258,-0.4238,-1.014,-1.257,-1.5719,18.8064,18.6702,18.6495,18.6994,18.784,18.7315,18.8379,19.0259,18.9524,19.0796,19.3586,19.3463,19.329,19.3411,19.2914,19.5056,19.8734,19.9277,19.9944,20.0456,19.7662,19.4415,19.0975,18.7707,18.3918,18.0258,17.8898,17.5987,17.0667,16.3558,15.8376,15.5528,15.2241,15.0603,15.0628,15.0732,15.0541,15.0082,15.0007,14.892,14.734,14.6559,14.4483,14.0636,13.6762,13.1344,12.4771,11.8078,11.1436,10.512,10.1431,9.8359,9.5685,9.2883,9.0586,8.9047,8.7363,8.598,8.4913,8.364,8.209,8.0737,7.6944,7.412,7.3078,7.1721,6.9335,6.5934,6.4882,6.3568,6.3526,6.3551,6.4015,6.4169,6.5151,6.5892,6.6907,6.8036,6.9338,7.0667,7.1528,7.2192,7.2847,7.345,7.3296,7.2202,7.1013,6.9757,6.7579,6.5452,6.3534,6.3103,6.0817,5.8411,5.6051,5.4273,5.2757,5.0257,4.8031,4.5633,4.2264,4.0202,3.8305,3.426,3.0968,2.7419,2.4204,2.0383,1.5815,0.9888,0.3393,-0.368,-0.9356,-1.26,-1.5509,18.7387,18.4848,18.4454,18.4471,18.4807,18.4966,18.5838,18.7315,18.6327,18.7473,18.9851,18.9536,18.9367,18.911,19.0255,19.2343,19.5697,19.6698,19.777,19.8378,19.4806,19.1572,18.8415,18.4938,18.1213,17.7753,17.6824,17.4461,17.0818,16.5937,16.0928,15.6584,15.3479,15.1432,15.1129,15.0796,15.0381,14.9543,14.9752,14.8649,14.6188,14.5862,14.3889,14.0458,13.6815,13.1565,12.4906,11.9471,11.2989,10.588,10.2807,9.9329,9.433,9.2103,9.0103,8.8293,8.6032,8.4279,8.3352,8.2064,8.1056,7.9649,7.7326,7.5265,7.323,7.238,7.0329,6.6297,6.4169,6.3248,6.291,6.3637,6.4477,6.5495,6.6041,6.6886,6.772,6.8852,7.0002,7.0963,7.1528,7.1891,7.2925,7.2987,7.2331,7.1578,6.9886,6.8625,6.6992,6.3987,6.1928,6.0747,5.829,5.5761,5.4136,5.3159,5.1991,5.0189,4.8411,4.608,4.2756,4.0234,3.7244,3.3892,3.0523,2.7296,2.4437,2.0869,1.7239,1.2438,0.5374,-0.0,-0.7374,-1.0976,-1.4544,18.734,18.3447,18.2768,18.2396,18.2504,18.2597,18.3366,18.4109,18.2867,18.3409,18.5007,18.3555,18.3892,18.5792,18.8343,18.9976,19.1202,19.2644,19.3971,19.4429,18.9541,18.6531,18.4745,18.0173,17.7483,17.6354,17.4461,17.2703,17.0818,16.826,16.4197,15.8618,15.4951,15.2565,15.0997,15.0851,14.9871,14.8019,14.8879,14.7671,14.4377,14.345,14.1337,13.8065,13.5507,13.0388,12.2272,11.9342,11.3052,10.3994,10.1494,9.7904,9.2088,8.9423,8.744,8.5697,8.3358,8.1111,7.9622,7.9012,7.7861,7.6085,7.5623,7.4574,7.2451,7.1302,6.924,6.5556,6.1928,6.1357,6.2917,6.3276,6.3921,6.5624,6.6264,6.7036,6.7796,6.9045,6.9982,7.1219,7.0747,7.1257,7.1835,7.1148,7.0209,7.0493,6.8986,6.7261,6.6325,6.348,6.0994,5.9174,5.6294,5.3971,5.3137,5.2247,5.1469,5.0103,4.8377,4.685,4.4461,4.0733,3.6338,3.4856,3.1388,2.7625,2.4743,2.1913,1.8362,1.3525,0.9882,0.594,-0.2539,-0.8171,-1.243,18.642,18.4077,18.2622,18.1598,18.0593,17.858,17.8638,18.0194,17.9548,17.8887,17.8469,17.7557,17.9642,18.3802,18.386,18.6761,19.1227,19.0281,19.0984,19.2823,18.7741,18.4033,18.1746,17.829,17.5453,17.356,17.2112,17.1307,17.0823,16.697,16.4121,16.2049,15.6076,15.2569,15.1822,15.0897,14.9601,14.83,14.7029,14.5314,14.3674,14.2329,13.9959,13.6135,13.1446,12.5404,11.7886,11.2365,10.6349,9.9772,9.5641,9.2024,8.8832,8.6448,8.4621,8.3104,8.1298,7.9801,7.7724,7.5389,7.4221,7.4179,7.2736,7.2068,7.1735,6.7958,6.406,6.1883,6.093,6.0617,6.1005,6.1796,6.2811,6.3856,6.4535,6.5081,6.6075,6.7285,6.8101,6.7862,6.865,6.9251,6.921,6.8655,6.8824,6.9751,6.9352,6.7358,6.4966,6.2896,6.0936,5.9278,5.7081,5.5067,5.4826,5.3654,5.2643,5.2599,5.1122,4.9577,4.7663,4.3798,3.9538,3.5855,3.2156,2.8461,2.4955,2.2745,1.9706,1.4535,1.0957,0.7595,0.1661,-0.3879,-0.9516,18.4471,18.2132,18.0162,17.8958,17.8029,17.6144,17.5834,17.6679,17.4618,17.4037,17.4514,17.4498,17.6147,17.8994,17.9889,18.2703,18.7023,18.6629,18.7477,18.8882,18.4824,18.1394,17.8753,17.5516,17.3185,17.1566,16.9786,16.9037,16.8713,16.5766,16.3733,16.2697,15.8028,15.4141,15.1831,15.0015,14.8307,14.6889,14.533,14.3679,14.1721,13.9732,13.6474,13.1799,12.7148,12.0713,11.2503,10.8038,10.2542,9.5887,9.2805,8.9397,8.5496,8.3046,8.0671,7.7951,7.654,7.5181,7.3398,7.1299,6.9847,6.9316,6.8522,6.7539,6.5861,6.2034,5.9175,5.7982,5.8396,5.8626,5.8323,5.945,6.0611,6.1729,6.2138,6.297,6.4206,6.5377,6.5931,6.6221,6.7366,6.7724,6.7515,6.7083,6.7463,6.8201,6.7845,6.6588,6.4564,6.2932,6.1394,5.9949,5.7228,5.5558,5.55,5.4174,5.3375,5.367,5.2456,5.1255,4.9846,4.6184,4.184,3.8148,3.3975,2.9812,2.6144,2.4038,2.0495,1.586,1.17,0.8313,0.5485,0.1375,-0.2776,18.2412,17.9464,17.7217,17.5876,17.5086,17.4215,17.3691,17.301,16.9368,16.9071,17.1363,17.2032,17.2696,17.3497,17.5893,17.8303,18.0418,18.2278,18.3532,18.4518,18.1459,17.8801,17.6308,17.2706,17.0821,16.998,16.7961,16.6726,16.622,16.4729,16.315,16.1726,15.9511,15.6044,15.1915,14.9252,14.662,14.4221,14.371,14.2041,13.9374,13.6757,13.277,12.72,12.3213,11.688,10.7581,10.4534,9.9546,9.2162,9.0409,8.7381,8.2113,7.9404,7.6415,7.2882,7.1305,6.9856,6.8498,6.7093,6.5299,6.3126,6.3262,6.151,5.702,5.5122,5.4249,5.3938,5.4649,5.5186,5.5155,5.6555,5.7919,5.9075,5.9214,6.0065,6.2464,6.3222,6.3757,6.4476,6.5446,6.586,6.5677,6.5393,6.5306,6.6037,6.5915,6.5228,6.4631,6.4023,6.2584,6.0477,5.7458,5.6077,5.6366,5.48,5.3937,5.4276,5.3232,5.1987,5.1003,4.7627,4.422,4.0936,3.6504,3.216,2.828,2.5227,2.1968,1.7627,1.2801,0.9206,0.8105,0.6276,0.4402,18.0243,18.049,17.6851,17.4464,17.2768,17.1816,16.9866,16.7098,16.5079,0.0,0.0,16.642,16.8292,17.1762,17.1946,17.4648,17.9509,17.8258,18.0045,18.4067,17.8468,17.5825,17.6076,17.1688,16.9249,16.8229,16.6814,16.6618,16.7598,16.4472,16.2676,16.1877,15.8536,15.551,15.314,15.0764,14.6689,14.1159,14.0984,14.0122,13.7735,13.5696,13.2064,12.6787,12.1446,11.4278,10.4776,9.9628,9.4006,8.7921,8.3972,8.0789,7.8252,7.6223,7.3899,7.1474,6.9724,6.7553,6.5194,6.3286,6.105,5.8162,5.7699,5.488,4.9022,4.9264,4.9499,4.9739,5.1215,5.192,5.099,5.3499,5.5362,5.5605,5.5296,5.6326,5.9325,6.0956,6.1482,6.1274,6.2042,6.2337,6.2441,6.2337,6.2724,6.4188,6.4571,6.4705,6.5886,6.5822,6.4863,6.2992,6.0798,5.9126,5.8817,5.7176,5.5805,5.548,5.5025,5.3935,5.2293,5.0249,4.7467,4.4091,3.9481,3.4935,3.0842,2.8474,2.4948,1.9592,1.4861,1.1579,1.0798,0.958,0.7825,17.7953,17.82,17.4463,17.2046,0.0,16.8885,16.5535,16.1561,16.25,16.3147,16.3621,16.3621,16.4822,16.6958,16.7293,16.9818,17.3798,17.4104,17.6489,17.9934,17.6873,17.5115,17.4611,17.0933,16.7945,16.5786,16.4557,16.3837,16.314,16.1559,15.9706,15.7647,15.5211,15.3027,15.0701,14.8099,14.4605,14.0306,13.9413,13.8131,13.6407,13.4531,13.0365,12.4249,11.9774,0.0,0.0,0.0,0.0,0.0,0.0,0.0,0.0,7.581,7.1644,6.8772,6.4507,6.0889,5.7902,5.6243,5.4585,5.3149,5.1854,4.8723,4.2889,4.4212,4.5066,4.3863,4.627,4.7301,4.6031,4.8315,4.9962,4.9878,5.0998,5.2793,5.5024,5.733,5.8715,5.9141,5.9965,6.074,6.0705,6.1225,6.2234,6.3183,6.3914,6.4862,6.6019,6.6421,6.6493,6.5979,6.3896,6.2272,6.1619,5.9223,5.7093,5.6781,5.602,5.492,5.3218,5.2039,5.0038,4.5959,4.2202,3.8073,3.4354,3.2314,2.9243,2.285,1.728,1.3841,1.4361,1.2482,1.0017,17.5489,17.505,17.1838,16.9909,16.8636,16.5321,16.1155,15.7088,15.9793,16.0761,16.0244,16.0361,16.0418,16.0361,16.1827,16.4031,16.6824,16.9414,17.2327,17.5281,17.4801,17.3924,17.2438,16.9722,16.675,16.3509,16.2472,16.0823,15.8224,15.8224,15.6249,15.2845,15.1504,14.9825,14.7075,0.0,0.0,0.0,13.7747,13.6269,13.4704,13.3101,12.9079,12.2624,11.9354,0.0,10.6363,10.2427,9.8598,9.4194,9.1425,0.0,8.4957,0.0,0.0,0.0,0.0,0.0,0.0,0.0,0.0,0.0,4.5513,4.229,3.81,3.9821,4.0385,3.8333,4.1011,4.2375,4.1166,4.3092,4.4428,4.4251,4.6057,4.8261,5.0142,5.2727,5.5118,5.6851,5.8134,5.8798,5.9165,6.0311,6.1346,6.2238,6.3422,6.4447,6.5437,6.5813,6.65,6.7722,6.6073,6.4553,6.3449,6.0819,5.879,5.7605,5.6677,5.5527,5.3924,5.3318,5.1793,4.8274,4.4798,4.1416,3.7802,3.6877,3.4303,2.641,1.9419,1.555,1.7901,1.5399,1.2258,17.2485,17.3082,17.0943,16.8155,16.4962,16.006,15.6838,15.5049,15.5828,15.5597,15.4746,15.3478,15.2763,15.2531,15.3993,15.673,16.052,16.2375,16.6094,17.0934,16.9458,16.9249,17.0108,16.7961,16.5514,16.2415,16.2013,15.9888,15.6727,15.6314,15.3995,15.0332,14.8507,14.6576,14.4446,13.8233,13.5293,13.5683,13.5012,13.397,13.2765,13.2169,12.9916,12.5811,12.2526,11.8194,11.2365,10.72,10.2909,9.9409,9.6611,9.235,8.6215,7.4833,6.715,0.0,5.727,0.0,0.0,0.0,0.0,0.0,0.0,0.0,0.0,3.5176,3.5254,3.4625,3.6037,3.7049,3.7215,3.9198,4.0707,4.1162,3.9895,4.0705,4.4499,4.7301,5.0406,5.4101,5.4073,5.4276,5.5731,5.6837,5.8764,6.0813,6.1799,6.2681,6.3945,6.4003,6.4576,6.6569,6.6476,6.4838,6.2361,6.1324,6.0,5.8056,5.7267,5.6726,5.5491,5.4907,5.3782,5.1268,4.8241,4.5164,4.1664,4.1422,3.8985,3.0642,2.2414,1.7719,2.0437,1.8331,1.4797,16.8619,16.8867,16.5441,15.9935,15.3235,15.0599,14.9976,15.063,15.221,15.0935,14.7737,14.61,14.376,14.1582,14.3563,14.6611,15.0414,15.4086,15.8198,16.2442,16.409,16.4611,16.3936,16.3575,16.2199,15.952,15.8058,15.5824,15.2484,15.1237,14.8169,14.3368,14.2372,13.7706,12.9456,12.9114,12.988,13.1171,13.2119,13.2443,13.1968,13.0344,12.8061,12.5389,12.2039,11.7904,11.3128,10.9186,10.5386,10.1916,10.032,9.559,8.6924,7.3941,6.5539,0.0,0.0,0.0,0.0,0.0,0.0,0.0,0.0,0.0,0.0,0.0,3.0595,3.0415,3.1164,3.1747,3.1782,3.3124,3.4476,3.5425,3.4825,3.6098,3.9768,4.1804,4.4459,4.7932,4.933,5.0834,5.2206,5.4246,5.6578,5.8246,5.9114,6.0242,6.1481,6.1664,6.233,6.3979,6.4982,6.4645,6.2422,6.1221,6.0275,5.9055,5.7931,5.6978,5.6093,5.5659,5.4644,5.2517,5.0654,4.8382,4.534,4.4325,4.1802,3.4588,2.8666,2.5674,2.5369,2.1551,1.7568,16.2901,16.1609,15.3196,14.5692,13.9037,13.7663,13.9599,14.3736,14.639,14.5662,14.2065,13.8858,13.5579,13.2043,13.1778,13.4124,13.8585,14.3298,14.8019,15.2554,15.6702,15.8274,15.7804,15.8626,15.817,15.6425,15.3733,15.0667,14.7159,14.476,14.0442,13.4431,13.205,12.576,11.6147,12.0553,12.4442,12.7152,12.937,13.085,13.1124,12.8569,12.6316,12.4477,12.1616,11.7969,11.3919,11.0871,10.7451,10.3588,10.2444,9.6975,8.6305,7.1543,0.0,0.0,0.0,0.0,0.0,0.0,0.0,0.0,0.0,3.1126,2.3963,0.0,2.6567,0.0,2.7075,2.8098,2.7893,2.866,0.0,0.0,3.0365,3.1063,3.246,3.5187,3.8631,4.2872,4.5036,4.6883,4.8744,5.2041,5.429,5.5334,5.6569,5.7813,5.8849,5.9136,5.9598,6.0379,6.1374,6.2004,6.1073,6.0029,5.8978,5.9232,5.7811,5.648,5.6057,5.577,5.5062,5.2757,5.176,5.0369,4.7354,4.6193,4.333,3.8402,3.5567,3.3232,3.0043,2.5598,2.1191,15.4238,15.0029,12.9859,12.2456,12.387,12.0589,12.431,13.2716,13.6329,13.8601,13.918,13.2993,12.9084,12.6736,11.8627,0.0,12.477,12.8143,13.4118,14.2038,14.5942,14.9626,15.2761,15.3653,15.4172,15.452,14.9489,14.4824,14.0762,13.7614,13.1482,12.2443,11.4745,11.0863,11.0972,11.4596,11.9181,12.4265,12.7003,12.8774,12.9723,12.7796,12.616,12.483,12.2847,12.0324,11.7148,11.3417,10.9394,10.4861,10.2191,9.5204,8.3019,0.0,0.0,0.0,0.0,0.0,0.0,0.0,0.0,0.0,0.0,0.0,0.0,0.0,0.0,1.9866,2.4587,0.0,2.7976,2.7953,0.0,0.0,0.0,2.4322,1.9507,2.6326,3.4208,4.1635,0.0,0.0,4.5832,4.9531,5.1904,5.2412,5.4547,5.6271,5.6633,5.6385,5.6186,5.5673,5.5796,5.639,5.7258,5.6689,5.6131,5.6444,5.6015,5.5343,5.5499,5.5107,5.3767,5.1996,5.1367,5.0335,4.7112,4.6806,4.6002,4.2068,3.9528,3.7176,3.4054,2.9718,2.5078,13.4331,11.9122,10.6828,10.4075,10.7421,10.1473,10.8455,12.4587,12.4002,12.3123,12.1411,11.6951,10.9913,10.1407,9.7025,0.0,0.0,0.0,11.9356,12.8659,13.3991,13.9436,14.4634,14.663,14.7926,14.8263,14.2115,13.6658,13.2019,12.7467,11.5697,9.7369,0.0,9.4914,9.4523,10.3125,11.1131,11.8185,12.3325,12.6636,12.7796,12.7819,12.6309,12.3268,12.1515,11.8672,11.4152,11.0981,10.605,9.9187,9.3489,8.4999,0.0,0.0,0.0,0.0,0.0,0.0,0.0,0.0,0.0,0.0,0.0,2.4481,2.0139,0.0,0.0,0.0,2.0867,2.2783,2.374,2.4478,0.0,0.0,0.0,0.0,0.0,0.0,0.0,3.1475,3.4131,3.6887,4.087,4.5116,4.8317,4.9369,5.2733,5.4714,5.2821,0.0,5.2442,5.2155,5.2217,5.2284,5.2263,5.1783,5.1461,5.1458,5.1583,5.2277,5.3872,5.3811,5.3102,5.2442,5.2077,5.1029,4.7931,4.5845,4.3838,4.2023,3.9786,3.7734,3.6123,3.2106,2.7346,11.1204,0.0,0.0,0.0,0.0,8.5589,9.3665,10.9842,10.7885,10.6505,10.5081,10.1408,0.0,0.0,0.0,0.0,0.0,0.0,10.6359,11.4375,12.3304,13.017,13.4977,13.7173,13.8967,13.9988,13.4424,12.8169,12.0907,11.176,9.74,7.8643,0.0,0.0,0.0,0.0,10.3855,11.2581,11.9453,12.4,12.6316,12.6359,12.4809,12.199,11.9693,11.6082,11.0661,10.6774,10.0361,9.1127,8.3444,0.0,0.0,0.0,0.0,0.0,0.0,0.0,0.0,0.0,0.0,0.0,0.0,0.0,0.0,0.0,0.0,0.0,0.0,0.0,2.0962,2.2694,2.3257,0.0,0.0,0.0,0.0,0.0,0.0,0.0,0.0,0.0,3.5572,4.0623,4.4744,0.0,0.0,5.1757,5.0375,4.923,4.8668,4.8988,4.8866,0.0,4.7498,4.7459,4.7158,4.5982,4.6994,4.8405,4.9621,5.0416,5.0799,5.0159,5.0371,4.9963,4.7596,4.4814,4.2367,4.1009,3.9115,3.743,3.6341,3.3199,2.9172,0.0,0.0,0.0,0.0,7.1345,0.0,0.0,0.0,8.7041,8.9681,0.0,8.8126,0.0,0.0,0.0,0.0,7.7592,8.8582,0.0,0.0,11.4092,12.173,12.2892,12.5296,12.716,12.8372,12.665,11.9275,10.6794,8.857,7.6738,0.0,0.0,0.0,0.0,0.0,9.786,10.8427,11.5222,12.0952,12.5335,12.2837,12.139,12.1171,11.7415,11.293,10.7736,10.0927,9.2089,8.1123,7.319,0.0,0.0,0.0,0.0,0.0,0.0,0.0,0.0,0.0,0.0,0.0,0.0,0.0,0.0,0.0,0.0,0.0,0.0,0.0,0.0,2.4138,0.0,0.0,0.0,0.0,0.0,0.0,0.0,0.0,0.0,2.7291,3.0181,3.6148,4.181,4.6417,0.0,0.0,0.0,0.0,4.5366,4.6538,4.5338,4.4374,4.3833,4.4486,4.4194,4.1356,0.0,0.0,4.1623,4.3985,4.585,4.4335,4.5756,4.6515,4.5293,4.382,4.222,3.9736,3.8444,3.7302,3.579,3.3535,3.0718,0.0,0.0,0.0,0.0,0.0,0.0,0.0,0.0,0.0,7.7496,7.6099,7.4576,0.0,0.0,0.0,0.0,0.0,0.0,0.0,0.0,9.8079,10.5975,11.1609,11.396,11.5208,11.4978,10.8067,9.7981,0.0,0.0,0.0,0.0,0.0,0.0,0.0,0.0,9.2761,10.4139,11.3435,12.0161,12.4054,12.3272,12.2065,12.0488,11.8066,11.2107,10.217,9.4315,8.5718,0.0,0.0,0.0,0.0,0.0,0.0,0.0,0.0,0.0,0.0,0.0,0.0,0.0,0.0,0.0,0.0,0.0,0.0,0.0,0.0,0.0,0.0,0.0,2.2657,0.0,0.0,0.0,0.0,0.0,0.0,0.0,0.0,0.0,2.8544,3.4083,3.9249,4.3206,4.6442,4.8826,4.9473,0.0,0.0,0.0,0.0,0.0,0.0,0.0,3.8105,3.7196,3.6435,3.5707,3.5497,3.9868,4.3504,4.3603,0.0,0.0,4.0197,3.8978,3.8443,3.7179,3.6241,3.566,3.5552,3.3099,3.0436,0.0,0.0,0.0,0.0,0.0,0.0,0.0,0.0,0.0,6.5245,6.2392,0.0,0.0,0.0,0.0,0.0,0.0,0.0,0.0,0.0,0.0,0.0,9.8066,10.003,0.0,0.0,0.0,0.0,0.0,0.0,0.0,0.0,0.0,0.0,0.0,0.0,8.8976,10.0446,11.1316,11.8858,12.2798,12.2643,12.1811,12.0416,11.9237,11.3379,10.2579,0.0,0.0,0.0,5.4523,0.0,0.0,0.0,0.0,0.0,0.0,0.0,0.0,0.0,0.0,0.0,0.0,0.0,0.0,0.0,0.0,0.0,0.0,0.0,0.0,0.0,2.0981,0.0,0.0,0.0,0.0,0.0,0.0,0.0,0.0,0.0,0.0,3.1341,3.5746,3.9938,4.4336,4.79,4.9869,5.0465,5.0482,0.0,0.0,0.0,0.0,0.0,0.0,0.0,0.0,0.0,0.0,0.0,0.0,0.0,4.0213,4.0503,3.6166,3.5341,3.5276,3.5097,0.0,0.0,0.0,0.0,0.0,0.0,0.0,0.0,0.0,0.0,0.0,0.0,0.0,0.0,0.0,5.242,0.0,0.0,5.1142,0.0,0.0,0.0,0.0,0.0,0.0,0.0,0.0,0.0,0.0,0.0,0.0,0.0,0.0,0.0,0.0,0.0,0.0,0.0,0.0,0.0,0.0,8.6397,9.7485,10.8931,11.6927,12.1377,12.057,12.0664,12.1521,12.0576,11.6504,10.9149,0.0,0.0,0.0,0.0,0.0,0.0,0.0,0.0,0.0,0.0,0.0,0.0,0.0,0.0,0.0,0.0,0.0,0.0,0.0,0.0,0.0,0.0,0.0,0.0,0.0,0.0,2.1773,2.1878,2.1125,0.0,0.0,0.0,0.0,0.0,0.0,0.0,0.0,0.0,3.6632,4.0125,4.4611,5.0879,5.1718,5.2437,5.3913,4.908,4.4191,4.1873,4.1385,3.917,0.0,0.0,0.0,0.0,0.0,0.0,0.0,0.0,0.0,0.0,0.0,0.0,0.0,0.0,0.0,0.0,0.0,0.0,0.0,0.0,0.0,0.0,0.0,0.0,0.0,0.0,0.0,0.0,4.8695,4.9698,0.0,0.0,0.0,0.0,0.0,0.0,0.0,0.0,0.0,0.0,0.0,0.0,0.0,0.0,0.0,0.0,0.0,0.0,0.0,0.0,0.0,0.0,0.0,0.0,8.508,9.5884,10.7702,11.6355,12.1913,12.2063,12.2294,12.301,12.1506,11.6951,10.9027,0.0,0.0,0.0,0.0,0.0,0.0,0.0,0.0,0.0,0.0,0.0,0.0,0.0,0.0,0.0,0.0,0.0,0.0,0.0,0.0,0.0,0.0,0.0,0.0,0.0,0.0,0.0,2.0821,2.1691,2.0701,0.0,0.0,0.0,0.0,0.0,0.0,0.0,0.0,0.0,0.0,4.5817,5.1603,5.3383,5.3877,5.3262,4.9319,4.5976,4.4553,4.0388,3.6044,3.2103,0.0,0.0,0.0,0.0,0.0,0.0,0.0,0.0,0.0,0.0,0.0,0.0,0.0,0.0,0.0,0.0,0.0,0.0,0.0,0.0,0.0,0.0,0.0,0.0,0.0,0.0,0.0,0.0,0.0,0.0,0.0,0.0,0.0,0.0,0.0,0.0,0.0,0.0,0.0,0.0,0.0,0.0,0.0,0.0,0.0,0.0,0.0,0.0,0.0,0.0,0.0,0.0,0.0,8.3453,9.3681,10.6316,11.546,12.0766,12.2292,12.3571,12.4434,12.3549,11.858,0.0,0.0,0.0,0.0,0.0,0.0,0.0,0.0,0.0,0.0,0.0,0.0,0.0,0.0,0.0,0.0,0.0,0.0,0.0,0.0,0.0,0.0,0.0,0.0,0.0,0.0,0.0,0.0,1.9226,2.0804,2.0591,0.0,0.0,0.0,0.0,0.0,0.0,0.0,0.0,0.0,0.0,4.5041,5.099,5.3031,0.0,0.0,4.8783,4.6018,4.3864,4.0965,3.6812,3.069,2.6236,0.0,0.0,0.0,0.0,0.0,0.0,0.0,0.0,0.0,0.0,0.0,0.0,0.0,0.0,0.0,0.0,0.0,0.0,0.0,0.0,0.0,0.0,0.0,0.0,0.0,0.0,0.0,0.0,0.0,0.0,0.0,0.0,0.0,0.0,0.0,0.0,0.0,0.0,0.0,0.0,0.0,0.0,0.0,0.0,0.0,0.0,0.0,0.0,0.0,0.0,0.0,0.0,8.1634,9.1314,10.4924,11.4105,11.8919,12.1976,12.4493,12.5988,12.574,12.0706,0.0,0.0,0.0,0.0,0.0,0.0,0.0,0.0,0.0,0.0,0.0,0.0,0.0,0.0,0.0,0.0,0.0,0.0,0.0,0.0,0.0,0.0,0.0,0.0,0.0,0.0,0.0,0.0,0.0,0.0,0.0,0.0,0.0,0.0,0.0,0.0,0.0,0.0,0.0,0.0,0.0,4.2876,4.9393,5.1523,5.1526,0.0,4.7209,4.4423,4.0552,4.1851,3.9736,2.8205,0.0,0.0,0.0,0.0,0.0,0.0,0.0,0.0,0.0,0.0,0.0,0.0,0.0,0.0,0.0,0.0,0.0,0.0,0.0,0.0,0.0,0.0,0.0,0.0,0.0,0.0,0.0,0.0,0.0,0.0,0.0,0.0,0.0,0.0,0.0,0.0,0.0,0.0,0.0,0.0,0.0,0.0,0.0,0.0,0.0,0.0,0.0,0.0,0.0,0.0,0.0,0.0,0.0,0.0,9.005,10.3587,11.3825,12.0592,12.3004,12.5643,12.8707,12.3363,0.0,0.0,0.0,0.0,0.0,0.0,0.0,0.0,0.0,0.0,0.0,0.0,0.0,0.0,0.0,0.0,0.0,0.0,0.0,0.0,0.0,0.0,0.0,0.0,0.0,0.0,0.0,1.3829,0.0,0.0,0.0,0.0,0.0,0.0,0.0,0.0,0.0,0.0,0.0,0.0,0.0,0.0,4.2972,5.0013,5.0421,4.9658,0.0,0.0,4.071,3.836,3.6702,3.3442,0.0,0.0,0.0,0.0,0.0,0.0,0.0,0.0,0.0,0.0,0.0,0.0,0.0,0.0,0.0,0.0,0.0,0.0,0.0,0.0,0.0,0.0,0.0,0.0,0.0,0.0,0.0,0.0,0.0,0.0,0.0,0.0,0.0,0.0,0.0,0.0,0.0,0.0,0.0,0.0,0.0,0.0,0.0,0.0,0.0,0.0,0.0,0.0,0.0,0.0,0.0,0.0,0.0,0.0,7.693,8.8626,10.0151,11.0748,12.0273,12.3374,12.6344,12.9589,12.6434,12.0974,0.0,0.0,0.0,0.0,0.0,0.0,0.0,0.0,0.0,0.0,0.0,0.0,0.0,0.0,0.0,0.0,0.0,0.0,0.0,0.0,0.0,0.0,0.0,0.0,0.0,0.0,0.0,0.0,0.0,0.0,0.0,0.0,0.0,0.0,0.0,0.0,0.0,0.0,0.0,0.0,0.0,0.0,4.3228,4.5242,0.0,0.0,0.0,3.6832,3.4426,0.0,0.0,0.0,0.0,0.0,0.0,0.0,0.0,0.0,0.0,0.0,0.0,0.0,0.0,0.0,0.0,0.0,0.0,0.0,0.0,0.0,0.0,0.0,0.0,0.0,0.0,0.0,0.0,0.0,0.0,0.0,0.0,0.0,0.0,0.0,0.0,0.0,0.0,0.0,0.0,0.0,0.0,0.0,0.0,0.0,0.0,0.0,0.0,0.0,0.0,0.0,0.0,0.0,0.0,0.0,0.0,0.0,8.7057,9.6261,10.7023,11.8886,12.3343,12.6701,12.9495,13.0653,12.5637,0.0,0.0,0.0,0.0,0.0,0.0,0.0,0.0,0.0,0.0,0.0,0.0,0.0,0.0,0.0,0.0,0.0,0.0,0.0,0.0,0.0,0.0,0.0,0.0,0.0,0.0,0.0,0.0,0.0,0.0,0.0,0.0,0.0,0.0,0.0,0.0,0.0,0.0,0.0,0.0,0.0,3.9526,3.5008,3.8671,4.004,0.0,0.0,3.2332,2.9491,3.1272,0.0,0.0,0.0,0.0,0.0,0.0,0.0,0.0,0.0,0.0,0.0,0.0,0.0,0.0,0.0,0.0,0.0,0.0,0.0,0.0,0.0,0.0,0.0,0.0,0.0,0.0,0.0,0.0,0.0,0.0,0.0,0.0,0.0,0.0,0.0,0.0,0.0,0.0,0.0,0.0,0.0,0.0,0.0,0.0,0.0,0.0,0.0,0.0,0.0,0.0,0.0,0.0,0.0,0.0,0.0,0.0,8.5469,9.7489,10.8505,11.7983,12.142,12.5476,13.0718,12.5581,12.0332,0.0,0.0,0.0,0.0,0.0,0.0,0.0,0.0,0.0,0.0,0.0,0.0,0.0,0.0,0.0,0.0,0.0,0.0,0.0,0.0,0.0,0.0,0.0,0.0,0.0,0.0,0.0,0.0,0.0,0.0,0.0,0.0,0.0,0.0,0.0,0.0,0.0,0.0,0.0,0.0,0.0,3.4859,3.8283,3.7144,0.0,0.0,0.0,0.0,2.5261,2.4544,0.0,0.0,0.0,0.0,0.0,0.0,0.0,0.0,0.0,0.0,0.0,0.0,0.0,0.0,0.0,0.0,0.0,0.0,0.0,0.0,0.0,0.0,0.0,0.0,0.0,0.0,0.0,0.0,0.0,0.0,0.0,0.0,0.0,0.0,0.0,0.0,0.0,0.0,0.0,0.0,0.0,0.0,0.0,0.0,0.0,0.0,0.0,0.0,0.0,0.0,0.0,0.0,0.0,0.0,0.0,0.0,8.7263,9.5553,10.5295,11.6427,12.1293,12.5984,13.081,12.8311,12.3297,0.0,0.0,0.0,0.0,0.0,0.0,0.0,0.0,0.0,0.0,0.0,0.0,0.0,0.0,0.0,0.0,0.0,0.0,0.0,0.0,0.0,0.0,0.0,0.0,0.0,0.0,0.0,0.0,0.0,0.0,0.0,0.0,0.0,0.0,0.0,0.0,0.0,0.0,0.0,0.0,2.7249,3.203,3.6839,0.0,0.0,0.0,0.0,0.0,0.0,2.0962,1.9499,0.0,0.0,0.0,0.0,0.0,0.0,0.0,0.0,0.0,0.0,0.0,0.0,0.0,0.0,0.0,0.0,0.0,0.0,0.0,0.0,0.0,0.0,0.0,0.0,0.0,0.0,0.0,0.0,0.0,0.0,0.0,0.0,0.0,0.0,0.0,0.0,0.0,0.0,0.0,0.0,0.0,0.0,0.0,0.0,0.0,0.0,0.0,0.0,0.0,0.0,0.0,0.0,0.0,0.0,0.0,8.7772,9.2132,10.0913,11.4562,12.0903,12.6101,13.0193,13.1906,12.6855,11.4375,0.0,0.0,0.0,0.0,0.0,0.0,0.0,0.0,0.0,0.0,0.0,0.0,0.0,0.0,0.0,0.0,0.0,0.0,0.0,0.0,0.0,0.0,0.0,0.0,0.0,0.0,0.0,0.0,0.0,0.0,0.0,0.0,0.0,0.0,0.0,0.0,0.0,0.0,0.0,2.3194,2.8409,0.0,0.0,0.0,0.0,0.0,0.0,0.0,0.0,1.7924,0.0,0.0,0.0,0.0,0.0,0.0,0.0,0.0,0.0,0.0,0.0,0.0,0.0,0.0,0.0,0.0,0.0,0.0,0.0,0.0,0.0,0.0,0.0,0.0,0.0,0.0,0.0,0.0,0.0,0.0,0.0,0.0,0.0,0.0,0.0,0.0,0.0,0.0,0.0,0.0,0.0,0.0,0.0,0.0,0.0,0.0,0.0,0.0,0.0,0.0,0.0,0.0,0.0,0.0,0.0,0.0,8.8177,9.9432,11.1616,11.7115,12.2667,12.8592,12.7438,12.0646,10.7827,0.0,0.0,0.0,0.0,0.0,0.0,0.0,0.0,0.0,0.0,0.0,0.0,0.0,0.0,0.0,0.0,0.0,0.0,0.0,0.0,0.0,0.0,0.0,0.0,0.0,0.0,0.0,0.0,0.0,0.0,0.0,0.0,0.0,0.0,0.0,0.0,0.0,0.0,0.9377,1.4855,0.0,0.0,0.0,0.0,0.0,0.0,0.0,0.0,1.6094,0.0,0.0,0.0,0.0,0.0,0.0,0.0,0.0,0.0,0.0,0.0,0.0,0.0,0.0,0.0,0.0,0.0,0.0,0.0,0.0,0.0,0.0,0.0,0.0,0.0,0.0,0.0,0.0,0.0,0.0,0.0,0.0,0.0,0.0,0.0,0.0,0.0,0.0,0.0,0.0,0.0,0.0,0.0,0.0,0.0,0.0,0.0,0.0,0.0,0.0,0.0,0.0,0.0,0.0,0.0,0.0,0.0,0.0,9.6531,10.8267,11.6061,12.2349,12.7214,12.0706,11.1732,0.0,0.0,0.0,0.0,0.0,0.0,0.0,0.0,0.0,0.0,0.0,0.0,0.0,0.0,0.0,0.0,0.0,0.0,0.0,0.0,0.0,0.0,0.0,0.0,0.0,0.0,0.0,0.0,0.0,0.0,0.0,0.0,0.0,0.0,0.0,0.0,0.0,0.0,0.0,0.0,0.0,0.0,0.0,0.0,0.0,0.0,0.0,0.0,0.0,0.0,0.0,0.0,0.0,0.0,0.0,0.0,0.0,0.0,0.0,0.0,0.0,0.0,0.0,0.0,0.0,0.0,0.0,0.0,0.0,0.0,0.0,0.0,0.0,0.0,0.0,0.0,0.0,0.0,0.0,0.0,0.0,0.0,0.0,0.0,0.0,0.0,0.0,0.0,0.0,0.0,0.0,0.0,0.0,0.0,0.0,0.0,0.0,0.0,0.0,0.0,0.0,0.0,0.0,0.0,0.0,0.0,0.0,0.0,9.2413,10.4609,11.4254,12.1421,12.5631,11.4852,10.439,0.0,0.0,0.0,0.0,0.0,0.0,0.0,0.0,0.0,0.0,0.0,0.0,0.0,0.0,0.0,0.0,0.0,0.0,0.0,0.0,0.0,0.0,0.0,0.0,0.0,0.0,0.0,0.0,0.0,0.0,0.0,0.0,0.0,0.0,0.0,0.0,0.0,0.0,0.0,0.0,0.0,0.0,0.0,0.0,0.0,0.0,0.0,0.0,1.4141,0.0,0.0,0.0,0.0,0.0,0.0,0.0,0.0,0.0,0.0,0.0,0.0,0.0,0.0,0.0,0.0,0.0,0.0,0.0,0.0,0.0,0.0,0.0,0.0,0.0,0.0,0.0,0.0,0.0,0.0,0.0,0.0,0.0,0.0,0.0,0.0,0.0,0.0,0.0,0.0,0.0,0.0,0.0,0.0,0.0,0.0,0.0,0.0,0.0,0.0,0.0,0.0,0.0,0.0,0.0,0.0,0.0,0.0,0.0,8.652,10.0392,10.9571,11.6454,12.083,11.3124,10.1437,0.0,0.0,0.0,0.0,0.0,0.0,0.0,0.0,0.0,0.0,0.0,0.0,0.0,0.0,0.0,0.0,0.0,0.0,0.0,0.0,0.0,0.0,0.0,0.0,0.0,0.0,0.0,0.0,0.0,0.0,0.0,0.0,0.0,0.0,0.0,0.0,0.0,0.0,0.0,0.0,0.0,0.0,0.0,0.0,0.0,0.0,0.0,0.0,0.0,0.0,0.0,0.0,0.0,0.0,0.0,0.0,0.0,0.0,0.0,0.0,0.0,0.0,0.0,0.0,0.0,0.0,0.0,0.0,0.0,0.0,0.0,0.0,0.0,0.0,0.0,0.0,0.0,0.0,0.0,0.0,0.0,0.0,0.0,0.0,0.0,0.0,0.0,0.0,0.0,0.0,0.0,0.0,0.0,0.0,0.0,0.0,0.0,0.0,0.0,0.0,0.0,0.0,0.0,0.0,0.0,0.0,0.0,0.0,8.236,9.5728,10.5596,11.0962,11.1866,9.9729,8.9656,0.0,0.0,0.0,0.0,0.0,0.0,0.0,0.0,0.0,0.0,0.0,0.0,0.0,0.0,0.0,0.0,0.0,0.0,0.0,0.0,0.0,0.0,0.0,0.0,0.0,0.0,0.0,0.0,0.0,0.0,0.0,0.0,0.0,0.0,0.0,0.0,0.0,0.0,0.0,0.0,0.0,0.0,0.0,0.0,0.0,0.0,0.0,0.0,0.0,0.0,0.0,0.0,0.0,0.0,0.0,0.0,0.0,0.0,0.0,0.0,0.0,0.0,0.0,0.0,0.0,0.0,0.0,0.0,0.0,0.0,0.0,0.0,0.0,0.0,0.0,0.0,0.0,0.0,0.0,0.0,0.0,0.0,0.0,0.0,0.0,0.0,0.0,0.0,0.0,0.0,0.0,0.0,0.0,0.0,0.0,0.0,0.0,0.0,0.0,0.0,0.0,0.0,0.0,0.0,0.0,0.0,0.0,0.0,0.0,8.9786,9.9104,10.268,9.9802,8.7247,7.8768,0.0,0.0,0.0,0.0,0.0,0.0,0.0,0.0,0.0,0.0,0.0,0.0,0.0,0.0,0.0,0.0,0.0,0.0,0.0,0.0,0.0,0.0,0.0,0.0,0.0,0.0,0.0,0.0,0.0,0.0,0.0,0.0,0.0,0.0,0.0,0.0,0.0,0.0,0.0,0.0,0.0,0.0,0.0,0.0,0.0,0.0,0.0,0.0,0.0,0.0,0.0,0.0,0.0,0.0,0.0,0.0,0.0,0.0,0.0,0.0,0.0,0.0,0.0,0.0,0.0,0.0,0.0,0.0,0.0,0.0,0.0,0.0,0.0,0.0,0.0,0.0,0.0,0.0,0.0,0.0,0.0,0.0,0.0,0.0,0.0,0.0,0.0,0.0,0.0,0.0,0.0,0.0,0.0,0.0,0.0,0.0,0.0,0.0,0.0,0.0,0.0,0.0,0.0,0.0,0.0,0.0,0.0,0.0,0.0,8.1718,8.8546,9.0277,8.6368,7.9773,7.0923,0.0,0.0,0.0,0.0,0.0,0.0,0.0,0.0,0.0,0.0,0.0,0.0,0.0,0.0,0.0,0.0,0.0,0.0,0.0,0.0,0.0,0.0,0.0,0.0,0.0,0.0,0.0,0.0,0.0,0.0,0.0,0.0,0.0,0.0,0.0,0.0,0.0,0.0,0.0,0.0,0.0,0.0,0.0,0.0,0.0,0.0,0.0,0.0,0.0,0.0,0.0,0.0,0.0,0.0,0.0,0.0,0.0,0.0,0.0,0.0,0.0,0.0,0.0,0.0,0.0,0.0,0.0,0.0,0.0,0.0,0.0,0.0,0.0,0.0,0.0,0.0,0.0,0.0,0.0,0.0,0.0,0.0,0.0,0.0,0.0,0.0,0.0,0.0,0.0,0.0,0.0,0.0,0.0,0.0,0.0,0.0,0.0,0.0,0.0,0.0,0.0,0.0,0.0,0.0,0.0,0.0,0.0,0.0,0.0,6.622,7.2118,7.7879,8.3101,7.0426,6.4603,6.6531,0.0,0.0,0.0,0.0,0.0,0.0,0.0,0.0,0.0,0.0,0.0,0.0,0.0,0.0,0.0,0.0,0.0,0.0,0.0,0.0,0.0,0.0,0.0,0.0,0.0,0.0,0.0,0.0,0.0,0.0,0.0,0.0,0.0,0.0,0.0,0.0,0.0,0.0,0.0,0.0,0.0,0.0,0.0,0.0,0.0,0.0,0.0,0.0,0.0,0.0,0.0,0.0,0.0,0.0,0.0,0.0,0.0,0.0,0.0,0.0,0.0,0.0,0.0,0.0,0.0,0.0,0.0,0.0,0.0,0.0,0.0,0.0,0.0,0.0,0.0,0.0,0.0,0.0,0.0,0.0,0.0,0.0,0.0,0.0,0.0,0.0,0.0,0.0,0.0,0.0,0.0,0.0,0.0,0.0,0.0,0.0,0.0,0.0,0.0,0.0,0.0,0.0,0.0,0.0,0.0,0.0,0.0,0.0,5.9577,6.56,7.1688,7.7077,6.5625,6.0399,0.0,0.0,0.0,0.0,0.0,0.0,0.0,0.0,0.0,0.0,0.0,0.0,0.0,0.0,0.0,0.0,0.0,0.0,0.0,0.0,0.0,0.0,0.0,0.0,0.0,0.0,0.0,0.0,0.0,0.0,0.0,0.0,0.0,0.0,0.0,0.0,0.0,0.0,0.0,0.0,0.0,0.0,0.0,0.0,0.0,0.0,0.0,0.0,0.0,0.0,0.0,0.0,0.0,0.0,0.0,0.0,0.0,0.0,0.0,0.0,0.0,0.0,0.0,0.0,0.0,0.0,0.0,0.0,0.0,0.0,0.0,0.0,0.0,0.0,0.0,0.0,0.0,0.0,0.0,0.0,0.0,0.0,0.0,0.0,0.0,0.0,0.0,0.0,0.0,0.0,0.0,0.0,0.0,0.0,0.0,0.0,0.0,0.0,0.0,0.0,0.0,0.0,0.0,0.0,0.0,0.0,0.0,0.0,4.7812,6.4598,7.1207,7.2487,6.8496,6.6342,5.8396,0.0,0.0,0.0,0.0,0.0,0.0,0.0,0.0,0.0,0.0,0.0,0.0,0.0,0.0,0.0,0.0,0.0,0.0,0.0,0.0,0.0,0.0,0.0,0.0,0.0,0.0,0.0,0.0,0.0,0.0,0.0,0.0,0.0,0.0,0.0,0.0,0.0,0.0,0.0,0.0,0.0,0.0,0.0,0.0,0.0,0.0,0.0,0.0,0.0,0.0,0.0,0.0,0.0,0.0,0.0,0.0,0.0,0.0,0.0,0.0,0.0,0.0,0.0,0.0,0.0,0.0,0.0,0.0,0.0,0.0,0.0,0.0,0.0,0.0,0.0,0.0,0.0,0.0,0.0,0.0,0.0,0.0,0.0,0.0,0.0,0.0,0.0,0.0,0.0,0.0,0.0,0.0,0.0,0.0,0.0,0.0,0.0,0.0,0.0,0.0,0.0,0.0,0.0,0.0,0.0,0.0,0.0,0.0,0.0,4.8381,0.0,6.6546,7.4283,6.4999,5.9143,0.0,0.0,0.0,0.0,0.0,0.0,0.0,0.0,0.0,0.0,0.0,0.0,0.0,0.0,0.0,0.0,0.0,0.0,0.0,0.0,0.0,0.0,0.0,0.0,0.0,0.0,0.0,0.0,0.0,0.0,0.0,0.0,0.0,0.0,0.0,0.0,0.0,0.0,0.0,0.0,0.0,0.0,0.0,0.0,0.0,0.0,0.0,0.0,0.0,0.0,0.0,0.0,0.0,0.0,0.0,0.0,0.0,0.0,0.0,0.0,0.0,0.0,0.0,0.0,0.0,0.0,0.0,0.0,0.0,0.0,0.0,0.0,0.0,0.0,0.0,0.0,0.0,0.0,0.0,0.0,0.0,0.0,0.0,0.0,0.0,0.0,0.0,0.0,0.0,0.0,0.0,0.0,0.0,0.0,0.0,0.0,0.0,0.0,0.0,0.0,0.0,0.0,0.0,0.0,0.0,0.0,0.0,0.0,0.0,4.7287,5.2744,6.1686,7.3617,6.5211,6.0544,0.0,0.0,0.0,0.0,0.0,0.0,0.0,0.0,0.0,0.0,0.0,0.0,0.0,0.0,0.0,0.0,0.0,0.0,0.0,0.0,0.0,0.0,0.0,0.0,0.0,0.0,0.0,0.0,0.0,0.0,0.0,0.0,0.0,0.0,0.0,0.0,0.0,0.0,0.0,0.0,0.0,0.0,0.0,0.0,0.0,0.0,0.0,0.0,0.0,0.0,0.0,0.0,0.0,0.0,0.0,0.0,0.0,0.0,0.0,0.0,0.0,0.0,0.0,0.0,0.0,0.0,0.0,0.0,0.0,0.0,0.0,0.0,0.0,0.0,0.0,0.0,0.0,0.0,0.0,0.0,0.0,0.0,0.0,0.0,0.0,0.0,0.0,0.0,0.0,0.0,0.0,0.0,0.0,0.0,0.0,0.0,0.0,0.0,0.0,0.0,0.0,0.0,0.0,0.0,0.0,0.0,0.0,0.0,0.0,5.8297,5.5817,5.819,6.6445,6.6243,6.2047,0.0,0.0,0.0,0.0,0.0,0.0,0.0,0.0,0.0,0.0,0.0,0.0,0.0,0.0,0.0,0.0,0.0,0.0,0.0,0.0,0.0,0.0,0.0,0.0,0.0,0.0,0.0,0.0,0.0,0.0,0.0,0.0,0.0,0.0,0.0,0.0,0.0,0.0,0.0,0.0,0.0,0.0,0.0,0.0,0.0,0.0,0.0,0.0,0.0,0.0,0.0,0.0,0.0,0.0,0.0,0.0,0.0,0.0,0.0,0.0,0.0,0.0,0.0,0.0,0.0,0.0,0.0,0.0,0.0,0.0,0.0,0.0,0.0,0.0,0.0,0.0,0.0,0.0,0.0,0.0,0.0,0.0,0.0,0.0,0.0,0.0,0.0,0.0,0.0,0.0,0.0,0.0,0.0,0.0,0.0,0.0,0.0,0.0,0.0,0.0,0.0,0.0,0.0,0.0,0.0,0.0,0.0,0.0,0.0,0.0,4.9355,5.4126,5.6876,5.6882,5.5681,5.3402,0.0,0.0,0.0,0.0,0.0,0.0,0.0,0.0,0.0,0.0,0.0,0.0,0.0,0.0,0.0,0.0,0.0,0.0,0.0,0.0,0.0,0.0,0.0,0.0,0.0,0.0,0.0,0.0,0.0,0.0,0.0,0.0,0.0,0.0,0.0,0.0,0.0,0.0,0.0,0.0,0.0,0.0,0.0,0.0,0.0,0.0,0.0,0.0,0.0,0.0,0.0,0.0,0.0,0.0,0.0,0.0,0.0,0.0,0.0,0.0,0.0,0.0,0.0,0.0,0.0,0.0,0.0,0.0,0.0,0.0,0.0,0.0,0.0,0.0,0.0,0.0,0.0,0.0,0.0,0.0,0.0,0.0,0.0,0.0,0.0,0.0,0.0,0.0,0.0,0.0,0.0,0.0,0.0,0.0,0.0,0.0,0.0,0.0,0.0,0.0,0.0,0.0,0.0,0.0,0.0,0.0,0.0,0.0,0.0,0.0,4.9299,5.2847,5.3251,5.3307,0.0,0.0,0.0,0.0,0.0,0.0,0.0,0.0,0.0,0.0,0.0,0.0,0.0,0.0,0.0,0.0,0.0,0.0,0.0,0.0,0.0,0.0,0.0,0.0,0.0,0.0,0.0,0.0,0.0,0.0,0.0,0.0,0.0,0.0,0.0,0.0,0.0,0.0,0.0,0.0,0.0,0.0,0.0,0.0,0.0,0.0,0.0,0.0,0.0,0.0,0.0,0.0,0.0,0.0,0.0,0.0,0.0,0.0,0.0,0.0,0.0,0.0,0.0,0.0,0.0,0.0,0.0,0.0,0.0,0.0,0.0,0.0,0.0,0.0,0.0,0.0,0.0,0.0,0.0,0.0,0.0,0.0,0.0,0.0,0.0,0.0,0.0,0.0,0.0,0.0,0.0,0.0,0.0,0.0,0.0,0.0,0.0,0.0,0.0,0.0,0.0,0.0,0.0,0.0,0.0,0.0,0.0,0.0,0.0,0.0,0.0,4.4048,5.0906,5.1849,0.0,5.1596,0.0,0.0,0.0,0.0,0.0,0.0,0.0,0.0,0.0,0.0,0.0,0.0,0.0,0.0,0.0,0.0,0.0,0.0,0.0,0.0,0.0,0.0,0.0,0.0,0.0,0.0,0.0,0.0,0.0,0.0,0.0,0.0,0.0,0.0,0.0,0.0,0.0,0.0,0.0,0.0,0.0,0.0,0.0,0.0,0.0,0.0,0.0,0.0,0.0,0.0,0.0,0.0,0.0,0.0,0.0,0.0,0.0,0.0,0.0,0.0,0.0,0.0,0.0,0.0,0.0,0.0,0.0,0.0,0.0,0.0,0.0,0.0,0.0,0.0,0.0,0.0,0.0,0.0,0.0,0.0,0.0,0.0,0.0,0.0,0.0,0.0,0.0,0.0,0.0,0.0,0.0,0.0,0.0,0.0,0.0,0.0,0.0,0.0,0.0,0.0,0.0,0.0,0.0,0.0,0.0,0.0,0.0,0.0,0.0,0.0,0.0,0.0,4.0738,4.0653,3.914,0.0,0.0,0.0,0.0,0.0,0.0,0.0,0.0,0.0,0.0,0.0,0.0,0.0,0.0,0.0,0.0,0.0,0.0,0.0,0.0,0.0,0.0,0.0,0.0,0.0,0.0,0.0,0.0,0.0,0.0,0.0,0.0,0.0,0.0,0.0,0.0,0.0,0.0,0.0,0.0,0.0,0.0,0.0,0.0,0.0,0.0,0.0,0.0,0.0,0.0,0.0,0.0,0.0,0.0,0.0,0.0,0.0,0.0,0.0,0.0,0.0,0.0,0.0,0.0,0.0,0.0,0.0,0.0,0.0,0.0,0.0,0.0,0.0,0.0,0.0,0.0,0.0,0.0,0.0,0.0,0.0,0.0,0.0,0.0,0.0,0.0,0.0,0.0,0.0,0.0,0.0,0.0,0.0,0.0,0.0,0.0,0.0,0.0,0.0,0.0,0.0,0.0,0.0,0.0,0.0,0.0,0.0,0.0,0.0,0.0,3.365,3.4537,3.5014,3.4921,3.4315,0.0,0.0,0.0,0.0,0.0,0.0,0.0,0.0,0.0,0.0,0.0,0.0,0.0,0.0,0.0,0.0,0.0,0.0,0.0,0.0,0.0,0.0,0.0,0.0,0.0,0.0,0.0,0.0,0.0,0.0,0.0,0.0,0.0,0.0,0.0,0.0,0.0,0.0,0.0,0.0,0.0,0.0,0.0,0.0,0.0,0.0,0.0,0.0,0.0,0.0,0.0,0.0,0.0,0.0,0.0,0.0,0.0,0.0,0.0,0.0,0.0,0.0,0.0,0.0,0.0,0.0,0.0,0.0,0.0,0.0,0.0,0.0,0.0,0.0,0.0,0.0,0.0,0.0,0.0,0.0,0.0,0.0,0.0,0.0,0.0,0.0,0.0,0.0,0.0,0.0,0.0,0.0,0.0,0.0,0.0,0.0,0.0,0.0,0.0,0.0,0.0,0.0,0.0,0.0,0.0,0.0,0.0,0.0,0.0,0.0,3.0549,0.0,0.0,0.0,3.2218,0.0,0.0,0.0,0.0,0.0,0.0,0.0,0.0,0.0,0.0,0.0,0.0,0.0,0.0,0.0,0.0,0.0,0.0,0.0,0.0,0.0,0.0,0.0,0.0,0.0,0.0,0.0,0.0,0.0,0.0,0.0,0.0,0.0,0.0,0.0,0.0,0.0,0.0,0.0,0.0,0.0,0.0,0.0,0.0,0.0,0.0,0.0,0.0,0.0,0.0,0.0,0.0,0.0,0.0,0.0,0.0,0.0,0.0,0.0,0.0,0.0,0.0,0.0,0.0,0.0,0.0,0.0,0.0,0.0,0.0,0.0,0.0,0.0,0.0,0.0,0.0,0.0,0.0,0.0,0.0,0.0,0.0,0.0,0.0,0.0,0.0,0.0,0.0,0.0,0.0,0.0,0.0,0.0,0.0,0.0,0.0,0.0,0.0,0.0,0.0,0.0,0.0,0.0,0.0,0.0,0.0,0.0,0.0,0.0,0.0,0.0,0.0,0.0,0.0,0.0,0.0,0.0,0.0,0.0,0.0,0.0,0.0,0.0,0.0,0.0,0.0,0.0,0.0,0.0,0.0,0.0,0.0,0.0,0.0,0.0,0.0,0.0,0.0,0.0,0.0,0.0,0.0,0.0,0.0,0.0,0.0,0.0,0.0,0.0,0.0,0.0,0.0,0.0,0.0,0.0,0.0,0.0,0.0,0.0,0.0,0.0,0.0,0.0,0.0,0.0,0.0,0.0,0.0,0.0,0.0,0.0,0.0,0.0,0.0,0.0,0.0,0.0,0.0,0.0,0.0,0.0,0.0,0.0,0.0,0.0,0.0,0.0,0.0,0.0,0.0,0.0,0.0,0.0,0.0,0.0,0.0,0.0,0.0,0.0,0.0,0.0,0.0,0.0,0.0,0.0,0.0,0.0,0.0,0.0,0.0,0.0,0.0,0.0,0.0,0.0,0.0,0.0,0.0,0.0,0.0,0.0,0.0,0.0,0.0,0.0,0.0,0.0,0.0,0.0,0.0,0.0,0.0,0.0,0.0,0.0,0.0,0.0,0.0,0.0,0.0,0.0,0.0,0.0,0.0,0.0,0.0,0.0,0.0,0.0,0.0,0.0,0.0,0.0,0.0,0.0,0.0,0.0,0.0,0.0,0.0,0.0,0.0,0.0,0.0,0.0,0.0,0.0,0.0,0.0,0.0,0.0,0.0,0.0,0.0,0.0,0.0,0.0,0.0,0.0,0.0,0.0,0.0,0.0,0.0,0.0,0.0,0.0,0.0,0.0,0.0,0.0,0.0,0.0,0.0,0.0,0.0,0.0,0.0,0.0,0.0,0.0,0.0,0.0,0.0,0.0,0.0,0.0,0.0,0.0,0.0,0.0,0.0,0.0,0.0,0.0,0.0,0.0,0.0,0.0,0.0,0.0,0.0,0.0,0.0,0.0,0.0,0.0,0.0,0.0,0.0,0.0,0.0,0.0,0.0,0.0,0.0,0.0,0.0,0.0,0.0,0.0,0.0,0.0,0.0,0.0,0.0,0.0,0.0,0.0,0.0,0.0,0.0,0.0,0.0,0.0,0.0,0.0,0.0,0.0,0.0,0.0,0.0,0.0,0.0,0.0,0.0,0.0,0.0,0.0,0.0,0.0,0.0,0.0,0.0,0.0,0.0,0.0,0.0,0.0,0.0,0.0,0.0,0.0,0.0,0.0,0.0,0.0,0.0,0.0,0.0,0.0,0.0,0.0,0.0,0.0,0.0,0.0,0.0,0.0,0.0,0.0,0.0,0.0,0.0,0.0,0.0,0.0,0.0,0.0,0.0,0.0,0.0,0.0,0.0,0.0,0.0,0.0,0.0,0.0,0.0,0.0,0.0,0.0,0.0,0.0,0.0,0.0,0.0,0.0,0.0,0.0,0.0,0.0,0.0,0.0,0.0,0.0,0.0,0.0,0.0,0.0,0.0,0.0,0.0,0.0,0.0,0.0,0.0,0.0,0.0,0.0,0.0,0.0,0.0,0.0,0.0,0.0,0.0,0.0,0.0,0.0,0.0,0.0,0.0,0.0,0.0,0.0,0.0,0.0,0.0,0.0,0.0,0.0,0.0,0.0,0.0,0.0,0.0,0.0,0.0,0.0,0.0,0.0,0.0,0.0,0.0,0.0,0.0,0.0,0.0,0.0,0.0,0.0,0.0,0.0,0.0,0.0,0.0,0.0,0.0,0.0,0.0,0.0,0.0,0.0,0.0,0.0,0.0,0.0,0.0,0.0,0.0,0.0,0.0,0.0,0.0,0.0,0.0,0.0,0.0,0.0,0.0,0.0,0.0,0.0,0.0,0.0,0.0,0.0,0.0,0.0,0.0,0.0,0.0,0.0,0.0,0.0,0.0,0.0,0.0,0.0,0.0,0.0,0.0,0.0,0.0,0.0,0.0,0.0,0.0,0.0,0.0,0.0,0.0,0.0,0.0,0.0,0.0,0.0,0.0,0.0,0.0,0.0,0.0,0.0,0.0,0.0,0.0,0.0,0.0,0.0,0.0,0.0,0.0,0.0,0.0,0.0,0.0,0.0,0.0,0.0,0.0,0.0,0.0,0.0,0.0,0.0,0.0,0.0,0.0,0.0,0.0,0.0,0.0,0.0,0.0,0.0,0.0,0.0,0.0,0.0,0.0,0.0,0.0,0.0,0.0,0.0,0.0,0.0,0.0,0.0,0.0,0.0,0.0,0.0,0.0,0.0,0.0,0.0,0.0,0.0,0.0,0.0,0.0,0.0,0.0,0.0,0.0,0.0,0.0,0.0,0.0,0.0,0.0,0.0,0.0,0.0,0.0,0.0,0.0,0.0,0.0,0.0,0.0,0.0,0.0,0.0,0.0,0.0,0.0,0.0,0.0,0.0,0.0,0.0,0.0,0.0,0.0,0.0,0.0,0.0,0.0,0.0,0.0,0.0,0.0,0.0,0.0,0.0,0.0,0.0,0.0,0.0,0.0,0.0,0.0,0.0,0.0,0.0,0.0,0.0,0.0,0.0,0.0,0.0,0.0,0.0,0.0,0.0,0.0,0.0,0.0,0.0,0.0,0.0,0.0,0.0,0.0,0.0,0.0,0.0,0.0,0.0,0.0,0.0,0.0,0.0,0.0,0.0,0.0,0.0,0.0,0.0,0.0,0.0,0.0,0.0,0.0,0.0,0.0,0.0,0.0,0.0,0.0,0.0,0.0,0.0,0.0,0.0,0.0,0.0,0.0,0.0,0.0,0.0,0.0,0.0,0.0,0.0,0.0,0.0,0.0,0.0,0.0,0.0,0.0,0.0,0.0,0.0,0.0,0.0,0.0,0.0,0.0,0.0,0.0,0.0,0.0,0.0,0.0,0.0,0.0,0.0,0.0,0.0,0.0,0.0,0.0,0.0,0.0,0.0,0.0,0.0,0.0,0.0,0.0,0.0,0.0,0.0,0.0,0.0,0.0,0.0,0.0,0.0,0.0,0.0,0.0,0.0,0.0,0.0,0.0,0.0,0.0,0.0,0.0,0.0,0.0,0.0,0.0,0.0,0.0,0.0,0.0,0.0,0.0,0.0,0.0,0.0,0.0,0.0,0.0,0.0,0.0,0.0,0.0,0.0,0.0,0.0,0.0,0.0,0.0,0.0,0.0,0.0,0.0,0.0,0.0,0.0,0.0,0.0,0.0,0.0,0.0,0.0,0.0,0.0,0.0,0.0,0.0,0.0,0.0,0.0,0.0,0.0,0.0,0.0,0.0,0.0,0.0,0.0,0.0,0.0,0.0,0.0,0.0,0.0,0.0,0.0,0.0,0.0,0.0,0.0,0.0,0.0,0.0,0.0,0.0,0.0,0.0,0.0,0.0,0.0,0.0,0.0,0.0,0.0,0.0,0.0,0.0,0.0,0.0,0.0,0.0,0.0,0.0,0.0,0.0,0.0,0.0,0.0,0.0,0.0,0.0,0.0,0.0,0.0,0.0,0.0,0.0,0.0,0.0,0.0,0.0,0.0,0.0,0.0,0.0,0.0,0.0,0.0,0.0,0.0,0.0,0.0,0.0,0.0,0.0,0.0,0.0,0.0,0.0,0.0,0.0,0.0,0.0,0.0,0.0,0.0,0.0,0.0,0.0,0.0,0.0,0.0,0.0,0.0,0.0,0.0,0.0,0.0,0.0,0.0,0.0,0.0,0.0,0.0,0.0,0.0,0.0,0.0,0.0,0.0,0.0,0.0,0.0,0.0,0.0,0.0,0.0,0.0,0.0,0.0,0.0,0.0,0.0,0.0,0.0,0.0,0.0,0.0,0.0,0.0,0.0,0.0,0.0,0.0,0.0,0.0,0.0,0.0,0.0,0.0,0.0,0.0,0.0,0.0,0.0]}],[{"header":{"parameterUnit":"kt","parameterCategory":2,"dx":1,"dy":1,"la1":29.587661999999998,"la2":31.0,"lo1":-88.76705300000003,"lo2":-86.6583820000003,"nx":115,"ny":88,"refTime":"2022-10-26T00:00:00:Z","depth":0,"parameterNumber":2,"parameterNumberName":"V-component_of_WINDS"},"data":[-5.5931,-6.0856,-6.4488,-6.685,-6.8165,-6.9569,-7.1757,-7.4087,-7.5341,-7.6935,-7.8787,-8.1117,-8.3118,-8.5221,-8.6013,-8.8184,-9.1242,-9.3915,-9.5824,-9.7899,-10.0457,-10.2107,-10.4321,-10.7487,-11.1031,-11.4305,-11.7449,-12.0746,-12.3364,-12.5734,-12.8769,-13.209,-13.3351,-13.6306,-14.0077,-14.2678,-14.5338,-14.7961,-15.0702,-15.3135,-15.4192,-15.6619,-15.9331,-16.1499,-16.3021,-16.3849,-16.4826,-16.6267,-16.7139,-16.8761,-17.1555,-17.2171,-17.1228,-16.9847,-17.0762,-17.1887,-17.2007,-17.3682,-17.5488,-17.6451,-17.5812,-17.4762,-17.447,-17.2724,-17.0129,-16.7758,-16.6726,-16.4537,-16.0355,-15.8007,-15.697,-15.6137,-15.4795,-15.3735,-15.3053,-15.2943,-15.2471,-15.2016,-15.1275,-15.0382,-14.9927,-15.012,-15.0139,-15.0821,-15.1407,-15.2622,-15.3795,-15.4477,-15.5728,-15.7939,-16.0216,-16.2067,-16.3765,-16.4995,-16.5756,-16.5331,-16.5691,-16.6515,-16.7326,-16.8437,-16.8752,-16.7874,-16.5945,-16.3906,-16.1872,-16.0436,-15.8956,-15.7856,-15.5165,-15.2966,-15.2162,-15.0099,-14.5227,-14.1317,-13.9315,-5.591,-5.8843,-6.2353,-6.5058,-6.6976,-6.7643,-6.9559,-7.2626,-7.3782,-7.5973,-7.8831,-7.9924,-8.1334,-8.3363,-8.5358,-8.7659,-9.0326,-9.3571,-9.5763,-9.794,-10.0596,-10.269,-10.4973,-10.7535,-10.9696,-11.274,-11.6352,-11.9542,-12.3199,-12.582,-12.8515,-13.1782,-13.4531,-13.7157,-14.0725,-14.3461,-14.5652,-14.8387,-15.1126,-15.3368,-15.5708,-15.8129,-16.0994,-16.2851,-16.4299,-16.5786,-16.8258,-16.9627,-16.9503,-17.098,-17.2142,-17.257,-17.1801,-17.0266,-17.1407,-17.2828,-17.3171,-17.4616,-17.6835,-17.7715,-17.6715,-17.5996,-17.6124,-17.4813,-17.2103,-17.0637,-17.0295,-16.7303,-16.2146,-15.9286,-15.8558,-15.7574,-15.5985,-15.4725,-15.432,-15.3941,-15.3135,-15.2392,-15.1296,-15.0138,-15.0254,-15.0765,-15.118,-15.1818,-15.2771,-15.3911,-15.4813,-15.5412,-15.6289,-15.8329,-15.9847,-16.1316,-16.2489,-16.2934,-16.3576,-16.3848,-16.4379,-16.5202,-16.6188,-16.7816,-16.8828,-16.823,-16.6626,-16.3565,-16.16,-16.0535,-15.9181,-15.7446,-15.4961,-15.2323,-15.1441,-14.9966,-14.5233,-14.1908,-14.0276,-5.603,-5.8923,-6.2233,-6.4192,-6.5507,-6.7366,-6.9131,-7.1351,-7.3473,-7.5594,-7.7276,-7.823,-7.9855,-8.2709,-8.5117,-8.7642,-9.0742,-9.3842,-9.6236,-9.8497,-10.1088,-10.344,-10.5731,-10.7958,-10.9665,-11.1702,-11.5465,-11.9299,-12.3169,-12.5848,-12.8769,-13.1782,-13.4107,-13.6866,-14.0443,-14.2866,-14.5477,-14.8571,-15.1479,-15.4192,-15.6784,-15.8751,-16.1348,-16.3085,-16.4379,-16.5896,-16.8002,-16.9627,-16.9937,-17.1019,-17.2186,-17.2702,-17.1716,-17.0715,-17.1745,-17.3534,-17.4748,-17.5368,-17.7916,-17.8945,-17.8535,-17.7805,-17.7693,-17.6724,-17.4032,-17.5668,-17.5311,-16.9479,-16.4205,-16.092,-16.0199,-15.9251,-15.7739,-15.7016,-15.6638,-15.6411,-15.5928,-15.4801,-15.3362,-15.2273,-15.197,-15.2402,-15.2856,-15.3514,-15.3832,-15.4954,-15.6087,-15.6753,-15.7104,-15.8338,-15.9316,-16.0329,-16.0819,-16.1299,-16.1787,-16.2394,-16.2925,-16.3912,-16.4822,-16.6237,-16.7497,-16.7722,-16.7232,-16.4169,-16.1856,-16.061,-15.9141,-15.7543,-15.5132,-15.1964,-15.0709,-14.9747,-14.5972,-14.22,-14.0703,-5.6257,-5.9569,-6.2228,-6.3903,-6.4887,-6.7345,-6.8846,-7.0266,-7.2975,-7.4534,-7.5694,-7.6992,-7.9249,-8.2507,-8.5101,-8.7876,-9.1118,-9.4171,-9.7157,-9.9654,-10.1728,-10.3955,-10.6325,-10.9124,-11.0894,-11.2703,-11.5413,-11.8829,-12.25,-12.6182,-12.9638,-13.224,-13.4165,-13.679,-14.043,-14.2449,-14.5417,-14.8571,-15.1363,-15.3956,-15.6489,-15.8751,-16.0864,-16.2935,-16.4019,-16.558,-16.7877,-16.9226,-16.9749,-17.0661,-17.1922,-17.1842,-17.1216,-17.1014,-17.2403,-17.4359,-17.5385,-17.6807,-17.8747,-17.9884,-17.9912,-17.9504,-17.9139,-17.7815,-17.7993,-18.023,-17.8425,-17.2066,-16.705,-16.4114,-16.1901,-16.0845,-15.9903,-15.964,-15.9451,-15.9524,-15.9595,-15.7999,-15.6277,-15.5323,-15.4443,-15.4547,-15.4903,-15.518,-15.5174,-15.5939,-15.7132,-15.7711,-15.808,-15.7798,-15.8698,-15.8954,-15.9376,-15.9789,-16.0205,-16.08,-16.1256,-16.2166,-16.338,-16.4582,-16.5796,-16.5511,-16.4874,-16.3075,-16.1554,-15.9829,-15.8184,-15.6806,-15.4479,-15.1599,-14.982,-14.8482,-14.5298,-14.2474,-14.0958,-5.6521,-6.0024,-6.1418,-6.3594,-6.5946,-6.6332,-6.7936,-7.0381,-7.1868,-7.3185,-7.5007,-7.7148,-7.9586,-8.2334,-8.5405,-8.7903,-9.0766,-9.4625,-9.7999,-10.0745,-10.286,-10.5327,-10.7975,-11.0591,-11.2245,-11.4106,-11.6309,-11.9026,-12.2021,-12.6319,-13.0628,-13.2733,-13.4522,-13.7312,-14.0576,-14.2549,-14.5586,-14.8746,-15.1373,-15.3553,-15.5847,-15.7858,-16.0228,-16.2996,-16.4314,-16.5514,-16.8479,-16.9427,-16.8936,-17.0301,-17.1243,-17.1231,-17.0905,-17.0919,-17.3047,-17.4763,-17.5731,-17.7453,-17.8983,-18.0376,-18.0729,-18.1058,-18.1242,-17.9815,-17.9283,-18.0638,-18.0379,-17.5317,-17.0601,-16.7354,-16.5921,-16.4914,-16.3679,-16.3046,-16.2757,-16.2615,-16.2243,-16.0886,-15.892,-15.6908,-15.6109,-15.602,-15.6458,-15.6795,-15.6871,-15.7304,-15.8042,-15.8394,-15.8208,-15.7385,-15.7689,-15.7777,-15.8231,-15.8693,-15.9273,-16.0064,-16.0205,-16.0724,-16.2014,-16.3229,-16.4126,-16.3519,-16.2471,-16.1282,-16.0,-15.8557,-15.6912,-15.4643,-15.2472,-15.0414,-14.8999,-14.7358,-14.5335,-14.2779,-14.087,-5.8837,-6.1428,-6.1892,-6.3026,-6.4972,-6.5809,-6.7858,-7.0119,-7.1123,-7.2961,-7.5044,-7.6662,-7.9051,-8.2047,-8.5211,-8.815,-9.0514,-9.4727,-9.8819,-10.1607,-10.4171,-10.7057,-10.9664,-11.2059,-11.3862,-11.5576,-11.7328,-11.9593,-12.348,-12.8031,-13.1988,-13.4528,-13.7071,-13.9309,-14.1437,-14.3469,-14.6524,-14.9326,-15.1543,-15.3514,-15.5633,-15.7878,-16.01,-16.2438,-16.4164,-16.6341,-16.8957,-16.9955,-17.0198,-17.1168,-17.1667,-17.1409,-17.0884,-17.1564,-17.3552,-17.5526,-17.6363,-17.7668,-17.9071,-18.0409,-18.1122,-18.1339,-18.1517,-18.1387,-18.1449,-18.1444,-18.066,-17.9106,-17.4718,-17.1108,-17.0245,-16.9228,-16.7904,-16.6526,-16.6147,-16.5788,-16.4704,-16.3586,-16.1408,-15.8885,-15.7902,-15.7747,-15.7804,-15.8255,-15.8588,-15.8552,-15.8724,-15.8606,-15.7711,-15.6739,-15.6525,-15.7208,-15.7588,-15.77,-15.907,-16.0025,-15.9932,-16.0151,-16.1203,-16.1951,-16.2533,-16.2474,-16.2175,-16.0677,-15.8771,-15.7096,-15.5658,-15.3202,-15.091,-14.9969,-14.8548,-14.6233,-14.3827,-14.1762,-13.9966,-6.1256,-6.3851,-6.3709,-6.4478,-6.5547,-6.722,-6.8624,-7.0294,-7.0861,-7.2526,-7.4999,-7.5993,-7.855,-8.1999,-8.4635,-8.7652,-9.1094,-9.4756,-9.8851,-10.2064,-10.4864,-10.7937,-11.073,-11.3365,-11.5175,-11.6713,-11.8538,-12.0936,-12.4259,-12.8122,-13.2033,-13.5242,-13.745,-13.9667,-14.2036,-14.4554,-14.7807,-15.0566,-15.1776,-15.4047,-15.64,-15.8382,-16.0313,-16.2234,-16.3988,-16.6077,-16.8359,-16.934,-17.0491,-17.126,-17.1886,-17.2164,-17.1294,-17.2286,-17.3654,-17.5677,-17.6992,-17.7878,-17.9011,-18.0091,-18.1456,-18.242,-18.2375,-18.3194,-18.3921,-18.413,-18.3428,-18.1414,-17.8131,-17.5467,-17.4006,-17.2684,-17.1222,-16.9904,-16.8807,-16.8006,-16.655,-16.5319,-16.3662,-16.1313,-15.9824,-15.9565,-15.8787,-15.9059,-15.8941,-15.9212,-15.8991,-15.7872,-15.6921,-15.5859,-15.5647,-15.6952,-15.731,-15.6963,-15.8155,-15.9222,-15.9285,-15.957,-16.054,-16.1365,-16.1483,-16.1519,-16.1699,-16.0909,-15.9316,-15.7254,-15.4649,-15.183,-14.9194,-14.8487,-14.7068,-14.4673,-14.2315,-14.0384,-13.8505,-6.39,-6.6475,-6.7088,-6.7949,-6.9202,-7.0359,-7.0669,-7.0466,-7.1035,-7.2615,-7.4607,-7.5445,-7.7958,-8.1826,-8.4587,-8.7181,-8.9917,-9.4448,-9.793,-10.1234,-10.5196,-10.839,-11.1371,-11.4028,-11.6355,-11.8123,-11.9955,-12.2259,-12.3861,-12.7893,-13.0867,-13.367,-13.7795,-13.9958,-14.2449,-14.5306,-14.8883,-15.1183,-15.2474,-15.4292,-15.6821,-15.8924,-16.0614,-16.263,-16.4451,-16.6249,-16.7693,-16.912,-17.0123,-17.0958,-17.1679,-17.2142,-17.2598,-17.2702,-17.3821,-17.529,-17.6841,-17.7807,-17.9011,-18.0222,-18.1746,-18.3301,-18.3398,-18.3653,-18.4355,-18.5174,-18.4958,-18.3636,-18.1945,-17.9775,-17.7938,-17.6405,-17.4936,-17.355,-17.2233,-17.043,-16.8905,-16.7228,-16.5649,-16.3792,-16.2173,-16.0543,-15.9704,-15.9333,-15.9142,-15.9015,-15.8173,-15.7304,-15.6622,-15.5503,-15.537,-15.6601,-15.6482,-15.6269,-15.6801,-15.7776,-15.8013,-15.8444,-15.9501,-16.0454,-16.0053,-16.0016,-15.9668,-15.9275,-15.8964,-15.7218,-15.38,-15.0787,-14.8115,-14.582,-14.4489,-14.2321,-14.0339,-13.8547,-13.6823,-6.6596,-6.8619,-6.9756,-7.0299,-7.0699,-7.2448,-7.2727,-7.2081,-7.2971,-7.4487,-7.5825,-7.713,-7.9203,-8.1065,-8.3065,-8.5423,-8.8961,-9.2989,-9.6412,-10.0411,-10.5149,-10.8357,-11.1403,-11.4397,-11.7157,-11.9718,-12.1852,-12.4214,-12.6761,-12.8408,-13.1059,-13.4856,-13.8715,-14.0593,-14.2752,-14.5578,-14.8984,-15.174,-15.293,-15.4396,-15.7029,-15.8681,-16.0625,-16.2769,-16.4936,-16.6866,-16.7887,-16.9145,-17.0477,-17.0958,-17.1583,-17.246,-17.3217,-17.3821,-17.4482,-17.52,-17.6385,-17.7291,-17.8521,-17.9959,-18.1713,-18.3567,-18.3423,-18.4607,-18.671,-18.6405,-18.6515,-18.6232,-18.5367,-18.3885,-18.2573,-18.1203,-17.9739,-17.832,-17.6572,-17.4092,-17.2341,-17.016,-16.8431,-16.5624,-16.3587,-16.1483,-15.9897,-15.965,-15.9088,-15.8285,-15.7523,-15.7068,-15.6614,-15.552,-15.503,-15.5463,-15.542,-15.5615,-15.6118,-15.6837,-15.7324,-15.7399,-15.8431,-15.9522,-15.9194,-15.8284,-15.7483,-15.6811,-15.669,-15.5626,-15.2546,-15.0291,-14.811,-14.5789,-14.2942,-14.0488,-13.8364,-13.6549,-13.4897,-6.9269,-7.1334,-7.2008,-7.2519,-7.294,-7.417,-7.4274,-7.3769,-7.4412,-7.5475,-7.66,-7.7456,-7.8943,-8.0678,-8.2389,-8.4723,-8.8015,-9.1561,-9.4973,-9.8908,-10.4366,-10.7581,-11.1034,-11.4301,-11.7868,-12.0289,-12.2618,-12.5041,-12.8724,-12.9397,-13.2263,-13.5128,-13.7649,-14.0709,-14.3076,-14.668,-14.9237,-15.2352,-15.3729,-15.4946,-15.8092,-15.9533,-16.1275,-16.3342,-16.5651,-16.7381,-16.8672,-16.9623,-17.0897,-17.1891,-17.218,-17.2977,-17.3654,-17.4552,-17.513,-17.5677,-17.6146,-17.6992,-17.8166,-17.963,-18.1187,-18.2355,-18.3089,-18.4352,-18.6857,-18.7167,-18.7627,-18.7357,-18.6937,-18.6349,-18.5411,-18.3741,-18.2276,-18.1007,-17.8902,-17.6497,-17.4747,-17.2642,-17.0663,-16.773,-16.6071,-16.4232,-16.1565,-16.0804,-15.9076,-15.7829,-15.7325,-15.6871,-15.6897,-15.5909,-15.5348,-15.5409,-15.5328,-15.5387,-15.5728,-15.6801,-15.7375,-15.6795,-15.7248,-15.8111,-15.7613,-15.6778,-15.6056,-15.5631,-15.4878,-15.4091,-15.2314,-15.0396,-14.8193,-14.5295,-14.1675,-13.8879,-13.691,-13.5094,-13.3407,-7.1807,-7.4571,-7.4349,-7.458,-7.5342,-7.5658,-7.5708,-7.5271,-7.491,-7.5423,-7.6453,-7.651,-7.7776,-8.0143,-8.1677,-8.3812,-8.6668,-9.0692,-9.409,-9.7167,-10.2199,-10.6447,-10.996,-11.3966,-11.7513,-11.9686,-12.2668,-12.5609,-12.7956,-13.0124,-13.2226,-13.4914,-13.7334,-13.9179,-14.2218,-14.7557,-15.1681,-15.4176,-15.6112,-15.742,-15.9305,-16.0997,-16.2402,-16.4288,-16.6103,-16.8035,-16.9212,-17.0292,-17.1191,-17.2323,-17.2975,-17.3386,-17.4223,-17.5039,-17.5677,-17.6076,-17.6538,-17.7142,-17.7878,-17.9286,-18.0625,-18.1652,-18.2638,-18.373,-18.459,-18.611,-18.7684,-18.758,-18.8283,-18.7844,-18.5944,-18.4092,-18.2771,-18.1233,-17.8978,-17.6798,-17.5499,-17.3747,-17.1942,-16.9661,-16.8679,-16.7311,-16.4089,-16.1376,-15.9284,-15.7986,-15.7154,-15.6987,-15.7168,-15.6769,-15.6619,-15.6538,-15.6223,-15.5842,-15.5041,-15.6436,-15.6942,-15.5994,-15.5729,-15.5949,-15.5682,-15.5074,-15.4741,-15.451,-15.3778,-15.2716,-15.1521,-15.0423,-14.8394,-14.5967,-14.1707,-13.7847,-13.5673,-13.3931,-13.2878,-7.297,-7.4754,-7.5705,-7.6419,-7.6262,-7.4657,-7.4221,-7.4497,-7.4179,-7.5006,-7.6954,-7.7959,-7.8897,-7.9823,-8.1066,-8.251,-8.5368,-8.8545,-9.1426,-9.5418,-9.9721,-10.3828,-10.7893,-11.222,-11.7126,-12.0615,-12.3838,-12.7446,-13.0152,-13.2045,-13.412,-13.6329,-13.863,-14.0855,-14.4255,-14.762,-15.0444,-15.2545,-15.4652,-15.7,-15.9082,-16.0911,-16.2707,-16.5638,-16.6688,-16.8324,-17.0081,-17.0394,-17.1158,-17.2058,-17.2721,-17.3286,-17.4318,-17.5519,-17.6076,-17.6538,-17.7142,-17.7586,-17.8023,-17.8873,-17.9959,-18.1187,-18.2157,-18.3471,-18.5441,-18.756,-18.8036,-18.7794,-18.9327,-18.9862,-18.7276,-18.618,-18.4933,-18.2773,-18.0366,-17.8389,-17.6936,-17.4904,-17.3173,-17.1442,-16.898,-16.6934,-16.4391,-16.2773,-16.096,-15.979,-15.8769,-15.7898,-15.7815,-15.7684,-15.7546,-15.7351,-15.6765,-15.5445,-15.4347,-15.5404,-15.6132,-15.5283,-15.4939,-15.4824,-15.4135,-15.3451,-15.3064,-15.2702,-15.2021,-15.1182,-15.0552,-15.0057,-14.8411,-14.647,-14.2388,-13.8025,-13.5931,-13.4265,-13.2925,-7.4468,-7.6318,-7.672,-7.6804,-7.6142,-7.3943,-7.3501,-7.38,-7.4077,-7.5101,-7.6524,-7.8367,-7.9699,-8.0559,-8.0935,-8.2595,-8.4645,-8.7678,-9.0266,-9.3954,-9.8287,-10.2539,-10.6903,-11.1539,-11.6706,-12.0543,-12.4588,-12.8318,-13.1915,-13.3579,-13.5527,-13.8372,-14.1144,-14.3265,-14.5187,-14.7381,-14.9939,-15.177,-15.3871,-15.6182,-15.8316,-16.0238,-16.2887,-16.6205,-16.7107,-16.9043,-17.1115,-17.0511,-17.1162,-17.2103,-17.2364,-17.3253,-17.4388,-17.6076,-17.669,-17.6992,-17.7661,-17.8166,-17.8451,-17.9286,-17.9959,-18.1062,-18.1919,-18.3066,-18.478,-18.7238,-18.8016,-18.8527,-18.9331,-18.9561,-18.7791,-18.7217,-18.6702,-18.4763,-18.2685,-18.0703,-17.8643,-17.6259,-17.4375,-17.2643,-17.0053,-16.7311,-16.5632,-16.3903,-16.258,-16.1291,-15.9975,-15.8808,-15.8545,-15.824,-15.8092,-15.7931,-15.6416,-15.5023,-15.5692,-15.5503,-15.5252,-15.4918,-15.4502,-15.3944,-15.3287,-15.2457,-15.1558,-15.0706,-15.0056,-15.0186,-15.0159,-14.9719,-14.8514,-14.67,-14.3191,-13.91,-13.6739,-13.4823,-13.3186,-7.6083,-7.8392,-7.7584,-7.6484,-7.4907,-7.4129,-7.3738,-7.3812,-7.5008,-7.541,-7.6169,-7.8154,-8.0296,-8.1391,-8.2719,-8.3756,-8.4721,-8.8724,-9.0539,-9.3586,-9.7828,-10.2072,-10.6235,-11.1131,-11.6454,-12.0047,-12.4316,-12.8421,-13.2077,-13.4485,-13.7301,-13.9769,-14.2855,-14.4196,-14.5884,-14.7607,-14.9571,-15.1243,-15.3397,-15.5438,-15.738,-15.977,-16.2336,-16.5205,-16.6991,-16.9193,-17.1854,-17.0322,-17.035,-17.2878,-17.2301,-17.246,-17.357,-17.5794,-17.6355,-17.68,-17.7382,-17.8233,-17.8224,-17.8902,-18.0192,-18.0845,-18.1582,-18.292,-18.416,-18.5958,-18.6684,-18.6668,-18.8663,-18.8807,-18.7866,-18.6812,-18.6589,-18.5095,-18.3514,-18.1754,-17.9992,-17.7579,-17.5195,-17.3763,-17.1577,-16.8863,-16.6871,-16.3812,-16.2067,-16.1056,-15.9701,-15.8497,-15.8407,-15.8426,-15.8351,-15.8047,-15.6315,-15.6013,-15.6841,-15.6354,-15.5465,-15.4897,-15.4039,-15.3174,-15.2669,-15.1363,-15.0478,-14.9888,-14.9879,-14.9797,-14.9741,-14.9609,-14.8922,-14.707,-14.482,-14.1873,-13.936,-13.6566,-13.4208,-7.7823,-8.0582,-7.8871,-7.7458,-7.6357,-7.4244,-7.4054,-7.4491,-7.5639,-7.6528,-7.7685,-7.9872,-8.22,-8.3604,-8.4081,-8.4886,-8.6251,-8.803,-9.0161,-9.293,-9.6596,-10.0747,-10.4846,-10.9932,-11.4834,-11.8353,-12.3473,-12.8113,-13.2047,-13.5636,-13.913,-14.2406,-14.4337,-14.5686,-14.6969,-14.8244,-14.9314,-15.0484,-15.2136,-15.4111,-15.6408,-15.8658,-16.1527,-16.3958,-16.6125,-16.8548,-17.1004,-16.9575,-16.9712,-17.1564,-17.1072,-17.0788,-17.2,-17.4553,-17.5569,-17.481,-17.6955,-17.7932,-17.7117,-17.7656,-17.8677,-17.9687,-18.0855,-18.2068,-18.3326,-18.5459,-18.6475,-18.568,-18.7765,-18.8063,-18.7941,-18.7622,-18.6849,-18.5574,-18.4186,-18.2919,-18.1227,-17.8133,-17.5599,-17.3853,-17.1772,-16.9466,-16.6316,-16.3558,-16.1713,-16.0633,-15.9604,-15.8425,-15.8206,-15.828,-15.846,-15.8653,-15.7469,-15.7185,-15.712,-15.6443,-15.5634,-15.4849,-15.3474,-15.268,-15.2604,-15.1688,-15.0556,-15.0004,-14.9875,-14.9803,-14.9709,-14.9683,-14.9492,-14.7957,-14.6272,-14.3916,-14.1448,-13.8437,-13.5619,-8.2171,-8.322,-8.2085,-8.05,-7.8522,-7.6437,-7.5485,-7.5521,-7.6128,-7.7211,-7.901,-8.0975,-8.3572,-8.5606,-8.6733,-8.7478,-8.912,-9.0067,-9.1265,-9.3701,-9.686,-10.0105,-10.3654,-10.889,-11.3575,-11.7625,-12.2788,-12.7588,-13.1012,-13.5253,-13.964,-14.2618,-14.5184,-14.6857,-14.7583,-14.868,-14.9195,-14.9946,-15.0996,-15.2783,-15.5203,-15.7751,-16.0726,-16.464,-16.5602,-16.8466,-17.0359,-16.9483,-16.9423,-17.0761,-16.9284,-16.8834,-17.0667,-17.252,-17.4076,-17.2245,-17.5386,-17.5854,-17.4532,-17.6058,-17.7504,-17.892,-17.9428,-18.0555,-18.1789,-18.2869,-18.3305,-18.4379,-18.559,-18.6573,-18.721,-18.7396,-18.6774,-18.6024,-18.4624,-18.3276,-18.1278,-17.8408,-17.5759,-17.3713,-17.159,-16.8199,-16.4996,-16.2338,-16.0361,-15.9366,-15.8334,-15.7676,-15.7718,-15.7962,-15.8306,-15.8686,-15.8319,-15.7863,-15.7101,-15.6701,-15.605,-15.5672,-15.432,-15.3892,-15.3464,-15.2553,-15.1599,-15.1005,-15.0187,-14.9803,-14.9724,-14.9645,-14.9553,-14.8579,-14.7525,-14.5442,-14.3272,-14.0209,-13.6742,-8.775,-8.6535,-8.5924,-8.4112,-8.1074,-7.9694,-7.8015,-7.6852,-7.7845,-7.8675,-8.0714,-8.2612,-8.54,-8.7863,-9.0154,-9.184,-9.2592,-9.2924,-9.3667,-9.4955,-9.7813,-10.0435,-10.293,-10.8707,-11.2723,-11.5506,-12.2093,-12.5809,-12.8849,-13.4536,-13.8947,-14.1929,-14.4893,-14.744,-14.7642,-14.868,-14.9451,-14.9706,-14.9766,-15.1203,-15.381,-15.6091,-15.9965,-16.3481,-16.5545,-16.7272,-16.9979,-16.8767,-16.8473,-17.0155,-16.7959,-16.7391,-16.925,-17.0575,-17.15,-17.1892,-17.2261,-17.2873,-17.2679,-17.4258,-17.6184,-17.7253,-17.7639,-17.8066,-17.9263,-17.988,-18.0554,-18.2259,-18.2371,-18.329,-18.5427,-18.5835,-18.5773,-18.5166,-18.4215,-18.2869,-18.1394,-17.8594,-17.591,-17.367,-16.9986,-16.6701,-16.3283,-16.1088,-15.9078,-15.8055,-15.7244,-15.717,-15.7233,-15.7434,-15.7793,-15.7929,-15.7726,-15.7503,-15.6993,-15.7072,-15.6881,-15.6921,-15.6311,-15.5892,-15.4899,-15.3781,-15.2833,-15.144,-15.0365,-14.9732,-14.9655,-14.9632,-14.9455,-14.8892,-14.8132,-14.6593,-14.4736,-14.1612,-13.8141,-8.997,-8.9309,-8.8278,-8.633,-8.4057,-8.28,-8.1243,-8.0533,-8.1733,-8.3126,-8.471,-8.7826,-8.9893,-9.2096,-9.3874,-9.5406,-9.5248,-9.5982,-9.6267,-9.7106,-9.9341,-10.1242,-10.3711,-10.7827,-11.1608,-11.3985,-12.0253,-12.494,-12.715,-13.2299,-13.6982,-14.0567,-14.4037,-14.6329,-14.7583,-14.8362,-14.9195,-14.9706,-15.0155,-14.9867,-15.0936,-15.3694,-15.7707,-16.0522,-16.3302,-16.5488,-16.7682,-16.662,-16.721,-16.8009,-16.7626,-16.6811,-16.8253,-17.0254,-17.0493,-16.9077,-16.8919,-16.9623,-17.0565,-17.242,-17.4255,-17.5514,-17.6021,-17.6886,-17.7684,-17.7878,-17.8476,-18.0358,-18.087,-18.1946,-18.3413,-18.3656,-18.3815,-18.3686,-18.278,-18.1584,-18.0104,-17.8208,-17.5373,-17.2068,-16.8476,-16.4935,-16.1493,-15.9035,-15.78,-15.6701,-15.6563,-15.6489,-15.6631,-15.6913,-15.6796,-15.7003,-15.7138,-15.7028,-15.72,-15.7245,-15.7352,-15.7428,-15.7094,-15.6877,-15.5941,-15.4731,-15.3387,-15.2022,-15.0735,-14.9438,-14.9667,-14.966,-14.9153,-14.8692,-14.8397,-14.7168,-14.4959,-14.2203,-13.9338,-9.1946,-9.229,-9.089,-8.9427,-8.7165,-8.6267,-8.4668,-8.3229,-8.463,-8.6421,-8.8691,-9.0971,-9.361,-9.6322,-9.8662,-10.0474,-10.0813,-10.0714,-10.0049,-10.003,-10.0722,-10.1634,-10.3893,-10.6221,-10.9343,-11.2976,-11.7039,-12.1124,-12.4163,-12.9517,-13.4228,-13.8596,-14.2216,-14.4893,-14.6417,-14.7583,-14.8422,-14.9195,-14.9391,-14.9555,-14.9719,-15.1981,-15.5285,-15.8215,-16.0895,-16.3336,-16.5053,-16.5253,-16.621,-16.7612,-16.6957,-16.6878,-16.7777,-16.8667,-16.8631,-16.726,-16.7181,-16.7863,-16.9381,-17.0727,-17.2492,-17.3681,-17.3873,-17.4691,-17.5448,-17.5028,-17.451,-17.5621,-17.6705,-17.8812,-18.163,-18.121,-18.1128,-18.0925,-17.9987,-17.8745,-17.7529,-17.6084,-17.3173,-16.9867,-16.6133,-16.2534,-15.929,-15.7747,-15.6492,-15.5971,-15.5887,-15.5965,-15.6045,-15.5823,-15.5498,-15.5752,-15.6089,-15.6388,-15.7138,-15.73,-15.7525,-15.7577,-15.753,-15.7404,-15.6616,-15.4909,-15.3527,-15.1971,-15.065,-14.9073,-14.8865,-14.8347,-14.8279,-14.8087,-14.8019,-14.7511,-14.5303,-14.3015,-14.0374,-9.3182,-9.4551,-9.3408,-9.1684,-9.01,-8.9354,-8.815,-8.643,-8.7813,-8.9665,-9.2755,-9.4056,-9.7289,-10.092,-10.3486,-10.5609,-10.6517,-10.5678,-10.4764,-10.3905,-10.3321,-10.2602,-10.4188,-10.5943,-10.8042,-11.1514,-11.3906,-11.7662,-12.1846,-12.6438,-13.1362,-13.5998,-14.0036,-14.2829,-14.4767,-14.6593,-14.7642,-14.8103,-14.8878,-14.8749,-14.9169,-15.0762,-15.3521,-15.6269,-15.8503,-16.0571,-16.2849,-16.4249,-16.5502,-16.7016,-16.616,-16.6014,-16.6432,-16.6532,-16.6362,-16.5853,-16.628,-16.6867,-16.7986,-16.9264,-17.0946,-17.2065,-17.1343,-17.151,-17.2341,-17.1561,-17.0835,-17.1158,-17.2696,-17.4927,-17.992,-17.8328,-17.7561,-17.7485,-17.6763,-17.5675,-17.4185,-17.1969,-16.9042,-16.567,-16.2949,-15.9833,-15.7894,-15.6172,-15.505,-15.4443,-15.4623,-15.4917,-15.4459,-15.3896,-15.3743,-15.4177,-15.4611,-15.525,-15.6039,-15.5952,-15.6524,-15.6285,-15.6479,-15.6427,-15.6571,-15.4901,-15.2988,-15.1015,-14.9414,-14.7957,-14.7219,-14.6783,-14.6829,-14.7446,-14.7623,-14.7735,-14.5386,-14.3008,-14.0705,-9.213,-9.3623,-9.2671,-9.2333,-9.2386,-9.2211,-9.1465,-9.1657,-9.3307,-9.4927,-9.7353,-9.9871,-10.193,-10.5082,-10.7762,-10.9411,-11.0535,-11.0354,-10.9065,-10.752,-10.6211,-10.5179,-10.4738,-10.6437,-10.8933,-11.1018,-11.1216,-11.4372,-11.9432,-12.4027,-12.816,-13.2926,-13.727,-14.0008,-14.2549,-14.4673,-14.6123,-14.6915,-14.8162,-14.8435,-14.7453,-14.9849,-15.1698,-15.3724,-15.5573,-15.7075,-15.8341,-15.9641,-16.1282,-16.35,-16.2974,-16.296,-16.3479,-16.3318,-16.3147,-16.523,-16.5412,-16.5777,-16.6376,-16.7116,-16.7774,-16.8412,-16.7387,-16.7633,-16.8885,-16.8485,-16.7959,-16.8597,-16.9447,-17.1308,-17.3349,-17.3481,-17.3811,-17.3976,-17.3999,-17.3675,-17.2083,-16.7031,-16.3458,-16.0351,-15.8988,-15.7615,-15.6021,-15.4862,-15.3672,-15.2922,-15.3529,-15.3602,-15.2341,-15.1585,-15.1448,-15.1599,-15.1006,-15.1296,-15.1595,-15.1741,-15.3656,-15.4016,-15.4671,-15.5314,-15.6238,-15.3802,-15.1128,-14.9491,-14.7753,-14.6248,-14.5158,-14.5028,-14.556,-14.6697,-14.6822,-14.6314,-14.4825,-14.2925,-14.0674,-9.0686,-9.2387,-9.2529,-9.2862,-9.2593,-9.274,-9.3109,-9.3753,-9.5457,-9.8073,-10.0918,-10.3849,-10.6553,-10.9032,-11.163,-11.3765,-11.4823,-11.5203,-11.3948,-11.205,-10.942,-10.846,-10.7821,-10.9058,-10.939,-10.9657,-10.967,-11.1868,-11.6356,-12.0218,-12.4224,-12.9325,-13.2703,-13.6357,-13.9508,-14.1623,-14.3609,-14.5578,-14.6622,-14.7052,-14.7167,-14.8872,-14.9643,-14.988,-15.1485,-15.324,-15.4604,-15.6466,-15.8798,-15.9469,-15.8081,-15.78,-16.073,-16.1381,-16.1633,-16.2908,-16.3729,-16.4436,-16.4812,-16.5523,-16.6189,-16.6383,-16.5666,-16.6113,-16.653,-16.6022,-16.5844,-16.6426,-16.676,-16.7749,-17.0019,-16.981,-16.9433,-16.9664,-16.8743,-16.7637,-16.669,-16.3541,-15.9579,-15.667,-15.6003,-15.5193,-15.4324,-15.3596,-15.2551,-15.1433,-15.1936,-15.0192,-14.9011,-14.8422,-14.8449,-14.7852,-14.7204,-14.6915,-14.7131,-14.8095,-14.9886,-15.041,-15.108,-15.2484,-15.2703,-15.083,-14.8934,-14.7013,-14.4968,-14.3746,-14.2864,-14.3355,-14.3577,-14.4246,-14.4504,-14.4547,-14.3661,-14.1356,-13.9295,-8.8196,-9.0316,-9.119,-9.1568,-9.1693,-9.2764,-9.3651,-9.4592,-9.7191,-10.0727,-10.3806,-10.6277,-10.9037,-11.2082,-11.4355,-11.693,-11.8519,-11.9653,-11.94,-11.7382,-11.4229,-11.334,-11.4145,-11.2573,-11.1524,-11.0005,-10.9533,-11.1058,-11.3908,-11.7104,-12.0338,-12.5323,-12.8737,-13.1881,-13.5414,-13.7641,-14.046,-14.2977,-14.3781,-14.4918,-14.6203,-14.6774,-14.675,-14.6126,-14.7777,-14.9517,-15.1496,-15.4265,-15.5648,-15.5256,-15.3673,-15.4321,-15.8106,-15.9779,-16.0589,-16.1089,-16.1741,-16.2437,-16.2786,-16.3477,-16.4172,-16.3836,-16.3526,-16.4035,-16.446,-16.3504,-16.3187,-16.3233,-16.3262,-16.4043,-16.6065,-16.5023,-16.5269,-16.5609,-16.4337,-16.2417,-16.0259,-15.8402,-15.58,-15.3523,-15.3142,-15.3589,-15.2405,-15.1758,-15.0677,-15.0172,-14.8801,-14.6892,-14.5855,-14.5065,-14.4464,-14.3682,-14.2897,-14.2111,-14.2476,-14.3222,-14.4524,-14.5062,-14.6593,-14.8027,-14.6829,-14.5294,-14.4713,-14.3467,-14.2152,-14.1167,-14.0124,-14.0399,-14.0679,-14.1232,-14.1731,-14.2363,-14.2186,-13.978,-13.7611,-8.5061,-8.6422,-8.6422,-8.7775,-8.9749,-9.163,-9.4062,-9.6662,-9.9779,-10.3119,-10.6307,-10.8191,-11.0594,-11.306,-11.5642,-11.7878,-12.0255,-12.2382,-12.3824,-12.3739,-12.214,-12.0916,-12.1535,-11.7903,-11.4379,-11.2128,-10.9758,-11.1118,-11.3108,-11.4223,-11.7755,-12.1985,-12.5001,-12.7685,-13.1074,-13.4229,-13.6551,-13.8818,-14.0964,-14.2549,-14.3898,-14.4436,-14.4381,-14.4017,-14.5348,-14.6535,-14.8213,-14.9953,-14.9958,-14.7478,-15.014,-15.1968,-15.4321,-15.8423,-15.9782,-15.9734,-15.9049,-15.9174,-15.9821,-16.0208,-16.0306,-16.0715,-16.0322,-15.9929,-16.042,-16.0293,-15.9626,-15.9137,-15.9091,-15.989,-16.1019,-16.1539,-16.1683,-16.1818,-16.173,-15.8644,-15.4443,-15.1293,-14.9878,-14.9365,-14.909,-14.9875,-14.9752,-14.9164,-14.7575,-14.7003,-14.53,-14.3774,-14.2691,-14.1483,-14.03,-13.9622,-13.8643,-13.7662,-13.8219,-13.8725,-13.9885,-14.0803,-14.275,-14.2988,-14.1856,-14.1001,-14.0535,-14.0057,-13.9292,-13.8463,-13.7649,-13.7424,-13.7561,-13.8045,-13.8425,-13.9723,-14.0464,-13.7392,-13.5563,-8.3551,-8.5125,-8.6809,-8.7876,-8.9266,-9.1657,-9.4128,-9.6903,-10.0113,-10.3616,-10.7489,-10.97,-11.2188,-11.4702,-11.7091,-11.9682,-12.1746,-12.4144,-12.6559,-12.8227,-12.7297,-12.7242,-12.6049,-12.2566,-11.745,-11.3883,-11.0793,-11.0211,-11.1161,-11.2977,-11.5714,-11.9731,-12.205,-12.5052,-12.8493,-13.1368,-13.3644,-13.6591,-13.8426,-14.0566,-14.2472,-14.259,-14.2256,-14.2709,-14.2064,-14.2246,-14.3474,-14.6121,-14.6638,-14.5076,-14.4881,-14.6891,-15.0981,-15.5976,-15.8021,-15.6639,-15.6796,-15.686,-15.7565,-15.8031,-15.8039,-15.756,-15.8115,-15.7928,-15.7349,-15.7897,-15.7896,-15.6817,-15.6107,-15.6173,-15.6387,-15.6277,-15.6848,-15.7603,-15.5739,-15.2857,-14.9973,-14.84,-14.6977,-14.5277,-14.5201,-14.6606,-14.8971,-14.6437,-14.4828,-14.3627,-14.2213,-14.091,-13.972,-13.7716,-13.6345,-13.5679,-13.48,-13.5172,-13.5712,-13.6635,-13.7742,-13.8066,-13.9287,-13.8678,-13.7641,-13.6727,-13.6658,-13.6807,-13.6352,-13.59,-13.5578,-13.5359,-13.5429,-13.5483,-13.512,-13.5613,-13.56,-13.3976,-13.2964,-8.2591,-8.3563,-8.6425,-8.7582,-8.8531,-9.1151,-9.4096,-9.6236,-9.9803,-10.4266,-10.7584,-11.0584,-11.2823,-11.5688,-11.8125,-12.0557,-12.2526,-12.5527,-12.8355,-13.0648,-13.1392,-13.1639,-13.0415,-12.5351,-11.9415,-11.4154,-11.0707,-10.9399,-10.926,-11.0881,-11.3325,-11.7166,-11.8506,-12.1126,-12.5355,-12.6829,-12.9727,-13.3189,-13.4315,-13.6911,-13.9703,-13.9481,-13.9725,-14.0539,-13.9851,-13.9365,-13.904,-14.2366,-14.353,-14.1067,-13.8699,-14.0367,-14.6362,-15.1868,-15.4259,-15.3345,-15.364,-15.4357,-15.5316,-15.6117,-15.596,-15.5034,-15.6225,-15.6202,-15.4462,-15.5242,-15.5487,-15.5145,-15.3629,-15.2598,-15.2841,-15.2211,-15.2292,-15.2992,-15.0031,-14.6919,-14.5458,-14.4624,-14.2835,-13.9614,-14.0256,-14.1904,-14.3199,-14.2181,-14.0799,-14.0799,-13.9835,-13.8451,-13.8284,-13.6809,-13.5623,-13.3893,-13.329,-13.3478,-13.3716,-13.4812,-13.5725,-13.6178,-13.6158,-13.5947,-13.5502,-13.4556,-13.4195,-13.3936,-13.4141,-13.38,-13.3474,-13.3128,-13.3653,-13.3927,-13.3423,-13.2646,-13.2114,-13.0879,-12.9804,-8.064,-8.1578,-8.3534,-8.5154,-8.6481,-9.0033,-9.3047,-9.5939,-10.0049,-10.4323,-10.7513,-10.9785,-11.2416,-11.5578,-11.8211,-11.986,-12.1702,-12.6067,-12.936,-13.0996,-13.3118,-13.4293,-13.3096,-12.6268,-11.9742,-11.4234,-11.0487,-10.9003,-10.9676,-10.9174,-11.0094,-11.4524,-11.4606,-11.5462,-11.9158,-12.0618,-12.3362,-12.669,-12.8911,-13.1374,-13.4575,-13.5498,-13.6258,-13.6748,-13.7806,-13.7783,-13.6729,-13.8656,-13.8454,-13.4157,-13.2065,-13.4227,-14.0173,-14.5984,-14.9172,-14.9272,-14.931,-15.0982,-15.307,-15.3948,-15.4012,-15.3403,-15.4403,-15.4381,-15.2338,-15.1808,-15.1766,-15.1989,-15.0568,-14.989,-15.0237,-14.9298,-14.8689,-14.8617,-14.4984,-14.1946,-13.975,-13.7671,-13.6061,-13.416,-13.3905,-13.5214,-13.6258,-13.6533,-13.6531,-13.7152,-13.6738,-13.6666,-13.6602,-13.6327,-13.5361,-13.4881,-13.4324,-13.4094,-13.3361,-13.4424,-13.5378,-13.5705,-13.5484,-13.5471,-13.5286,-13.3905,-13.2999,-13.2469,-13.2176,-13.178,-13.132,-13.0973,-13.1074,-13.1589,-13.1361,-13.0611,-12.9325,-12.7565,-12.6417,-7.9993,-8.2262,-8.4623,-8.6233,-8.6701,-9.0596,-9.3072,-9.5259,-10.0184,-10.3571,-10.6241,-10.9603,-11.2508,-11.4565,-11.7661,-11.9505,-12.13,-12.5826,-12.8228,-12.9368,-13.2138,-13.3554,-13.388,-12.9079,-12.3114,-11.6045,-11.1677,-11.0191,-10.9835,-10.9161,-11.02,-11.3064,-11.2859,-11.3707,-11.6694,-11.8179,-11.9774,-12.2112,-12.4368,-12.6909,-12.9194,-13.0498,-13.175,-13.3044,-13.3329,-13.3192,-13.2995,-13.206,-13.0455,-12.8164,-12.7784,-13.0493,-13.6085,-14.062,-14.3954,-14.5186,-14.6416,-14.7897,-14.9822,-15.1507,-15.1941,-15.0855,-15.2572,-15.2791,-15.0421,-15.0211,-15.0267,-15.0004,-14.8295,-14.7141,-14.7397,-14.5874,-14.3719,-14.2081,-13.8714,-13.6747,-13.6595,-13.5124,-13.3027,-13.123,-13.1023,-13.0969,-13.0878,-13.1135,-13.3061,-13.3393,-13.38,-13.4626,-13.4907,-13.4984,-13.4711,-13.4371,-13.4867,-13.481,-13.3644,-13.4124,-13.5155,-13.5416,-13.5526,-13.5693,-13.5302,-13.3905,-13.2762,-13.2276,-13.1135,-13.0779,-12.9993,-12.9417,-12.9526,-12.9078,-12.9361,-12.8693,-12.7895,-12.5671,-12.4458,-7.9638,-8.2059,-8.4841,-8.6069,-8.7211,-9.112,-9.3189,-9.4463,-9.9341,-10.2786,-10.5448,-10.9129,-11.1861,-11.4163,-11.7831,-11.9868,-12.0582,-12.4897,-12.7572,-12.8873,-13.0415,-13.2265,-13.2583,-13.0007,-12.4731,-11.8396,-11.3228,-11.017,-10.9461,-10.8061,-10.8981,-11.0885,-11.0268,-11.1146,-11.3055,-11.4033,-11.5224,-11.7476,-11.9522,-12.1994,-12.4169,-12.566,-12.7251,-12.8974,-12.9071,-12.8199,-12.7051,-12.4788,-12.3059,-12.2122,-12.3154,-12.6089,-13.1004,-13.6407,-13.9607,-14.0749,-14.2377,-14.4222,-14.6578,-14.8679,-14.9048,-14.837,-14.9547,-14.9575,-14.7731,-14.7513,-14.7872,-14.8279,-14.6745,-14.5268,-14.5044,-14.2722,-13.9461,-13.5972,-13.3127,-13.1697,-13.1536,-13.0964,-12.9797,-12.8292,-12.7961,-12.7456,-12.7005,-12.8416,-13.0056,-13.0177,-13.1808,-13.3186,-13.3605,-13.4309,-13.4445,-13.4809,-13.5793,-13.644,-13.577,-13.5845,-13.6459,-13.683,-13.6701,-13.6882,-13.5573,-13.4319,-13.3568,-13.2612,-13.1025,-12.9899,-12.9024,-12.8844,-12.9394,-12.9372,-12.8938,-12.7955,-12.6648,-12.5419,-12.4212,-7.8592,-8.1274,-8.3295,-8.5124,-8.6845,-9.055,-9.2708,-9.4173,-9.7897,-10.1326,-10.4658,-10.7676,-11.0731,-11.3617,-11.8572,-12.041,-12.0003,-12.3864,-12.7152,-12.8947,-12.9466,-13.0391,-13.1272,-12.7484,-12.3693,-12.0027,-11.3354,-10.9705,-10.8808,-10.6585,-10.6072,-10.7264,-10.6101,-10.6371,-10.7588,-10.7897,-10.899,-11.1404,-11.311,-11.5603,-11.9009,-12.1407,-12.3145,-12.4333,-12.5799,-12.4158,-11.8491,-11.7544,-11.7109,-11.6954,-11.7504,-11.9739,-12.3966,-13.2525,-13.6915,-13.5322,-13.728,-14.0351,-14.3563,-14.5175,-14.6282,-14.5911,-14.5823,-14.5805,-14.4835,-14.3634,-14.368,-14.5381,-14.5584,-14.4877,-14.3448,-13.998,-13.5809,-13.1645,-12.9031,-12.7064,-12.5724,-12.4742,-12.4656,-12.4899,-12.4325,-12.3863,-12.5051,-12.6653,-12.7721,-12.8188,-13.0315,-13.238,-13.2683,-13.3373,-13.5227,-13.6166,-13.6484,-13.6714,-13.7143,-13.729,-13.775,-13.8213,-13.7898,-13.7664,-13.6444,-13.5067,-13.4276,-13.3046,-13.1486,-12.9873,-12.9041,-12.9101,-12.9594,-12.9563,-12.9156,-12.8555,-12.6597,-12.472,-12.3644,-7.6673,-7.9502,-8.2605,-8.405,-8.5202,-8.9475,-9.1713,-9.3012,-9.6995,-9.9932,-10.2702,-10.6773,-10.953,-11.2148,-11.7744,-11.9356,-11.8689,-12.2037,-12.4776,-12.6963,-12.6435,-12.7054,-12.761,-12.4727,-12.1916,-11.8844,-11.4958,-11.1968,-10.9634,-10.6255,-10.5122,-10.5807,-10.3987,-10.3056,-10.3098,-10.3725,-10.4392,-10.5388,-10.7607,-10.9804,-11.2663,-11.5609,-11.8013,-11.9498,-11.8386,-11.6092,-11.2366,-11.1986,-11.1372,-11.1064,-11.1508,-11.2417,-11.4476,-12.4958,-13.1067,-13.0117,-13.3223,-13.6514,-13.8503,-14.1822,-14.3327,-14.2489,-14.311,-14.366,-14.3026,-13.9568,-13.9846,-14.2586,-14.3577,-14.3001,-14.0806,-13.6402,-13.1668,-12.8378,-12.4922,-12.2625,-12.1758,-12.1297,-12.1441,-12.1751,-12.1731,-12.1714,-12.2048,-12.4773,-12.6206,-12.6227,-12.8748,-13.041,-13.0802,-13.1187,-13.1725,-13.3101,-13.4643,-13.5904,-13.6465,-13.645,-13.6911,-13.8442,-13.8888,-13.8604,-13.7675,-13.6152,-13.4946,-13.3536,-13.2078,-13.0463,-12.9693,-12.9632,-12.9651,-12.9621,-12.931,-12.8756,-12.6739,-12.442,-12.3165,-7.5386,-7.737,-8.0877,-8.3263,-8.4587,-8.8399,-9.1046,-9.2408,-9.5858,-9.877,-10.1089,-10.5484,-10.858,-11.076,-11.6019,-11.8411,-11.8092,-12.1364,-12.3467,-12.5098,-12.482,-12.5326,-12.6308,-12.2738,-11.9742,-11.8514,-11.58,-11.2478,-10.91,-10.6117,-10.4415,-10.3425,-10.1629,-10.0168,-9.971,-9.9834,-10.0126,-10.0292,-10.2532,-10.4895,-10.7174,-11.0557,-11.2135,-11.2541,-11.1683,-11.0143,-10.7675,-10.7558,-10.6776,-10.5392,-10.614,-10.573,-10.5152,-11.4132,-12.1152,-12.4079,-12.785,-13.1315,-13.3884,-13.7281,-13.8903,-13.8334,-13.9529,-13.9984,-13.9211,-13.6688,-13.6104,-13.9776,-14.0869,-13.9691,-13.7143,-13.2955,-12.8507,-12.5167,-12.2047,-11.982,-11.8739,-11.8663,-11.8763,-11.9206,-12.0141,-12.0929,-12.1755,-12.3864,-12.5782,-12.6136,-12.8107,-12.9255,-12.9007,-12.8953,-12.9551,-13.0796,-13.2467,-13.4193,-13.507,-13.554,-13.658,-13.8276,-13.9104,-13.8491,-13.7642,-13.5999,-13.5514,-13.4249,-13.2911,-13.1445,-13.0736,-13.0569,-12.9368,-12.9403,-12.9463,-12.8701,-12.7474,-12.6064,-12.4028,-7.4721,-7.4687,-7.8107,-8.1941,-8.5209,-8.7802,-9.0271,-9.2347,-9.4974,-9.754,-10.012,-10.373,-10.7083,-11.0391,-11.4556,-11.6539,-11.7396,-12.0535,-12.2632,-12.402,-12.362,-12.4422,-12.619,-12.0684,-11.8473,-11.8137,-11.4423,-11.0797,-10.7625,-10.529,-10.3207,-10.0741,-9.8839,-9.7433,-9.6407,-9.5668,-9.5506,-9.6202,-9.7718,-10.0009,-10.2507,-10.5691,-10.5855,-10.4215,-10.6133,-10.6456,-10.4681,-10.4208,-10.3065,-10.0285,-10.0938,-9.9662,-9.6662,-10.1883,-10.9434,-11.6935,-12.0975,-12.49,-12.9392,-13.189,-13.3222,-13.3978,-13.4901,-13.5089,-13.531,-13.3643,-13.4198,-13.77,-13.7291,-13.5635,-13.2888,-13.0011,-12.6599,-12.2655,-12.0352,-11.8112,-11.5861,-11.6776,-11.7296,-11.7764,-11.9353,-12.0749,-12.2186,-12.4297,-12.5401,-12.6425,-12.7974,-12.8922,-12.7671,-12.7664,-12.8469,-12.9315,-13.001,-13.0829,-13.2652,-13.3657,-13.5406,-13.6777,-13.7068,-13.7274,-13.633,-13.5749,-13.5592,-13.4969,-13.3634,-13.265,-13.2126,-13.1087,-12.9554,-12.9204,-12.9367,-12.9469,-12.8837,-12.763,-12.5751,-7.4081,-7.4015,-7.5349,-7.7934,-8.1188,-8.5364,-8.8845,-9.1259,-9.3463,-9.6692,-10.0238,-10.3408,-10.6592,-10.887,-11.0819,-11.3184,-11.5318,-11.6798,-11.8954,-12.164,-12.0535,-12.0308,-12.108,-11.8434,-11.6044,-11.3734,-11.2331,-10.9969,-10.7163,-10.4198,-10.1871,-9.956,-9.6522,-9.4565,-9.3666,-9.1466,-9.0902,-9.1072,-9.1925,-9.3961,-9.6142,-9.7466,-9.8375,-9.9391,-10.0737,-10.124,-10.014,-9.908,-9.7727,-9.5904,-9.5417,-9.4571,-9.362,-9.7452,-10.194,-10.7067,-11.3854,-11.9985,-12.4712,-12.7572,-13.0104,-13.175,-13.1279,-13.1676,-13.2517,-13.0057,-13.0399,-13.4439,-13.3769,-13.179,-12.953,-12.8163,-12.5636,-12.1965,-11.9371,-11.7659,-11.6473,-11.6081,-11.6547,-11.761,-11.9042,-12.0148,-12.0641,-12.2847,-12.5056,-12.5691,-12.6802,-12.7151,-12.6431,-12.5065,-12.5369,-12.7961,-12.8224,-12.817,-12.8143,-13.0223,-13.2236,-13.353,-13.5636,-13.6382,-13.6112,-13.6815,-13.6964,-13.4899,-13.4135,-13.3278,-13.2201,-13.0539,-12.8799,-12.9237,-12.957,-12.9714,-12.9733,-12.7933,-12.6312,-7.476,-7.3747,-7.4524,-7.6882,-8.0357,-8.4294,-8.7647,-8.9847,-9.2392,-9.5522,-9.9357,-10.2375,-10.4428,-10.6449,-10.874,-11.1049,-11.2986,-11.4136,-11.5915,-11.8022,-11.763,-11.7395,-11.7735,-11.5562,-11.3785,-11.2154,-11.0492,-10.9545,-10.7778,-10.4699,-10.1538,-9.832,-9.4976,-9.2797,-9.0808,-8.7942,-8.6386,-8.6774,-8.7771,-8.7999,-8.8709,-8.9823,-9.2109,-9.4295,-9.6245,-9.691,-9.5411,-9.4607,-9.2728,-8.9634,-8.9369,-8.8266,-8.6438,-9.0115,-9.4123,-9.849,-10.483,-11.1336,-11.794,-12.2239,-12.4815,-12.5628,-12.6804,-12.7774,-12.8777,-12.6639,-12.6227,-12.9415,-12.8704,-12.7551,-12.6871,-12.5572,-12.386,-12.1258,-11.9141,-11.7622,-11.6705,-11.6306,-11.6504,-11.7521,-11.9042,-12.024,-12.0771,-12.2681,-12.4652,-12.5872,-12.5431,-12.5087,-12.4678,-12.2917,-12.2863,-12.455,-12.4294,-12.3785,-12.4505,-12.5997,-12.7878,-12.9899,-13.211,-13.3825,-13.3569,-13.4746,-13.5445,-13.4679,-13.3536,-13.2683,-13.1849,-12.9924,-12.877,-12.9169,-12.9579,-12.9767,-12.9861,-12.8692,-12.765,-7.569,-7.4583,-7.5238,-7.7893,-8.1256,-8.4178,-8.6481,-8.8804,-9.1673,-9.4462,-9.6822,-10.0182,-10.1933,-10.3517,-10.7647,-10.9683,-10.9835,-11.2347,-11.3688,-11.3957,-11.4451,-11.4867,-11.5441,-11.2584,-11.1443,-11.181,-10.9545,-10.7917,-10.7778,-10.514,-10.1608,-9.7201,-9.4027,-9.1218,-8.8501,-8.448,-8.2648,-8.3319,-8.3804,-8.27,-8.003,-8.3658,-8.7036,-8.9233,-9.2264,-9.2577,-9.0065,-8.9931,-8.7534,-8.2351,-8.2555,-8.1065,-7.7958,-8.1226,-8.6302,-9.1498,-9.5052,-10.0612,-10.9591,-11.5502,-11.8195,-11.7722,-12.1611,-12.3501,-12.2998,-12.2879,-12.3007,-12.3293,-12.2863,-12.3064,-12.415,-12.2858,-12.1494,-12.0237,-11.8931,-11.7886,-11.6837,-11.6633,-11.7047,-11.7365,-11.9507,-12.097,-12.1951,-12.3231,-12.4728,-12.5874,-12.4454,-12.3237,-12.2794,-12.1297,-12.0357,-11.9993,-11.8688,-11.8428,-12.0051,-12.2342,-12.3495,-12.4792,-12.6853,-12.8719,-13.0045,-13.1181,-13.2151,-13.2393,-13.2009,-13.1373,-13.0324,-12.9212,-12.8614,-12.8678,-12.9161,-12.9554,-12.9286,-12.8976,-12.9094,-7.6741,-7.6247,-7.658,-7.8021,-8.0878,-8.3273,-8.6165,-8.8862,-9.0499,-9.2627,-9.4894,-9.6908,-9.9577,-10.2408,-10.5085,-10.6743,-10.7641,-10.9306,-11.0821,-11.1888,-11.1694,-11.1674,-11.192,-11.0868,-10.9104,-10.7402,-10.5988,-10.4977,-10.4168,-10.2319,-10.0574,-9.9304,-9.378,-8.9422,-8.6773,-8.2357,-7.9963,-7.8852,-7.6538,-7.6049,-7.7199,-8.0116,-8.2854,-8.548,-8.6179,-8.5785,-8.4476,-8.2389,-7.9414,-7.5526,-7.4053,-7.3857,-7.487,-7.7838,-8.1361,-8.5682,-9.0688,-9.5103,-9.9037,-10.6181,-11.2136,-11.5878,-11.6968,-11.8182,-11.998,-11.7708,-11.6765,-11.8876,-11.8941,-11.9612,-12.1032,-12.063,-12.0019,-11.9466,-11.7631,-11.6808,-11.7383,-11.7131,-11.7362,-11.9338,-12.0724,-12.178,-12.2327,-12.3856,-12.4804,-12.4549,-12.3206,-12.2144,-12.1542,-11.9546,-11.7057,-11.5095,-11.2635,-11.2282,-11.3666,-11.5062,-11.6862,-11.9541,-12.1912,-12.4266,-12.6637,-12.8105,-12.9324,-13.0394,-13.0182,-12.9718,-12.9897,-12.8991,-12.8031,-12.7574,-12.8465,-12.8783,-12.687,-12.6974,-12.8047,-7.6882,-7.6374,-7.6938,-7.7813,-7.973,-8.167,-8.4812,-8.8089,-8.8972,-9.0598,-9.2791,-9.4745,-9.6637,-9.8708,-10.1776,-10.3895,-10.4738,-10.6667,-10.824,-10.9601,-10.887,-10.8993,-10.954,-10.7556,-10.6128,-10.5136,-10.3536,-10.2574,-10.2377,-10.1085,-10.0335,-9.9701,-9.4953,-8.9893,-8.4595,-7.9345,-7.6383,-7.5653,-7.2855,-7.242,-7.4563,-7.666,-7.919,-8.1958,-8.1784,-8.0658,-7.841,-7.6708,-7.382,-6.9029,-6.8359,-6.8596,-6.9853,-7.1242,-7.3921,-7.8291,-8.2801,-8.6868,-9.0639,-9.724,-10.3553,-10.8804,-11.1272,-11.2403,-11.1811,-11.077,-11.1292,-11.3796,-11.4608,-11.5683,-11.7619,-11.7309,-11.7055,-11.7328,-11.6252,-11.5976,-11.7032,-11.7339,-11.8334,-12.0083,-12.1532,-12.2809,-12.3703,-12.4197,-12.4251,-12.3673,-12.2395,-12.0748,-11.8912,-11.5305,-11.1906,-10.984,-10.8199,-10.7872,-10.8925,-10.9252,-11.0657,-11.3797,-11.6447,-11.9298,-12.2603,-12.4352,-12.5961,-12.7762,-12.7913,-12.7856,-12.8501,-12.8139,-12.7599,-12.6881,-12.7332,-12.6837,-12.5622,-12.6038,-12.723,-7.6492,-7.664,-7.7056,-7.7846,-7.887,-8.0776,-8.3312,-8.6259,-8.723,-8.8952,-9.1115,-9.292,-9.3766,-9.4201,-9.8505,-10.0879,-10.2076,-10.4181,-10.5962,-10.6532,-10.6355,-10.6375,-10.6986,-10.4286,-10.3147,-10.3655,-10.142,-10.0675,-10.1362,-10.0452,-9.9978,-9.9106,-9.6318,-9.1002,-8.3343,-7.687,-7.3502,-7.2694,-7.0481,-7.0432,-7.2168,-7.3867,-7.5884,-7.8713,-7.8495,-7.6266,-7.2565,-7.2181,-6.938,-6.3638,-6.3894,-6.4071,-6.3866,-6.4588,-6.672,-7.0999,-7.4486,-7.8612,-8.3465,-8.8633,-9.369,-9.8612,-10.4253,-10.5472,-10.0783,-10.3127,-10.5898,-10.8182,-10.9609,-11.1293,-11.3085,-11.2816,-11.3061,-11.4088,-11.4358,-11.4771,-11.5646,-11.7049,-11.8658,-11.9996,-12.1801,-12.3216,-12.4174,-12.3637,-12.2823,-12.226,-12.0771,-11.8896,-11.5407,-11.0335,-10.6779,-10.528,-10.4192,-10.3821,-10.4355,-10.4157,-10.5289,-10.8268,-11.0978,-11.4075,-11.8001,-12.0139,-12.2323,-12.5059,-12.5238,-12.5483,-12.6258,-12.6826,-12.6198,-12.5421,-12.4402,-12.3882,-12.3654,-12.4977,-12.6045,-7.7905,-7.8479,-7.9202,-7.9508,-8.0105,-8.1952,-8.2849,-8.3312,-8.5935,0.0,0.0,-8.9889,-9.1375,-9.3259,-9.4821,-9.7308,-9.9503,-10.0341,-10.1347,-10.2556,-10.3039,-10.3053,-10.217,-10.2144,-10.1193,-10.0086,-9.8752,-9.8636,-9.9216,-9.8825,-9.8714,-9.8713,-9.5729,-9.206,-8.7527,-7.8901,-7.2339,-6.8087,-6.6869,-6.7964,-7.17,-7.2151,-7.3581,-7.6181,-7.5888,-7.3859,-7.034,-6.7517,-6.4307,-6.0426,-5.8526,-5.816,-6.0045,-6.2,-6.4523,-6.7531,-7.1262,-7.4044,-7.5328,-8.0639,-8.4415,-8.5422,-9.2788,-9.5535,-9.1234,-9.5141,-9.928,-10.2547,-10.3854,-10.5284,-10.7505,-10.7891,-10.8654,-11.0319,-11.0304,-11.1145,-11.3359,-11.5247,-11.6858,-11.8336,-11.982,-12.1035,-12.1238,-12.1035,-12.0492,-11.946,-11.7697,-11.5539,-11.2413,-10.7939,-10.3802,-10.13,-9.8729,-9.7437,-9.8863,-9.9032,-10.0159,-10.3796,-10.6267,-10.937,-11.3433,-11.6259,-11.8977,-12.1966,-12.2418,-12.2845,-12.3702,-12.3333,-12.2623,-12.1977,-12.1037,-12.025,-12.0399,-12.1721,-12.352,-7.7838,-7.841,-7.859,-7.9314,0.0,-8.1915,-8.2533,-8.2319,-8.5948,-8.8121,-8.8839,-8.8839,-8.9491,-9.0651,-9.178,-9.3648,-9.6338,-9.7503,-9.8839,-10.0768,-10.1091,-10.1102,-10.0304,-9.9685,-9.8927,-9.7655,-9.6449,-9.6026,-9.7058,-9.6595,-9.6436,-9.6606,-9.4184,-9.059,-8.6133,-7.8745,-7.2097,-6.6173,-6.5751,-6.7371,-7.0631,-7.078,-7.2262,-7.4656,-7.4119,0.0,0.0,0.0,0.0,0.0,0.0,0.0,0.0,-5.923,-5.9322,-6.1381,-6.2293,-6.3329,-6.516,-6.9454,-7.3432,-7.6613,-8.1395,-8.1896,-7.6585,-8.4931,-9.0884,-9.248,-9.6464,-9.9169,-9.9849,-10.1294,-10.2438,-10.3407,-10.5143,-10.7054,-10.9166,-11.1912,-11.4615,-11.6699,-11.8325,-11.9209,-11.9141,-11.8875,-11.7663,-11.5168,-11.3545,-11.178,-10.8797,-10.3263,-9.8579,-9.645,-9.4286,-9.3638,-9.4885,-9.5238,-9.6442,-9.9347,-10.2642,-10.6065,-10.972,-11.2882,-11.5771,-11.8183,-11.9174,-11.984,-12.08,-11.9554,-11.8387,-11.8935,-11.9181,-11.917,-11.9109,-12.1305,-12.3819,-7.7217,-7.8395,-7.8311,-7.8329,-7.9085,-8.108,-8.2112,-8.2211,-8.586,-8.7741,-8.8368,-8.7522,-8.71,-8.7522,-8.8323,-8.999,-9.2472,-9.3908,-9.6014,-9.8665,-9.8897,-9.8903,-9.9056,-9.7989,-9.6759,-9.5834,-9.4751,-9.426,-9.507,-9.507,-9.4814,-9.4123,-9.2388,-8.8695,-8.406,0.0,0.0,0.0,-6.6071,-6.7201,-7.0122,-7.0399,-7.1918,-7.441,-7.3499,0.0,-6.9735,-6.8117,-6.6193,-6.4436,-6.2835,0.0,-6.1725,0.0,0.0,0.0,0.0,0.0,0.0,0.0,0.0,0.0,-6.8763,-6.7677,-6.436,-7.4111,-8.1001,-8.174,-8.7948,-9.1919,-9.1385,-9.4013,-9.5822,-9.5987,-9.9335,-10.2328,-10.3955,-10.751,-11.1157,-11.4026,-11.5336,-11.6022,-11.5494,-11.5242,-11.3575,-11.0568,-10.8752,-10.6731,-10.3711,-9.7114,-9.2374,-9.1104,-9.0526,-9.05,-9.1462,-9.2324,-9.3629,-9.5871,-9.9668,-10.3341,-10.6404,-10.9925,-11.2995,-11.5119,-11.5946,-11.6955,-11.8093,-11.6077,-11.4884,-11.6717,-11.762,-11.8117,-11.8014,-12.1046,-12.4457,-7.7247,-7.8878,-7.8806,-7.8859,-7.8683,-8.0239,-8.121,-8.2008,-8.3292,-8.4043,-8.402,-8.3332,-8.3376,-8.4115,-8.4921,-8.6877,-8.9436,-9.0006,-9.2067,-9.5238,-9.5387,-9.5757,-9.6243,-9.6484,-9.5559,-9.4244,-9.4483,-9.4652,-9.4171,-9.4854,-9.5295,-9.4853,-9.1899,-8.8507,-8.4661,-7.7018,-7.1937,-6.9882,-6.7683,-6.7894,-7.0221,-7.1017,-7.2756,-7.5595,-7.4717,-7.3498,-7.2623,-6.9284,-6.683,-6.5798,-6.5472,-6.3767,-6.0089,-5.6135,-5.3413,0.0,-5.0891,0.0,0.0,0.0,0.0,0.0,0.0,0.0,0.0,-6.4451,-6.8449,-7.3415,-7.862,-8.2247,-8.3587,-8.7525,-8.9843,-8.9802,-9.2857,-9.5896,-9.8211,-10.1436,-10.4502,-10.7335,-10.8454,-10.8861,-10.8209,-10.7461,-10.7113,-10.64,-10.3361,-9.9344,-9.4802,-9.0982,-8.7669,-8.5589,-8.5469,-8.6434,-8.8238,-9.0066,-9.1952,-9.3818,-9.7221,-10.0775,-10.3274,-10.7182,-11.0882,-11.3151,-11.3649,-11.3927,-11.5253,-11.3806,-11.322,-11.5364,-11.5307,-11.5123,-11.5905,-11.91,-12.2727,-7.64,-7.6957,-7.8027,-7.7574,-7.64,-7.8397,-7.9744,-8.0936,-8.2643,-8.3235,-8.2737,-8.2239,-8.175,-8.0511,-8.0399,-8.2106,-8.51,-8.5851,-8.8142,-9.1905,-9.3311,-9.4083,-9.4648,-9.5873,-9.5067,-9.3029,-9.3569,-9.3166,-9.253,-9.2678,-9.2586,-9.2218,-8.9396,-8.4387,-7.7785,-7.4169,-7.1255,-6.9012,-6.7681,-6.8213,-7.0909,-7.0403,-7.1717,-7.4969,-7.4055,-7.3675,-7.3818,-7.1245,-6.9423,-6.8743,-6.7986,-6.5085,-5.9463,-5.2985,-4.9164,0.0,0.0,0.0,0.0,0.0,0.0,0.0,0.0,0.0,0.0,0.0,-5.9404,-6.3057,-6.799,-7.1725,-7.3533,-7.6179,-7.882,-8.1471,-8.3048,-8.5561,-8.9847,-9.2263,-9.4802,-9.8275,-10.1141,-10.2517,-10.191,-10.2561,-10.2596,-10.1395,-9.6466,-9.1885,-8.9038,-8.5657,-8.2715,-8.1157,-8.1329,-8.2371,-8.3974,-8.6626,-8.8943,-9.0937,-9.4073,-9.7215,-9.965,-10.4131,-10.7827,-10.8879,-11.051,-11.1937,-11.2221,-11.181,-11.1805,-11.3132,-11.3914,-11.4625,-11.5626,-11.9178,-12.3052,-7.4668,-7.4931,-7.3893,-7.2639,-7.1993,-7.4745,-7.6587,-7.8042,-8.0312,-8.1158,-8.1197,-8.098,-7.9067,-7.6235,-7.4556,-7.5498,-7.8408,-8.0251,-8.3319,-8.7634,-9.0472,-9.2303,-9.2954,-9.4842,-9.4569,-9.2602,-9.2372,-9.1427,-9.0179,-9.0017,-8.9041,-8.7301,-8.4125,-7.8584,-7.1175,-7.1366,-7.0406,-6.8321,-6.7705,-6.848,-7.1194,-7.0171,-7.1103,-7.4424,-7.3436,-7.3715,-7.4689,-7.2691,-7.112,-7.0201,-6.8775,-6.4796,-5.7667,-4.94,0.0,0.0,0.0,0.0,0.0,0.0,0.0,0.0,0.0,-5.0299,-4.1927,0.0,-5.2423,0.0,-5.9757,-6.462,-6.6112,-6.7931,0.0,0.0,-7.3308,-7.4992,-7.8851,-8.1409,-8.428,-8.7902,-9.2338,-9.5069,-9.5152,-9.6853,-9.744,-9.5361,-9.0092,-8.6116,-8.5227,-8.1394,-7.8021,-7.6935,-7.7505,-7.8652,-7.9952,-8.2623,-8.5414,-8.7815,-9.0744,-9.3535,-9.5642,-10.0613,-10.4105,-10.4101,-10.6714,-10.8635,-10.8907,-10.9487,-10.9999,-10.9966,-11.1952,-11.4012,-11.5129,-11.9151,-12.3327,-7.1513,-7.2769,-6.4745,-6.2394,-6.3797,-6.7188,-7.0331,-7.3188,-7.402,-7.6039,-7.8744,-7.7171,-7.4527,-7.0975,-6.7116,0.0,-6.8097,-7.25,-7.7044,-8.2006,-8.5111,-8.8136,-9.1335,-9.3239,-9.3554,-9.2387,-9.1607,-9.0058,-8.7531,-8.6409,-8.4167,-8.066,-7.523,-7.1309,-6.9007,-6.9197,-6.9504,-6.9948,-6.8599,-6.8831,-7.0434,-7.0474,-7.1378,-7.3531,-7.345,-7.4096,-7.5714,-7.2953,-7.0365,-6.8424,-6.6681,-6.1826,-5.34,0.0,0.0,0.0,0.0,0.0,0.0,0.0,0.0,0.0,0.0,0.0,0.0,0.0,0.0,-4.41,-5.621,0.0,-6.4341,-6.7486,0.0,0.0,0.0,-6.5486,-6.4306,-6.9032,-7.3359,-7.5891,0.0,0.0,-8.6653,-8.8443,-8.945,-8.8977,-8.5621,-8.3034,-8.2788,-7.8324,-7.4224,-7.2227,-7.3376,-7.4831,-7.5984,-7.8385,-8.129,-8.4474,-8.7927,-8.9871,-9.191,-9.593,-9.9027,-9.9883,-10.1911,-10.3777,-10.5196,-10.5748,-10.6431,-10.478,-10.787,-11.1107,-11.2262,-11.7016,-12.1899,-6.3355,-5.9392,-5.4431,-5.4467,-5.7719,-6.037,-6.4524,-6.906,-7.0873,-7.0727,-6.9744,-6.8204,-6.4744,-5.9436,-5.7152,0.0,0.0,0.0,-6.9956,-7.5408,-8.0113,-8.4612,-8.9066,-9.118,-9.1539,-9.0411,-8.9235,-8.6642,-8.2896,-8.1989,-7.5855,-6.4753,0.0,-6.2822,-6.0218,-6.3505,-6.6116,-6.7891,-6.836,-6.9116,-7.0474,-7.1216,-7.2192,-7.3337,-7.3014,-7.2722,-7.3073,-7.0703,-6.7561,-6.3494,-6.0423,-5.4673,0.0,0.0,0.0,0.0,0.0,0.0,0.0,0.0,0.0,0.0,0.0,-4.1979,-3.8481,0.0,0.0,0.0,-4.7146,-5.335,-5.7314,-5.8734,0.0,0.0,0.0,0.0,0.0,0.0,0.0,-6.2109,-6.8083,-7.3581,-7.7681,-7.9339,-8.0812,-8.2572,-8.3175,-8.1885,-7.831,0.0,-7.1522,-6.9845,-7.1216,-7.2294,-7.1934,-7.2933,-7.418,-7.5931,-7.8677,-8.1665,-8.497,-8.9115,-9.2441,-9.4123,-9.6919,-9.9613,-10.1056,-9.7758,-9.5091,-9.6072,-9.9723,-10.3675,-10.6414,-11.1966,-11.7281,-5.3638,0.0,0.0,0.0,0.0,-5.2449,-5.6558,-6.1514,-6.3549,-6.3049,-6.0974,-5.9734,0.0,0.0,0.0,0.0,0.0,0.0,-6.3592,-6.8384,-7.5191,-8.0551,-8.4753,-8.7389,-8.8106,-8.705,-8.6051,-8.2441,-7.7026,-7.3273,-6.5389,-5.3546,0.0,0.0,0.0,0.0,-6.3331,-6.6647,-6.8273,-6.9799,-7.1103,-7.149,-7.2059,-7.2217,-7.1919,-7.1135,-7.0499,-6.7696,-6.363,-5.7775,-5.316,0.0,0.0,0.0,0.0,0.0,0.0,0.0,0.0,0.0,0.0,0.0,0.0,0.0,0.0,0.0,0.0,0.0,0.0,0.0,-5.1559,-5.3141,-5.3808,0.0,0.0,0.0,0.0,0.0,0.0,0.0,0.0,0.0,-6.7255,-7.0361,-7.41,0.0,0.0,-8.0465,-7.6835,-7.2304,-6.9184,-6.8678,-6.9788,0.0,-6.815,-6.8731,-6.8938,-6.7534,-7.0332,-7.3132,-7.4969,-7.9519,-8.3305,-8.431,-8.8579,-9.202,-9.2413,-8.7952,-8.5442,-8.7446,-9.1043,-9.5021,-9.9172,-10.5294,-11.0804,0.0,0.0,0.0,0.0,-3.9344,0.0,0.0,0.0,-5.0761,-5.2563,0.0,-5.2952,0.0,0.0,0.0,0.0,-4.4347,-5.3225,0.0,0.0,-7.0602,-7.6435,-7.8291,-8.0593,-8.2185,-8.2968,-8.1855,-7.7458,-6.9353,-5.9742,-5.3235,0.0,0.0,0.0,0.0,0.0,-6.2044,-6.677,-6.8891,-7.0537,-7.2362,-7.092,-7.0085,-7.0311,-7.055,-6.9883,-6.8305,-6.4297,-5.8667,-5.1432,-4.5071,0.0,0.0,0.0,0.0,0.0,0.0,0.0,0.0,0.0,0.0,0.0,0.0,0.0,0.0,0.0,0.0,0.0,0.0,0.0,0.0,-5.3585,0.0,0.0,0.0,0.0,0.0,0.0,0.0,0.0,0.0,-5.4439,-5.5586,-6.1985,-6.9928,-7.8408,0.0,0.0,0.0,0.0,-6.6943,-6.835,-6.9152,-6.833,-6.468,-6.6894,-6.7087,-6.1313,0.0,0.0,-6.1132,-6.677,-7.1625,-7.0607,-7.615,-7.976,-7.845,-7.6669,-7.6956,-8.0136,-8.2443,-8.5788,-9.0281,-9.6706,-10.2879,0.0,0.0,0.0,0.0,0.0,0.0,0.0,0.0,0.0,-4.749,-4.6862,-4.6149,0.0,0.0,0.0,0.0,0.0,0.0,0.0,0.0,-6.0693,-6.6543,-7.042,-7.2951,-7.3395,-7.2196,-7.018,-6.4239,0.0,0.0,0.0,0.0,0.0,0.0,0.0,0.0,-6.1397,-6.7306,-7.1226,-7.3635,-7.4539,-7.407,-7.2982,-7.1327,-7.0941,-6.8028,-6.2303,-5.6951,-5.1505,0.0,0.0,0.0,0.0,0.0,0.0,0.0,0.0,0.0,0.0,0.0,0.0,0.0,0.0,0.0,0.0,0.0,0.0,0.0,0.0,0.0,0.0,0.0,-5.0005,0.0,0.0,0.0,0.0,0.0,0.0,0.0,0.0,0.0,-5.2846,-5.8443,-6.5,-7.2985,-7.6534,-7.8902,-8.0733,0.0,0.0,0.0,0.0,0.0,0.0,0.0,-6.0981,-5.8951,-5.6374,-5.3947,-5.1891,-5.8009,-6.3894,-6.5566,0.0,0.0,-6.1898,-6.1777,-6.3979,-6.6728,-6.999,-7.3931,-7.8924,-8.4567,-8.9661,0.0,0.0,0.0,0.0,0.0,0.0,0.0,0.0,0.0,-4.1166,-4.0132,0.0,0.0,0.0,0.0,0.0,0.0,0.0,0.0,0.0,0.0,0.0,-6.1576,-6.3726,0.0,0.0,0.0,0.0,0.0,0.0,0.0,0.0,0.0,0.0,0.0,0.0,-6.1438,-6.8071,-7.2982,-7.5721,-7.6733,-7.6264,-7.5012,-7.307,-7.1645,-6.8125,-6.1332,0.0,0.0,0.0,-3.0223,0.0,0.0,0.0,0.0,0.0,0.0,0.0,0.0,0.0,0.0,0.0,0.0,0.0,0.0,0.0,0.0,0.0,0.0,0.0,0.0,0.0,-4.5511,0.0,0.0,0.0,0.0,0.0,0.0,0.0,0.0,0.0,0.0,-5.5115,-6.0988,-6.8828,-7.4522,-7.8936,-8.2182,-8.2352,-8.1182,0.0,0.0,0.0,0.0,0.0,0.0,0.0,0.0,0.0,0.0,0.0,0.0,0.0,-5.9061,-6.0332,-5.1891,-5.1906,-5.432,-5.7839,0.0,0.0,0.0,0.0,0.0,0.0,0.0,0.0,0.0,0.0,0.0,0.0,0.0,0.0,0.0,-3.388,0.0,0.0,-3.1494,0.0,0.0,0.0,0.0,0.0,0.0,0.0,0.0,0.0,0.0,0.0,0.0,0.0,0.0,0.0,0.0,0.0,0.0,0.0,0.0,0.0,0.0,-6.2197,-6.9535,-7.3821,-7.7026,-7.8823,-7.7553,-7.6133,-7.4468,-7.2808,-7.0002,-6.5583,0.0,0.0,0.0,0.0,0.0,0.0,0.0,0.0,0.0,0.0,0.0,0.0,0.0,0.0,0.0,0.0,0.0,0.0,0.0,0.0,0.0,0.0,0.0,0.0,0.0,0.0,-4.1825,-4.2028,-4.0365,0.0,0.0,0.0,0.0,0.0,0.0,0.0,0.0,0.0,-6.6771,-7.2388,-7.8053,-8.4677,-8.78,-8.684,-8.0686,-7.704,-7.3547,-6.9004,-6.9563,-6.7166,0.0,0.0,0.0,0.0,0.0,0.0,0.0,0.0,0.0,0.0,0.0,0.0,0.0,0.0,0.0,0.0,0.0,0.0,0.0,0.0,0.0,0.0,0.0,0.0,0.0,0.0,0.0,0.0,-3.3311,-3.3997,0.0,0.0,0.0,0.0,0.0,0.0,0.0,0.0,0.0,0.0,0.0,0.0,0.0,0.0,0.0,0.0,0.0,0.0,0.0,0.0,0.0,0.0,0.0,0.0,-6.4112,-7.16,-7.7178,-8.0718,-8.146,-8.0409,-7.8662,-7.5381,-7.2289,-6.8204,-6.2947,0.0,0.0,0.0,0.0,0.0,0.0,0.0,0.0,0.0,0.0,0.0,0.0,0.0,0.0,0.0,0.0,0.0,0.0,0.0,0.0,0.0,0.0,0.0,0.0,0.0,0.0,0.0,-4.0864,-4.1011,-3.8527,0.0,0.0,0.0,0.0,0.0,0.0,0.0,0.0,0.0,0.0,-8.0163,-8.8043,-8.9284,-8.792,-8.4008,-7.9312,-7.5395,-7.3062,-6.8565,-6.3708,-5.8516,0.0,0.0,0.0,0.0,0.0,0.0,0.0,0.0,0.0,0.0,0.0,0.0,0.0,0.0,0.0,0.0,0.0,0.0,0.0,0.0,0.0,0.0,0.0,0.0,0.0,0.0,0.0,0.0,0.0,0.0,0.0,0.0,0.0,0.0,0.0,0.0,0.0,0.0,0.0,0.0,0.0,0.0,0.0,0.0,0.0,0.0,0.0,0.0,0.0,0.0,0.0,0.0,0.0,-6.4616,-7.2863,-7.8311,-8.1599,-8.2613,-8.1713,-7.9484,-7.6253,-7.2413,-6.8118,0.0,0.0,0.0,0.0,0.0,0.0,0.0,0.0,0.0,0.0,0.0,0.0,0.0,0.0,0.0,0.0,0.0,0.0,0.0,0.0,0.0,0.0,0.0,0.0,0.0,0.0,0.0,0.0,-3.733,-3.9333,-3.893,0.0,0.0,0.0,0.0,0.0,0.0,0.0,0.0,0.0,0.0,-8.0427,-8.7874,-8.9582,0.0,0.0,-7.9998,-7.6967,-7.4096,-7.0953,-6.6411,-5.9269,-5.2335,0.0,0.0,0.0,0.0,0.0,0.0,0.0,0.0,0.0,0.0,0.0,0.0,0.0,0.0,0.0,0.0,0.0,0.0,0.0,0.0,0.0,0.0,0.0,0.0,0.0,0.0,0.0,0.0,0.0,0.0,0.0,0.0,0.0,0.0,0.0,0.0,0.0,0.0,0.0,0.0,0.0,0.0,0.0,0.0,0.0,0.0,0.0,0.0,0.0,0.0,0.0,0.0,-6.4355,-7.3287,-7.764,-8.1016,-8.2882,-8.1502,-7.9311,-7.7206,-7.3329,-6.8989,0.0,0.0,0.0,0.0,0.0,0.0,0.0,0.0,0.0,0.0,0.0,0.0,0.0,0.0,0.0,0.0,0.0,0.0,0.0,0.0,0.0,0.0,0.0,0.0,0.0,0.0,0.0,0.0,0.0,0.0,0.0,0.0,0.0,0.0,0.0,0.0,0.0,0.0,0.0,0.0,0.0,-7.9796,-8.5552,-8.8793,-8.7912,0.0,-7.9351,-7.7724,-7.2411,-7.473,-7.2429,-5.8474,0.0,0.0,0.0,0.0,0.0,0.0,0.0,0.0,0.0,0.0,0.0,0.0,0.0,0.0,0.0,0.0,0.0,0.0,0.0,0.0,0.0,0.0,0.0,0.0,0.0,0.0,0.0,0.0,0.0,0.0,0.0,0.0,0.0,0.0,0.0,0.0,0.0,0.0,0.0,0.0,0.0,0.0,0.0,0.0,0.0,0.0,0.0,0.0,0.0,0.0,0.0,0.0,0.0,0.0,-7.195,-7.8413,-8.232,-8.3269,-8.2967,-8.1594,-7.8872,-7.3029,0.0,0.0,0.0,0.0,0.0,0.0,0.0,0.0,0.0,0.0,0.0,0.0,0.0,0.0,0.0,0.0,0.0,0.0,0.0,0.0,0.0,0.0,0.0,0.0,0.0,0.0,0.0,-2.9157,0.0,0.0,0.0,0.0,0.0,0.0,0.0,0.0,0.0,0.0,0.0,0.0,0.0,0.0,-8.3435,-8.9305,-9.0033,-8.7325,0.0,0.0,-7.2322,-6.7458,-6.6212,-6.3228,0.0,0.0,0.0,0.0,0.0,0.0,0.0,0.0,0.0,0.0,0.0,0.0,0.0,0.0,0.0,0.0,0.0,0.0,0.0,0.0,0.0,0.0,0.0,0.0,0.0,0.0,0.0,0.0,0.0,0.0,0.0,0.0,0.0,0.0,0.0,0.0,0.0,0.0,0.0,0.0,0.0,0.0,0.0,0.0,0.0,0.0,0.0,0.0,0.0,0.0,0.0,0.0,0.0,0.0,-6.2575,-7.0812,-7.6157,-8.0095,-8.2661,-8.2826,-8.2049,-8.0192,-7.4847,-7.0197,0.0,0.0,0.0,0.0,0.0,0.0,0.0,0.0,0.0,0.0,0.0,0.0,0.0,0.0,0.0,0.0,0.0,0.0,0.0,0.0,0.0,0.0,0.0,0.0,0.0,0.0,0.0,0.0,0.0,0.0,0.0,0.0,0.0,0.0,0.0,0.0,0.0,0.0,0.0,0.0,0.0,0.0,-8.484,-8.6449,0.0,0.0,0.0,-6.8907,-6.3735,0.0,0.0,0.0,0.0,0.0,0.0,0.0,0.0,0.0,0.0,0.0,0.0,0.0,0.0,0.0,0.0,0.0,0.0,0.0,0.0,0.0,0.0,0.0,0.0,0.0,0.0,0.0,0.0,0.0,0.0,0.0,0.0,0.0,0.0,0.0,0.0,0.0,0.0,0.0,0.0,0.0,0.0,0.0,0.0,0.0,0.0,0.0,0.0,0.0,0.0,0.0,0.0,0.0,0.0,0.0,0.0,0.0,-6.9248,-7.2868,-7.6692,-8.1327,-8.1639,-8.1497,-8.0917,-7.696,-7.2903,0.0,0.0,0.0,0.0,0.0,0.0,0.0,0.0,0.0,0.0,0.0,0.0,0.0,0.0,0.0,0.0,0.0,0.0,0.0,0.0,0.0,0.0,0.0,0.0,0.0,0.0,0.0,0.0,0.0,0.0,0.0,0.0,0.0,0.0,0.0,0.0,0.0,0.0,0.0,0.0,0.0,-8.4284,-7.8169,-8.1076,-8.0748,0.0,0.0,-6.5924,-6.0466,-6.2381,0.0,0.0,0.0,0.0,0.0,0.0,0.0,0.0,0.0,0.0,0.0,0.0,0.0,0.0,0.0,0.0,0.0,0.0,0.0,0.0,0.0,0.0,0.0,0.0,0.0,0.0,0.0,0.0,0.0,0.0,0.0,0.0,0.0,0.0,0.0,0.0,0.0,0.0,0.0,0.0,0.0,0.0,0.0,0.0,0.0,0.0,0.0,0.0,0.0,0.0,0.0,0.0,0.0,0.0,0.0,0.0,-6.6476,-7.313,-7.7753,-7.9955,-8.1514,-8.2266,-8.1682,-7.583,-7.159,0.0,0.0,0.0,0.0,0.0,0.0,0.0,0.0,0.0,0.0,0.0,0.0,0.0,0.0,0.0,0.0,0.0,0.0,0.0,0.0,0.0,0.0,0.0,0.0,0.0,0.0,0.0,0.0,0.0,0.0,0.0,0.0,0.0,0.0,0.0,0.0,0.0,0.0,0.0,0.0,0.0,-8.1137,-8.3521,-8.1036,0.0,0.0,0.0,0.0,-5.6077,-5.4485,0.0,0.0,0.0,0.0,0.0,0.0,0.0,0.0,0.0,0.0,0.0,0.0,0.0,0.0,0.0,0.0,0.0,0.0,0.0,0.0,0.0,0.0,0.0,0.0,0.0,0.0,0.0,0.0,0.0,0.0,0.0,0.0,0.0,0.0,0.0,0.0,0.0,0.0,0.0,0.0,0.0,0.0,0.0,0.0,0.0,0.0,0.0,0.0,0.0,0.0,0.0,0.0,0.0,0.0,0.0,0.0,-6.5757,-7.1028,-7.5453,-7.9272,-8.1429,-8.2599,-8.2535,-7.7478,-7.299,0.0,0.0,0.0,0.0,0.0,0.0,0.0,0.0,0.0,0.0,0.0,0.0,0.0,0.0,0.0,0.0,0.0,0.0,0.0,0.0,0.0,0.0,0.0,0.0,0.0,0.0,0.0,0.0,0.0,0.0,0.0,0.0,0.0,0.0,0.0,0.0,0.0,0.0,0.0,0.0,-7.4361,-7.8781,-7.9002,0.0,0.0,0.0,0.0,0.0,0.0,-5.1559,-4.8874,0.0,0.0,0.0,0.0,0.0,0.0,0.0,0.0,0.0,0.0,0.0,0.0,0.0,0.0,0.0,0.0,0.0,0.0,0.0,0.0,0.0,0.0,0.0,0.0,0.0,0.0,0.0,0.0,0.0,0.0,0.0,0.0,0.0,0.0,0.0,0.0,0.0,0.0,0.0,0.0,0.0,0.0,0.0,0.0,0.0,0.0,0.0,0.0,0.0,0.0,0.0,0.0,0.0,0.0,0.0,-6.4948,-6.7864,-7.2313,-7.8369,-8.0785,-8.2283,-8.2942,-7.8866,-7.398,-6.8384,0.0,0.0,0.0,0.0,0.0,0.0,0.0,0.0,0.0,0.0,0.0,0.0,0.0,0.0,0.0,0.0,0.0,0.0,0.0,0.0,0.0,0.0,0.0,0.0,0.0,0.0,0.0,0.0,0.0,0.0,0.0,0.0,0.0,0.0,0.0,0.0,0.0,0.0,0.0,-6.9826,-7.4494,0.0,0.0,0.0,0.0,0.0,0.0,0.0,0.0,-4.8584,0.0,0.0,0.0,0.0,0.0,0.0,0.0,0.0,0.0,0.0,0.0,0.0,0.0,0.0,0.0,0.0,0.0,0.0,0.0,0.0,0.0,0.0,0.0,0.0,0.0,0.0,0.0,0.0,0.0,0.0,0.0,0.0,0.0,0.0,0.0,0.0,0.0,0.0,0.0,0.0,0.0,0.0,0.0,0.0,0.0,0.0,0.0,0.0,0.0,0.0,0.0,0.0,0.0,0.0,0.0,0.0,-6.4654,-7.0597,-7.6354,-7.8253,-8.0042,-8.1922,-7.6572,-7.0006,-6.3198,0.0,0.0,0.0,0.0,0.0,0.0,0.0,0.0,0.0,0.0,0.0,0.0,0.0,0.0,0.0,0.0,0.0,0.0,0.0,0.0,0.0,0.0,0.0,0.0,0.0,0.0,0.0,0.0,0.0,0.0,0.0,0.0,0.0,0.0,0.0,0.0,0.0,0.0,-5.1855,-5.7961,0.0,0.0,0.0,0.0,0.0,0.0,0.0,0.0,-4.8101,0.0,0.0,0.0,0.0,0.0,0.0,0.0,0.0,0.0,0.0,0.0,0.0,0.0,0.0,0.0,0.0,0.0,0.0,0.0,0.0,0.0,0.0,0.0,0.0,0.0,0.0,0.0,0.0,0.0,0.0,0.0,0.0,0.0,0.0,0.0,0.0,0.0,0.0,0.0,0.0,0.0,0.0,0.0,0.0,0.0,0.0,0.0,0.0,0.0,0.0,0.0,0.0,0.0,0.0,0.0,0.0,0.0,0.0,-6.9173,-7.5458,-7.7916,-7.9834,-8.0266,-7.2886,-6.6144,0.0,0.0,0.0,0.0,0.0,0.0,0.0,0.0,0.0,0.0,0.0,0.0,0.0,0.0,0.0,0.0,0.0,0.0,0.0,0.0,0.0,0.0,0.0,0.0,0.0,0.0,0.0,0.0,0.0,0.0,0.0,0.0,0.0,0.0,0.0,0.0,0.0,0.0,0.0,0.0,0.0,0.0,0.0,0.0,0.0,0.0,0.0,0.0,0.0,0.0,0.0,0.0,0.0,0.0,0.0,0.0,0.0,0.0,0.0,0.0,0.0,0.0,0.0,0.0,0.0,0.0,0.0,0.0,0.0,0.0,0.0,0.0,0.0,0.0,0.0,0.0,0.0,0.0,0.0,0.0,0.0,0.0,0.0,0.0,0.0,0.0,0.0,0.0,0.0,0.0,0.0,0.0,0.0,0.0,0.0,0.0,0.0,0.0,0.0,0.0,0.0,0.0,0.0,0.0,0.0,0.0,0.0,0.0,-6.6835,-7.393,-7.7065,-7.8475,-7.8503,-7.0382,-6.3035,0.0,0.0,0.0,0.0,0.0,0.0,0.0,0.0,0.0,0.0,0.0,0.0,0.0,0.0,0.0,0.0,0.0,0.0,0.0,0.0,0.0,0.0,0.0,0.0,0.0,0.0,0.0,0.0,0.0,0.0,0.0,0.0,0.0,0.0,0.0,0.0,0.0,0.0,0.0,0.0,0.0,0.0,0.0,0.0,0.0,0.0,0.0,0.0,-4.554,0.0,0.0,0.0,0.0,0.0,0.0,0.0,0.0,0.0,0.0,0.0,0.0,0.0,0.0,0.0,0.0,0.0,0.0,0.0,0.0,0.0,0.0,0.0,0.0,0.0,0.0,0.0,0.0,0.0,0.0,0.0,0.0,0.0,0.0,0.0,0.0,0.0,0.0,0.0,0.0,0.0,0.0,0.0,0.0,0.0,0.0,0.0,0.0,0.0,0.0,0.0,0.0,0.0,0.0,0.0,0.0,0.0,0.0,0.0,-6.2285,-7.095,-7.2868,-7.4547,-7.587,-7.0003,-6.2771,0.0,0.0,0.0,0.0,0.0,0.0,0.0,0.0,0.0,0.0,0.0,0.0,0.0,0.0,0.0,0.0,0.0,0.0,0.0,0.0,0.0,0.0,0.0,0.0,0.0,0.0,0.0,0.0,0.0,0.0,0.0,0.0,0.0,0.0,0.0,0.0,0.0,0.0,0.0,0.0,0.0,0.0,0.0,0.0,0.0,0.0,0.0,0.0,0.0,0.0,0.0,0.0,0.0,0.0,0.0,0.0,0.0,0.0,0.0,0.0,0.0,0.0,0.0,0.0,0.0,0.0,0.0,0.0,0.0,0.0,0.0,0.0,0.0,0.0,0.0,0.0,0.0,0.0,0.0,0.0,0.0,0.0,0.0,0.0,0.0,0.0,0.0,0.0,0.0,0.0,0.0,0.0,0.0,0.0,0.0,0.0,0.0,0.0,0.0,0.0,0.0,0.0,0.0,0.0,0.0,0.0,0.0,0.0,-6.0389,-6.8598,-7.0891,-7.1716,-7.0582,-6.2924,-5.7117,0.0,0.0,0.0,0.0,0.0,0.0,0.0,0.0,0.0,0.0,0.0,0.0,0.0,0.0,0.0,0.0,0.0,0.0,0.0,0.0,0.0,0.0,0.0,0.0,0.0,0.0,0.0,0.0,0.0,0.0,0.0,0.0,0.0,0.0,0.0,0.0,0.0,0.0,0.0,0.0,0.0,0.0,0.0,0.0,0.0,0.0,0.0,0.0,0.0,0.0,0.0,0.0,0.0,0.0,0.0,0.0,0.0,0.0,0.0,0.0,0.0,0.0,0.0,0.0,0.0,0.0,0.0,0.0,0.0,0.0,0.0,0.0,0.0,0.0,0.0,0.0,0.0,0.0,0.0,0.0,0.0,0.0,0.0,0.0,0.0,0.0,0.0,0.0,0.0,0.0,0.0,0.0,0.0,0.0,0.0,0.0,0.0,0.0,0.0,0.0,0.0,0.0,0.0,0.0,0.0,0.0,0.0,0.0,0.0,-6.4637,-6.7478,-6.732,-6.4503,-5.693,-5.2135,0.0,0.0,0.0,0.0,0.0,0.0,0.0,0.0,0.0,0.0,0.0,0.0,0.0,0.0,0.0,0.0,0.0,0.0,0.0,0.0,0.0,0.0,0.0,0.0,0.0,0.0,0.0,0.0,0.0,0.0,0.0,0.0,0.0,0.0,0.0,0.0,0.0,0.0,0.0,0.0,0.0,0.0,0.0,0.0,0.0,0.0,0.0,0.0,0.0,0.0,0.0,0.0,0.0,0.0,0.0,0.0,0.0,0.0,0.0,0.0,0.0,0.0,0.0,0.0,0.0,0.0,0.0,0.0,0.0,0.0,0.0,0.0,0.0,0.0,0.0,0.0,0.0,0.0,0.0,0.0,0.0,0.0,0.0,0.0,0.0,0.0,0.0,0.0,0.0,0.0,0.0,0.0,0.0,0.0,0.0,0.0,0.0,0.0,0.0,0.0,0.0,0.0,0.0,0.0,0.0,0.0,0.0,0.0,0.0,-5.8558,-6.0856,-6.0606,-5.7982,-5.4316,-4.9892,0.0,0.0,0.0,0.0,0.0,0.0,0.0,0.0,0.0,0.0,0.0,0.0,0.0,0.0,0.0,0.0,0.0,0.0,0.0,0.0,0.0,0.0,0.0,0.0,0.0,0.0,0.0,0.0,0.0,0.0,0.0,0.0,0.0,0.0,0.0,0.0,0.0,0.0,0.0,0.0,0.0,0.0,0.0,0.0,0.0,0.0,0.0,0.0,0.0,0.0,0.0,0.0,0.0,0.0,0.0,0.0,0.0,0.0,0.0,0.0,0.0,0.0,0.0,0.0,0.0,0.0,0.0,0.0,0.0,0.0,0.0,0.0,0.0,0.0,0.0,0.0,0.0,0.0,0.0,0.0,0.0,0.0,0.0,0.0,0.0,0.0,0.0,0.0,0.0,0.0,0.0,0.0,0.0,0.0,0.0,0.0,0.0,0.0,0.0,0.0,0.0,0.0,0.0,0.0,0.0,0.0,0.0,0.0,0.0,-4.9901,-5.2397,-5.4785,-5.6847,-4.9542,-4.6722,-4.9231,0.0,0.0,0.0,0.0,0.0,0.0,0.0,0.0,0.0,0.0,0.0,0.0,0.0,0.0,0.0,0.0,0.0,0.0,0.0,0.0,0.0,0.0,0.0,0.0,0.0,0.0,0.0,0.0,0.0,0.0,0.0,0.0,0.0,0.0,0.0,0.0,0.0,0.0,0.0,0.0,0.0,0.0,0.0,0.0,0.0,0.0,0.0,0.0,0.0,0.0,0.0,0.0,0.0,0.0,0.0,0.0,0.0,0.0,0.0,0.0,0.0,0.0,0.0,0.0,0.0,0.0,0.0,0.0,0.0,0.0,0.0,0.0,0.0,0.0,0.0,0.0,0.0,0.0,0.0,0.0,0.0,0.0,0.0,0.0,0.0,0.0,0.0,0.0,0.0,0.0,0.0,0.0,0.0,0.0,0.0,0.0,0.0,0.0,0.0,0.0,0.0,0.0,0.0,0.0,0.0,0.0,0.0,0.0,-4.6338,-4.9209,-5.2085,-5.4472,-4.7899,-4.5514,0.0,0.0,0.0,0.0,0.0,0.0,0.0,0.0,0.0,0.0,0.0,0.0,0.0,0.0,0.0,0.0,0.0,0.0,0.0,0.0,0.0,0.0,0.0,0.0,0.0,0.0,0.0,0.0,0.0,0.0,0.0,0.0,0.0,0.0,0.0,0.0,0.0,0.0,0.0,0.0,0.0,0.0,0.0,0.0,0.0,0.0,0.0,0.0,0.0,0.0,0.0,0.0,0.0,0.0,0.0,0.0,0.0,0.0,0.0,0.0,0.0,0.0,0.0,0.0,0.0,0.0,0.0,0.0,0.0,0.0,0.0,0.0,0.0,0.0,0.0,0.0,0.0,0.0,0.0,0.0,0.0,0.0,0.0,0.0,0.0,0.0,0.0,0.0,0.0,0.0,0.0,0.0,0.0,0.0,0.0,0.0,0.0,0.0,0.0,0.0,0.0,0.0,0.0,0.0,0.0,0.0,0.0,0.0,-3.9765,-4.8899,-5.1972,-5.2665,-5.0916,-4.9992,-4.6243,0.0,0.0,0.0,0.0,0.0,0.0,0.0,0.0,0.0,0.0,0.0,0.0,0.0,0.0,0.0,0.0,0.0,0.0,0.0,0.0,0.0,0.0,0.0,0.0,0.0,0.0,0.0,0.0,0.0,0.0,0.0,0.0,0.0,0.0,0.0,0.0,0.0,0.0,0.0,0.0,0.0,0.0,0.0,0.0,0.0,0.0,0.0,0.0,0.0,0.0,0.0,0.0,0.0,0.0,0.0,0.0,0.0,0.0,0.0,0.0,0.0,0.0,0.0,0.0,0.0,0.0,0.0,0.0,0.0,0.0,0.0,0.0,0.0,0.0,0.0,0.0,0.0,0.0,0.0,0.0,0.0,0.0,0.0,0.0,0.0,0.0,0.0,0.0,0.0,0.0,0.0,0.0,0.0,0.0,0.0,0.0,0.0,0.0,0.0,0.0,0.0,0.0,0.0,0.0,0.0,0.0,0.0,0.0,0.0,-3.883,0.0,-5.0603,-5.4967,-4.9876,-4.7256,0.0,0.0,0.0,0.0,0.0,0.0,0.0,0.0,0.0,0.0,0.0,0.0,0.0,0.0,0.0,0.0,0.0,0.0,0.0,0.0,0.0,0.0,0.0,0.0,0.0,0.0,0.0,0.0,0.0,0.0,0.0,0.0,0.0,0.0,0.0,0.0,0.0,0.0,0.0,0.0,0.0,0.0,0.0,0.0,0.0,0.0,0.0,0.0,0.0,0.0,0.0,0.0,0.0,0.0,0.0,0.0,0.0,0.0,0.0,0.0,0.0,0.0,0.0,0.0,0.0,0.0,0.0,0.0,0.0,0.0,0.0,0.0,0.0,0.0,0.0,0.0,0.0,0.0,0.0,0.0,0.0,0.0,0.0,0.0,0.0,0.0,0.0,0.0,0.0,0.0,0.0,0.0,0.0,0.0,0.0,0.0,0.0,0.0,0.0,0.0,0.0,0.0,0.0,0.0,0.0,0.0,0.0,0.0,0.0,-3.7278,-4.1394,-4.7333,-5.4972,-5.072,-4.9027,0.0,0.0,0.0,0.0,0.0,0.0,0.0,0.0,0.0,0.0,0.0,0.0,0.0,0.0,0.0,0.0,0.0,0.0,0.0,0.0,0.0,0.0,0.0,0.0,0.0,0.0,0.0,0.0,0.0,0.0,0.0,0.0,0.0,0.0,0.0,0.0,0.0,0.0,0.0,0.0,0.0,0.0,0.0,0.0,0.0,0.0,0.0,0.0,0.0,0.0,0.0,0.0,0.0,0.0,0.0,0.0,0.0,0.0,0.0,0.0,0.0,0.0,0.0,0.0,0.0,0.0,0.0,0.0,0.0,0.0,0.0,0.0,0.0,0.0,0.0,0.0,0.0,0.0,0.0,0.0,0.0,0.0,0.0,0.0,0.0,0.0,0.0,0.0,0.0,0.0,0.0,0.0,0.0,0.0,0.0,0.0,0.0,0.0,0.0,0.0,0.0,0.0,0.0,0.0,0.0,0.0,0.0,0.0,0.0,-4.2355,-4.1115,-4.365,-5.0985,-5.1988,-5.1148,0.0,0.0,0.0,0.0,0.0,0.0,0.0,0.0,0.0,0.0,0.0,0.0,0.0,0.0,0.0,0.0,0.0,0.0,0.0,0.0,0.0,0.0,0.0,0.0,0.0,0.0,0.0,0.0,0.0,0.0,0.0,0.0,0.0,0.0,0.0,0.0,0.0,0.0,0.0,0.0,0.0,0.0,0.0,0.0,0.0,0.0,0.0,0.0,0.0,0.0,0.0,0.0,0.0,0.0,0.0,0.0,0.0,0.0,0.0,0.0,0.0,0.0,0.0,0.0,0.0,0.0,0.0,0.0,0.0,0.0,0.0,0.0,0.0,0.0,0.0,0.0,0.0,0.0,0.0,0.0,0.0,0.0,0.0,0.0,0.0,0.0,0.0,0.0,0.0,0.0,0.0,0.0,0.0,0.0,0.0,0.0,0.0,0.0,0.0,0.0,0.0,0.0,0.0,0.0,0.0,0.0,0.0,0.0,0.0,0.0,-3.6188,-4.1345,-4.6677,-4.8797,-4.9479,-4.872,0.0,0.0,0.0,0.0,0.0,0.0,0.0,0.0,0.0,0.0,0.0,0.0,0.0,0.0,0.0,0.0,0.0,0.0,0.0,0.0,0.0,0.0,0.0,0.0,0.0,0.0,0.0,0.0,0.0,0.0,0.0,0.0,0.0,0.0,0.0,0.0,0.0,0.0,0.0,0.0,0.0,0.0,0.0,0.0,0.0,0.0,0.0,0.0,0.0,0.0,0.0,0.0,0.0,0.0,0.0,0.0,0.0,0.0,0.0,0.0,0.0,0.0,0.0,0.0,0.0,0.0,0.0,0.0,0.0,0.0,0.0,0.0,0.0,0.0,0.0,0.0,0.0,0.0,0.0,0.0,0.0,0.0,0.0,0.0,0.0,0.0,0.0,0.0,0.0,0.0,0.0,0.0,0.0,0.0,0.0,0.0,0.0,0.0,0.0,0.0,0.0,0.0,0.0,0.0,0.0,0.0,0.0,0.0,0.0,0.0,-3.7658,-4.5336,-4.6494,-4.7578,0.0,0.0,0.0,0.0,0.0,0.0,0.0,0.0,0.0,0.0,0.0,0.0,0.0,0.0,0.0,0.0,0.0,0.0,0.0,0.0,0.0,0.0,0.0,0.0,0.0,0.0,0.0,0.0,0.0,0.0,0.0,0.0,0.0,0.0,0.0,0.0,0.0,0.0,0.0,0.0,0.0,0.0,0.0,0.0,0.0,0.0,0.0,0.0,0.0,0.0,0.0,0.0,0.0,0.0,0.0,0.0,0.0,0.0,0.0,0.0,0.0,0.0,0.0,0.0,0.0,0.0,0.0,0.0,0.0,0.0,0.0,0.0,0.0,0.0,0.0,0.0,0.0,0.0,0.0,0.0,0.0,0.0,0.0,0.0,0.0,0.0,0.0,0.0,0.0,0.0,0.0,0.0,0.0,0.0,0.0,0.0,0.0,0.0,0.0,0.0,0.0,0.0,0.0,0.0,0.0,0.0,0.0,0.0,0.0,0.0,0.0,-3.2892,-4.4447,-4.4283,0.0,-4.8325,0.0,0.0,0.0,0.0,0.0,0.0,0.0,0.0,0.0,0.0,0.0,0.0,0.0,0.0,0.0,0.0,0.0,0.0,0.0,0.0,0.0,0.0,0.0,0.0,0.0,0.0,0.0,0.0,0.0,0.0,0.0,0.0,0.0,0.0,0.0,0.0,0.0,0.0,0.0,0.0,0.0,0.0,0.0,0.0,0.0,0.0,0.0,0.0,0.0,0.0,0.0,0.0,0.0,0.0,0.0,0.0,0.0,0.0,0.0,0.0,0.0,0.0,0.0,0.0,0.0,0.0,0.0,0.0,0.0,0.0,0.0,0.0,0.0,0.0,0.0,0.0,0.0,0.0,0.0,0.0,0.0,0.0,0.0,0.0,0.0,0.0,0.0,0.0,0.0,0.0,0.0,0.0,0.0,0.0,0.0,0.0,0.0,0.0,0.0,0.0,0.0,0.0,0.0,0.0,0.0,0.0,0.0,0.0,0.0,0.0,0.0,0.0,-3.9685,-4.1914,-4.4045,0.0,0.0,0.0,0.0,0.0,0.0,0.0,0.0,0.0,0.0,0.0,0.0,0.0,0.0,0.0,0.0,0.0,0.0,0.0,0.0,0.0,0.0,0.0,0.0,0.0,0.0,0.0,0.0,0.0,0.0,0.0,0.0,0.0,0.0,0.0,0.0,0.0,0.0,0.0,0.0,0.0,0.0,0.0,0.0,0.0,0.0,0.0,0.0,0.0,0.0,0.0,0.0,0.0,0.0,0.0,0.0,0.0,0.0,0.0,0.0,0.0,0.0,0.0,0.0,0.0,0.0,0.0,0.0,0.0,0.0,0.0,0.0,0.0,0.0,0.0,0.0,0.0,0.0,0.0,0.0,0.0,0.0,0.0,0.0,0.0,0.0,0.0,0.0,0.0,0.0,0.0,0.0,0.0,0.0,0.0,0.0,0.0,0.0,0.0,0.0,0.0,0.0,0.0,0.0,0.0,0.0,0.0,0.0,0.0,0.0,-2.3562,-3.3645,-3.7221,-4.0172,-4.2755,0.0,0.0,0.0,0.0,0.0,0.0,0.0,0.0,0.0,0.0,0.0,0.0,0.0,0.0,0.0,0.0,0.0,0.0,0.0,0.0,0.0,0.0,0.0,0.0,0.0,0.0,0.0,0.0,0.0,0.0,0.0,0.0,0.0,0.0,0.0,0.0,0.0,0.0,0.0,0.0,0.0,0.0,0.0,0.0,0.0,0.0,0.0,0.0,0.0,0.0,0.0,0.0,0.0,0.0,0.0,0.0,0.0,0.0,0.0,0.0,0.0,0.0,0.0,0.0,0.0,0.0,0.0,0.0,0.0,0.0,0.0,0.0,0.0,0.0,0.0,0.0,0.0,0.0,0.0,0.0,0.0,0.0,0.0,0.0,0.0,0.0,0.0,0.0,0.0,0.0,0.0,0.0,0.0,0.0,0.0,0.0,0.0,0.0,0.0,0.0,0.0,0.0,0.0,0.0,0.0,0.0,0.0,0.0,0.0,0.0,-1.6934,0.0,0.0,0.0,-4.2561,0.0,0.0,0.0,0.0,0.0,0.0,0.0,0.0,0.0,0.0,0.0,0.0,0.0,0.0,0.0,0.0,0.0,0.0,0.0,0.0,0.0,0.0,0.0,0.0,0.0,0.0,0.0,0.0,0.0,0.0,0.0,0.0,0.0,0.0,0.0,0.0,0.0,0.0,0.0,0.0,0.0,0.0,0.0,0.0,0.0,0.0,0.0,0.0,0.0,0.0,0.0,0.0,0.0,0.0,0.0,0.0,0.0,0.0,0.0,0.0,0.0,0.0,0.0,0.0,0.0,0.0,0.0,0.0,0.0,0.0,0.0,0.0,0.0,0.0,0.0,0.0,0.0,0.0,0.0,0.0,0.0,0.0,0.0,0.0,0.0,0.0,0.0,0.0,0.0,0.0,0.0,0.0,0.0,0.0,0.0,0.0,0.0,0.0,0.0,0.0,0.0,0.0,0.0,0.0,0.0,0.0,0.0,0.0,0.0,0.0,0.0,0.0,0.0,0.0,0.0,0.0,0.0,0.0,0.0,0.0,0.0,0.0,0.0,0.0,0.0,0.0,0.0,0.0,0.0,0.0,0.0,0.0,0.0,0.0,0.0,0.0,0.0,0.0,0.0,0.0,0.0,0.0,0.0,0.0,0.0,0.0,0.0,0.0,0.0,0.0,0.0,0.0,0.0,0.0,0.0,0.0,0.0,0.0,0.0,0.0,0.0,0.0,0.0,0.0,0.0,0.0,0.0,0.0,0.0,0.0,0.0,0.0,0.0,0.0,0.0,0.0,0.0,0.0,0.0,0.0,0.0,0.0,0.0,0.0,0.0,0.0,0.0,0.0,0.0,0.0,0.0,0.0,0.0,0.0,0.0,0.0,0.0,0.0,0.0,0.0,0.0,0.0,0.0,0.0,0.0,0.0,0.0,0.0,0.0,0.0,0.0,0.0,0.0,0.0,0.0,0.0,0.0,0.0,0.0,0.0,0.0,0.0,0.0,0.0,0.0,0.0,0.0,0.0,0.0,0.0,0.0,0.0,0.0,0.0,0.0,0.0,0.0,0.0,0.0,0.0,0.0,0.0,0.0,0.0,0.0,0.0,0.0,0.0,0.0,0.0,0.0,0.0,0.0,0.0,0.0,0.0,0.0,0.0,0.0,0.0,0.0,0.0,0.0,0.0,0.0,0.0,0.0,0.0,0.0,0.0,0.0,0.0,0.0,0.0,0.0,0.0,0.0,0.0,0.0,0.0,0.0,0.0,0.0,0.0,0.0,0.0,0.0,0.0,0.0,0.0,0.0,0.0,0.0,0.0,0.0,0.0,0.0,0.0,0.0,0.0,0.0,0.0,0.0,0.0,0.0,0.0,0.0,0.0,0.0,0.0,0.0,0.0,0.0,0.0,0.0,0.0,0.0,0.0,0.0,0.0,0.0,0.0,0.0,0.0,0.0,0.0,0.0,0.0,0.0,0.0,0.0,0.0,0.0,0.0,0.0,0.0,0.0,0.0,0.0,0.0,0.0,0.0,0.0,0.0,0.0,0.0,0.0,0.0,0.0,0.0,0.0,0.0,0.0,0.0,0.0,0.0,0.0,0.0,0.0,0.0,0.0,0.0,0.0,0.0,0.0,0.0,0.0,0.0,0.0,0.0,0.0,0.0,0.0,0.0,0.0,0.0,0.0,0.0,0.0,0.0,0.0,0.0,0.0,0.0,0.0,0.0,0.0,0.0,0.0,0.0,0.0,0.0,0.0,0.0,0.0,0.0,0.0,0.0,0.0,0.0,0.0,0.0,0.0,0.0,0.0,0.0,0.0,0.0,0.0,0.0,0.0,0.0,0.0,0.0,0.0,0.0,0.0,0.0,0.0,0.0,0.0,0.0,0.0,0.0,0.0,0.0,0.0,0.0,0.0,0.0,0.0,0.0,0.0,0.0,0.0,0.0,0.0,0.0,0.0,0.0,0.0,0.0,0.0,0.0,0.0,0.0,0.0,0.0,0.0,0.0,0.0,0.0,0.0,0.0,0.0,0.0,0.0,0.0,0.0,0.0,0.0,0.0,0.0,0.0,0.0,0.0,0.0,0.0,0.0,0.0,0.0,0.0,0.0,0.0,0.0,0.0,0.0,0.0,0.0,0.0,0.0,0.0,0.0,0.0,0.0,0.0,0.0,0.0,0.0,0.0,0.0,0.0,0.0,0.0,0.0,0.0,0.0,0.0,0.0,0.0,0.0,0.0,0.0,0.0,0.0,0.0,0.0,0.0,0.0,0.0,0.0,0.0,0.0,0.0,0.0,0.0,0.0,0.0,0.0,0.0,0.0,0.0,0.0,0.0,0.0,0.0,0.0,0.0,0.0,0.0,0.0,0.0,0.0,0.0,0.0,0.0,0.0,0.0,0.0,0.0,0.0,0.0,0.0,0.0,0.0,0.0,0.0,0.0,0.0,0.0,0.0,0.0,0.0,0.0,0.0,0.0,0.0,0.0,0.0,0.0,0.0,0.0,0.0,0.0,0.0,0.0,0.0,0.0,0.0,0.0,0.0,0.0,0.0,0.0,0.0,0.0,0.0,0.0,0.0,0.0,0.0,0.0,0.0,0.0,0.0,0.0,0.0,0.0,0.0,0.0,0.0,0.0,0.0,0.0,0.0,0.0,0.0,0.0,0.0,0.0,0.0,0.0,0.0,0.0,0.0,0.0,0.0,0.0,0.0,0.0,0.0,0.0,0.0,0.0,0.0,0.0,0.0,0.0,0.0,0.0,0.0,0.0,0.0,0.0,0.0,0.0,0.0,0.0,0.0,0.0,0.0,0.0,0.0,0.0,0.0,0.0,0.0,0.0,0.0,0.0,0.0,0.0,0.0,0.0,0.0,0.0,0.0,0.0,0.0,0.0,0.0,0.0,0.0,0.0,0.0,0.0,0.0,0.0,0.0,0.0,0.0,0.0,0.0,0.0,0.0,0.0,0.0,0.0,0.0,0.0,0.0,0.0,0.0,0.0,0.0,0.0,0.0,0.0,0.0,0.0,0.0,0.0,0.0,0.0,0.0,0.0,0.0,0.0,0.0,0.0,0.0,0.0,0.0,0.0,0.0,0.0,0.0,0.0,0.0,0.0,0.0,0.0,0.0,0.0,0.0,0.0,0.0,0.0,0.0,0.0,0.0,0.0,0.0,0.0,0.0,0.0,0.0,0.0,0.0,0.0,0.0,0.0,0.0,0.0,0.0,0.0,0.0,0.0,0.0,0.0,0.0,0.0,0.0,0.0,0.0,0.0,0.0,0.0,0.0,0.0,0.0,0.0,0.0,0.0,0.0,0.0,0.0,0.0,0.0,0.0,0.0,0.0,0.0,0.0,0.0,0.0,0.0,0.0,0.0,0.0,0.0,0.0,0.0,0.0,0.0,0.0,0.0,0.0,0.0,0.0,0.0,0.0,0.0,0.0,0.0,0.0,0.0,0.0,0.0,0.0,0.0,0.0,0.0,0.0,0.0,0.0,0.0,0.0,0.0,0.0,0.0,0.0,0.0,0.0,0.0,0.0,0.0,0.0,0.0,0.0,0.0,0.0,0.0,0.0,0.0,0.0,0.0,0.0,0.0,0.0,0.0,0.0,0.0,0.0,0.0,0.0,0.0,0.0,0.0,0.0,0.0,0.0,0.0,0.0,0.0,0.0,0.0,0.0,0.0,0.0,0.0,0.0,0.0,0.0,0.0,0.0,0.0,0.0,0.0,0.0,0.0,0.0,0.0,0.0,0.0,0.0,0.0,0.0,0.0,0.0,0.0,0.0,0.0,0.0,0.0,0.0,0.0,0.0,0.0,0.0,0.0,0.0,0.0,0.0,0.0,0.0,0.0,0.0,0.0,0.0,0.0,0.0,0.0,0.0,0.0,0.0,0.0,0.0,0.0,0.0,0.0,0.0,0.0,0.0,0.0,0.0,0.0,0.0,0.0,0.0,0.0,0.0,0.0,0.0,0.0,0.0,0.0,0.0,0.0,0.0,0.0,0.0,0.0,0.0,0.0,0.0,0.0,0.0,0.0,0.0,0.0,0.0,0.0,0.0,0.0,0.0,0.0,0.0,0.0,0.0,0.0,0.0,0.0,0.0,0.0,0.0,0.0,0.0,0.0,0.0,0.0,0.0,0.0,0.0,0.0,0.0,0.0,0.0,0.0,0.0,0.0,0.0,0.0,0.0,0.0,0.0,0.0,0.0,0.0,0.0,0.0,0.0,0.0,0.0,0.0,0.0,0.0,0.0,0.0,0.0,0.0,0.0,0.0,0.0,0.0,0.0,0.0,0.0,0.0,0.0,0.0,0.0,0.0,0.0,0.0,0.0,0.0,0.0,0.0,0.0,0.0,0.0,0.0,0.0,0.0,0.0,0.0,0.0]}]]]